﻿<?xml version="1.0" encoding="utf-8"?><gpx creator="Garmin Desktop App" version="1.1" xsi:schemaLocation="http://www.topografix.com/GPX/1/1 http://www.topografix.com/GPX/1/1/gpx.xsd http://www.garmin.com/xmlschemas/WaypointExtension/v1 http://www8.garmin.com/xmlschemas/WaypointExtensionv1.xsd http://www.garmin.com/xmlschemas/TrackPointExtension/v1 http://www.garmin.com/xmlschemas/TrackPointExtensionv1.xsd http://www.garmin.com/xmlschemas/GpxExtensions/v3 http://www8.garmin.com/xmlschemas/GpxExtensionsv3.xsd http://www.garmin.com/xmlschemas/ActivityExtension/v1 http://www8.garmin.com/xmlschemas/ActivityExtensionv1.xsd http://www.garmin.com/xmlschemas/AdventuresExtensions/v1 http://www8.garmin.com/xmlschemas/AdventuresExtensionv1.xsd http://www.garmin.com/xmlschemas/PressureExtension/v1 http://www.garmin.com/xmlschemas/PressureExtensionv1.xsd http://www.garmin.com/xmlschemas/TripExtensions/v1 http://www.garmin.com/xmlschemas/TripExtensionsv1.xsd http://www.garmin.com/xmlschemas/TripMetaDataExtensions/v1 http://www.garmin.com/xmlschemas/TripMetaDataExtensionsv1.xsd http://www.garmin.com/xmlschemas/ViaPointTransportationModeExtensions/v1 http://www.garmin.com/xmlschemas/ViaPointTransportationModeExtensionsv1.xsd http://www.garmin.com/xmlschemas/CreationTimeExtension/v1 http://www.garmin.com/xmlschemas/CreationTimeExtensionsv1.xsd http://www.garmin.com/xmlschemas/AccelerationExtension/v1 http://www.garmin.com/xmlschemas/AccelerationExtensionv1.xsd http://www.garmin.com/xmlschemas/PowerExtension/v1 http://www.garmin.com/xmlschemas/PowerExtensionv1.xsd http://www.garmin.com/xmlschemas/VideoExtension/v1 http://www.garmin.com/xmlschemas/VideoExtensionv1.xsd" xmlns="http://www.topografix.com/GPX/1/1" xmlns:xsi="http://www.w3.org/2001/XMLSchema-instance" xmlns:wptx1="http://www.garmin.com/xmlschemas/WaypointExtension/v1" xmlns:gpxtrx="http://www.garmin.com/xmlschemas/GpxExtensions/v3" xmlns:gpxtpx="http://www.garmin.com/xmlschemas/TrackPointExtension/v1" xmlns:gpxx="http://www.garmin.com/xmlschemas/GpxExtensions/v3" xmlns:trp="http://www.garmin.com/xmlschemas/TripExtensions/v1" xmlns:adv="http://www.garmin.com/xmlschemas/AdventuresExtensions/v1" xmlns:prs="http://www.garmin.com/xmlschemas/PressureExtension/v1" xmlns:tmd="http://www.garmin.com/xmlschemas/TripMetaDataExtensions/v1" xmlns:vptm="http://www.garmin.com/xmlschemas/ViaPointTransportationModeExtensions/v1" xmlns:ctx="http://www.garmin.com/xmlschemas/CreationTimeExtension/v1" xmlns:gpxacc="http://www.garmin.com/xmlschemas/AccelerationExtension/v1" xmlns:gpxpx="http://www.garmin.com/xmlschemas/PowerExtension/v1" xmlns:vidx1="http://www.garmin.com/xmlschemas/VideoExtension/v1">

  <metadata>
    <link href="http://www.garmin.com">
      <text>Garmin International</text>
    </link>
    <time>2018-05-07T10:50:43Z</time>
    <bounds maxlat="45.884710298851132" maxlon="8.372497754171491" minlat="45.871631344780326" minlon="8.309583021327853" />
  </metadata>

  <trk>
    <name>monte croce2018-05-06</name>
    <extensions>
      <gpxx:TrackExtension>
        <gpxx:DisplayColor>Yellow</gpxx:DisplayColor>
      </gpxx:TrackExtension>
      <gpxtrkx:TrackStatsExtension xmlns:gpxtrkx="http://www.garmin.com/xmlschemas/TrackStatsExtension/v1">
        <gpxtrkx:Distance>15376</gpxtrkx:Distance>
        <gpxtrkx:TotalElapsedTime>24430</gpxtrkx:TotalElapsedTime>
        <gpxtrkx:MovingTime>17215</gpxtrkx:MovingTime>
        <gpxtrkx:StoppedTime>7203</gpxtrkx:StoppedTime>
        <gpxtrkx:MovingSpeed>1</gpxtrkx:MovingSpeed>
        <gpxtrkx:MaxSpeed>2</gpxtrkx:MaxSpeed>
        <gpxtrkx:MaxElevation>1649</gpxtrkx:MaxElevation>
        <gpxtrkx:MinElevation>848</gpxtrkx:MinElevation>
        <gpxtrkx:Ascent>838</gpxtrkx:Ascent>
        <gpxtrkx:Descent>826</gpxtrkx:Descent>
        <gpxtrkx:AvgAscentRate>0</gpxtrkx:AvgAscentRate>
        <gpxtrkx:MaxAscentRate>0</gpxtrkx:MaxAscentRate>
        <gpxtrkx:AvgDescentRate>0</gpxtrkx:AvgDescentRate>
        <gpxtrkx:MaxDescentRate>-1</gpxtrkx:MaxDescentRate>
      </gpxtrkx:TrackStatsExtension>
    </extensions>
    <trkseg>
      <trkpt lat="45.871766293421388" lon="8.371468121185899">
        <ele>908.10000000000002</ele>
        <time>2018-05-06T07:07:57Z</time>
      </trkpt>
      <trkpt lat="45.871765622869134" lon="8.37146233767271">
        <ele>908.10000000000002</ele>
        <time>2018-05-06T07:07:58Z</time>
      </trkpt>
      <trkpt lat="45.871773166581988" lon="8.371453117579222">
        <ele>849.94000000000005</ele>
        <time>2018-05-06T07:08:03Z</time>
      </trkpt>
      <trkpt lat="45.871768556535244" lon="8.371455548331142">
        <ele>849.94000000000005</ele>
        <time>2018-05-06T07:08:04Z</time>
      </trkpt>
      <trkpt lat="45.871767047792673" lon="8.371475078165531">
        <ele>848.98000000000002</ele>
        <time>2018-05-06T07:08:11Z</time>
      </trkpt>
      <trkpt lat="45.871762856841087" lon="8.371462505310774">
        <ele>848.98000000000002</ele>
        <time>2018-05-06T07:08:17Z</time>
      </trkpt>
      <trkpt lat="45.871724467724562" lon="8.371391510590911">
        <ele>848.01999999999998</ele>
        <time>2018-05-06T07:08:27Z</time>
      </trkpt>
      <trkpt lat="45.871722539886832" lon="8.371386313810945">
        <ele>848.01999999999998</ele>
        <time>2018-05-06T07:08:30Z</time>
      </trkpt>
      <trkpt lat="45.871701585128903" lon="8.371409783139825">
        <ele>848.98000000000002</ele>
        <time>2018-05-06T07:08:39Z</time>
      </trkpt>
      <trkpt lat="45.871697813272476" lon="8.37141489610076">
        <ele>848.98000000000002</ele>
        <time>2018-05-06T07:08:54Z</time>
      </trkpt>
      <trkpt lat="45.871691945940256" lon="8.371406178921461">
        <ele>848.98000000000002</ele>
        <time>2018-05-06T07:09:06Z</time>
      </trkpt>
      <trkpt lat="45.871683480218053" lon="8.371432079002261">
        <ele>848.98000000000002</ele>
        <time>2018-05-06T07:09:16Z</time>
      </trkpt>
      <trkpt lat="45.871667051687837" lon="8.371411208063364">
        <ele>848.98000000000002</ele>
        <time>2018-05-06T07:09:27Z</time>
      </trkpt>
      <trkpt lat="45.871631344780326" lon="8.371370807290077">
        <ele>849.46000000000004</ele>
        <time>2018-05-06T07:09:38Z</time>
      </trkpt>
      <trkpt lat="45.871669314801693" lon="8.371288497000933">
        <ele>849.94000000000005</ele>
        <time>2018-05-06T07:09:46Z</time>
      </trkpt>
      <trkpt lat="45.871735280379653" lon="8.371192188933492">
        <ele>851.38</ele>
        <time>2018-05-06T07:09:58Z</time>
      </trkpt>
      <trkpt lat="45.871792444959283" lon="8.371227476745844">
        <ele>851.87</ele>
        <time>2018-05-06T07:10:08Z</time>
      </trkpt>
      <trkpt lat="45.871785990893841" lon="8.371230326592922">
        <ele>851.87</ele>
        <time>2018-05-06T07:10:22Z</time>
      </trkpt>
      <trkpt lat="45.871747769415379" lon="8.37124440819025">
        <ele>852.35000000000002</ele>
        <time>2018-05-06T07:10:31Z</time>
      </trkpt>
      <trkpt lat="45.871749864891171" lon="8.371248682960868">
        <ele>851.87</ele>
        <time>2018-05-06T07:10:48Z</time>
      </trkpt>
      <trkpt lat="45.871728574857116" lon="8.37124633602798">
        <ele>852.35000000000002</ele>
        <time>2018-05-06T07:11:00Z</time>
      </trkpt>
      <trkpt lat="45.87171801365912" lon="8.371224710717797">
        <ele>852.83000000000004</ele>
        <time>2018-05-06T07:11:16Z</time>
      </trkpt>
      <trkpt lat="45.871727233752608" lon="8.371240217238665">
        <ele>852.83000000000004</ele>
        <time>2018-05-06T07:11:36Z</time>
      </trkpt>
      <trkpt lat="45.871722539886832" lon="8.371245414018631">
        <ele>852.35000000000002</ele>
        <time>2018-05-06T07:11:49Z</time>
      </trkpt>
      <trkpt lat="45.871721534058452" lon="8.371254215016961">
        <ele>852.83000000000004</ele>
        <time>2018-05-06T07:12:01Z</time>
      </trkpt>
      <trkpt lat="45.871709296479821" lon="8.371237702667713">
        <ele>852.83000000000004</ele>
        <time>2018-05-06T07:12:12Z</time>
      </trkpt>
      <trkpt lat="45.871696723625064" lon="8.371331999078393">
        <ele>852.83000000000004</ele>
        <time>2018-05-06T07:12:23Z</time>
      </trkpt>
      <trkpt lat="45.871694292873144" lon="8.371304757893086">
        <ele>853.30999999999995</ele>
        <time>2018-05-06T07:12:45Z</time>
      </trkpt>
      <trkpt lat="45.871756738051772" lon="8.371288161724806">
        <ele>852.83000000000004</ele>
        <time>2018-05-06T07:12:55Z</time>
      </trkpt>
      <trkpt lat="45.871781129390001" lon="8.371320096775889">
        <ele>852.83000000000004</ele>
        <time>2018-05-06T07:13:04Z</time>
      </trkpt>
      <trkpt lat="45.871816165745258" lon="8.371352618560195">
        <ele>853.30999999999995</ele>
        <time>2018-05-06T07:13:13Z</time>
      </trkpt>
      <trkpt lat="45.871864529326558" lon="8.371400982141495">
        <ele>853.30999999999995</ele>
        <time>2018-05-06T07:13:24Z</time>
      </trkpt>
      <trkpt lat="45.871931919828057" lon="8.371488153934479">
        <ele>853.78999999999996</ele>
        <time>2018-05-06T07:13:36Z</time>
      </trkpt>
      <trkpt lat="45.871937451884151" lon="8.371496116742492">
        <ele>853.30999999999995</ele>
        <time>2018-05-06T07:13:37Z</time>
      </trkpt>
      <trkpt lat="45.872046248987317" lon="8.371632238849998">
        <ele>853.78999999999996</ele>
        <time>2018-05-06T07:13:51Z</time>
      </trkpt>
      <trkpt lat="45.87210207246244" lon="8.371711615473032">
        <ele>854.75</ele>
        <time>2018-05-06T07:14:01Z</time>
      </trkpt>
      <trkpt lat="45.872161248698831" lon="8.37175352498889">
        <ele>854.75</ele>
        <time>2018-05-06T07:14:13Z</time>
      </trkpt>
      <trkpt lat="45.87216367945075" lon="8.371787639334798">
        <ele>854.75</ele>
        <time>2018-05-06T07:14:20Z</time>
      </trkpt>
      <trkpt lat="45.872172648087144" lon="8.371810102835298">
        <ele>855.23000000000002</ele>
        <time>2018-05-06T07:14:22Z</time>
      </trkpt>
      <trkpt lat="45.872193351387978" lon="8.371871206909418">
        <ele>855.23000000000002</ele>
        <time>2018-05-06T07:14:27Z</time>
      </trkpt>
      <trkpt lat="45.872346069663763" lon="8.371994504705071">
        <ele>855.71000000000004</ele>
        <time>2018-05-06T07:14:40Z</time>
      </trkpt>
      <trkpt lat="45.872355792671442" lon="8.372002802789211">
        <ele>855.71000000000004</ele>
        <time>2018-05-06T07:14:41Z</time>
      </trkpt>
      <trkpt lat="45.872403988614678" lon="8.372068768367171">
        <ele>856.19000000000005</ele>
        <time>2018-05-06T07:14:48Z</time>
      </trkpt>
      <trkpt lat="45.872503146529198" lon="8.372171698138118">
        <ele>856.66999999999996</ele>
        <time>2018-05-06T07:15:01Z</time>
      </trkpt>
      <trkpt lat="45.872608590871096" lon="8.372247889637947">
        <ele>857.63</ele>
        <time>2018-05-06T07:15:12Z</time>
      </trkpt>
      <trkpt lat="45.872677154839039" lon="8.372360542416573">
        <ele>857.63</ele>
        <time>2018-05-06T07:15:22Z</time>
      </trkpt>
      <trkpt lat="45.872738258913159" lon="8.372373282909393">
        <ele>857.63</ele>
        <time>2018-05-06T07:15:32Z</time>
      </trkpt>
      <trkpt lat="45.872836913913488" lon="8.372378312051296">
        <ele>858.59000000000003</ele>
        <time>2018-05-06T07:15:44Z</time>
      </trkpt>
      <trkpt lat="45.872998768463731" lon="8.372475206851959">
        <ele>859.08000000000004</ele>
        <time>2018-05-06T07:15:59Z</time>
      </trkpt>
      <trkpt lat="45.873002875596285" lon="8.372476380318403">
        <ele>859.08000000000004</ele>
        <time>2018-05-06T07:16:09Z</time>
      </trkpt>
      <trkpt lat="45.873014945536852" lon="8.372474201023579">
        <ele>859.08000000000004</ele>
        <time>2018-05-06T07:16:11Z</time>
      </trkpt>
      <trkpt lat="45.872984351590276" lon="8.372386107221246">
        <ele>859.55999999999995</ele>
        <time>2018-05-06T07:16:21Z</time>
      </trkpt>
      <trkpt lat="45.872999606654048" lon="8.372408486902714">
        <ele>859.55999999999995</ele>
        <time>2018-05-06T07:16:23Z</time>
      </trkpt>
      <trkpt lat="45.87302953004837" lon="8.372469590976834">
        <ele>859.55999999999995</ele>
        <time>2018-05-06T07:16:31Z</time>
      </trkpt>
      <trkpt lat="45.873092729598284" lon="8.372494066134095">
        <ele>859.55999999999995</ele>
        <time>2018-05-06T07:16:36Z</time>
      </trkpt>
      <trkpt lat="45.87322155945003" lon="8.372448971495032">
        <ele>860.51999999999998</ele>
        <time>2018-05-06T07:16:47Z</time>
      </trkpt>
      <trkpt lat="45.873228097334504" lon="8.372433548793197">
        <ele>860.51999999999998</ele>
        <time>2018-05-06T07:16:48Z</time>
      </trkpt>
      <trkpt lat="45.873262379318476" lon="8.372311843559146">
        <ele>862.44000000000005</ele>
        <time>2018-05-06T07:16:59Z</time>
      </trkpt>
      <trkpt lat="45.873265396803617" lon="8.372117802500725">
        <ele>864.36000000000001</ele>
        <time>2018-05-06T07:17:13Z</time>
      </trkpt>
      <trkpt lat="45.873257769271731" lon="8.37210145778954">
        <ele>864.36000000000001</ele>
        <time>2018-05-06T07:17:14Z</time>
      </trkpt>
      <trkpt lat="45.873164646327496" lon="8.372046891599894">
        <ele>866.28999999999996</ele>
        <time>2018-05-06T07:17:25Z</time>
      </trkpt>
      <trkpt lat="45.873104799538851" lon="8.371949577704072">
        <ele>867.25</ele>
        <time>2018-05-06T07:17:36Z</time>
      </trkpt>
      <trkpt lat="45.873027266934514" lon="8.371899956837297">
        <ele>868.69000000000005</ele>
        <time>2018-05-06T07:17:49Z</time>
      </trkpt>
      <trkpt lat="45.872994493693113" lon="8.371811611577869">
        <ele>870.61000000000001</ele>
        <time>2018-05-06T07:18:01Z</time>
      </trkpt>
      <trkpt lat="45.872929282486439" lon="8.371695941314101">
        <ele>872.52999999999997</ele>
        <time>2018-05-06T07:18:13Z</time>
      </trkpt>
      <trkpt lat="45.872906148433685" lon="8.371665682643652">
        <ele>873.00999999999999</ele>
        <time>2018-05-06T07:18:23Z</time>
      </trkpt>
      <trkpt lat="45.872910004109144" lon="8.371666520833969">
        <ele>873.5</ele>
        <time>2018-05-06T07:18:25Z</time>
      </trkpt>
      <trkpt lat="45.872998936101794" lon="8.371667191386223">
        <ele>873.5</ele>
        <time>2018-05-06T07:18:36Z</time>
      </trkpt>
      <trkpt lat="45.872981166467071" lon="8.371694767847657">
        <ele>873.00999999999999</ele>
        <time>2018-05-06T07:18:46Z</time>
      </trkpt>
      <trkpt lat="45.87299382314086" lon="8.37170172482729">
        <ele>873.00999999999999</ele>
        <time>2018-05-06T07:18:55Z</time>
      </trkpt>
      <trkpt lat="45.873031290248036" lon="8.371707759797573">
        <ele>873.00999999999999</ele>
        <time>2018-05-06T07:19:01Z</time>
      </trkpt>
      <trkpt lat="45.87304905988276" lon="8.371718404814601">
        <ele>873.00999999999999</ele>
        <time>2018-05-06T07:19:03Z</time>
      </trkpt>
      <trkpt lat="45.873120808973908" lon="8.371744137257338">
        <ele>872.52999999999997</ele>
        <time>2018-05-06T07:19:11Z</time>
      </trkpt>
      <trkpt lat="45.873139249160886" lon="8.371745310723782">
        <ele>873.00999999999999</ele>
        <time>2018-05-06T07:19:13Z</time>
      </trkpt>
      <trkpt lat="45.873299175873399" lon="8.371666437014937">
        <ele>872.52999999999997</ele>
        <time>2018-05-06T07:19:26Z</time>
      </trkpt>
      <trkpt lat="45.873447451740503" lon="8.371609020978212">
        <ele>872.52999999999997</ele>
        <time>2018-05-06T07:19:39Z</time>
      </trkpt>
      <trkpt lat="45.873619029298425" lon="8.371647158637643">
        <ele>873.00999999999999</ele>
        <time>2018-05-06T07:19:51Z</time>
      </trkpt>
      <trkpt lat="45.873788930475712" lon="8.371683955192566">
        <ele>873.98000000000002</ele>
        <time>2018-05-06T07:20:05Z</time>
      </trkpt>
      <trkpt lat="45.873833438381553" lon="8.371676579117775">
        <ele>873.98000000000002</ele>
        <time>2018-05-06T07:20:15Z</time>
      </trkpt>
      <trkpt lat="45.87386948056519" lon="8.371640369296074">
        <ele>874.46000000000004</ele>
        <time>2018-05-06T07:20:23Z</time>
      </trkpt>
      <trkpt lat="45.873903511092067" lon="8.37160692550242">
        <ele>874.94000000000005</ele>
        <time>2018-05-06T07:20:37Z</time>
      </trkpt>
      <trkpt lat="45.874048015102744" lon="8.371541043743491">
        <ele>876.38</ele>
        <time>2018-05-06T07:20:50Z</time>
      </trkpt>
      <trkpt lat="45.874189166352153" lon="8.371489997953177">
        <ele>878.29999999999995</ele>
        <time>2018-05-06T07:21:02Z</time>
      </trkpt>
      <trkpt lat="45.874297711998224" lon="8.371402574703097">
        <ele>879.74000000000001</ele>
        <time>2018-05-06T07:21:12Z</time>
      </trkpt>
      <trkpt lat="45.874364851042628" lon="8.371320934966207">
        <ele>881.19000000000005</ele>
        <time>2018-05-06T07:21:19Z</time>
      </trkpt>
      <trkpt lat="45.874410532414913" lon="8.371225632727146">
        <ele>881.66999999999996</ele>
        <time>2018-05-06T07:21:26Z</time>
      </trkpt>
      <trkpt lat="45.874457638710737" lon="8.371184226125479">
        <ele>882.14999999999998</ele>
        <time>2018-05-06T07:21:30Z</time>
      </trkpt>
      <trkpt lat="45.874486807733774" lon="8.371023209765554">
        <ele>883.11000000000001</ele>
        <time>2018-05-06T07:21:39Z</time>
      </trkpt>
      <trkpt lat="45.874492255970836" lon="8.370990855619311">
        <ele>883.11000000000001</ele>
        <time>2018-05-06T07:21:41Z</time>
      </trkpt>
      <trkpt lat="45.874515725299716" lon="8.37079874239862">
        <ele>884.07000000000005</ele>
        <time>2018-05-06T07:21:53Z</time>
      </trkpt>
      <trkpt lat="45.874521341174841" lon="8.370714839547873">
        <ele>884.54999999999995</ele>
        <time>2018-05-06T07:21:58Z</time>
      </trkpt>
      <trkpt lat="45.874482365325093" lon="8.37056178599596">
        <ele>886.47000000000003</ele>
        <time>2018-05-06T07:22:08Z</time>
      </trkpt>
      <trkpt lat="45.87450030259788" lon="8.370439661666751">
        <ele>886.47000000000003</ele>
        <time>2018-05-06T07:22:15Z</time>
      </trkpt>
      <trkpt lat="45.874533746391535" lon="8.370384005829692">
        <ele>886.47000000000003</ele>
        <time>2018-05-06T07:22:19Z</time>
      </trkpt>
      <trkpt lat="45.874634077772498" lon="8.370292307808995">
        <ele>887.42999999999995</ele>
        <time>2018-05-06T07:22:30Z</time>
      </trkpt>
      <trkpt lat="45.874666180461645" lon="8.370235227048397">
        <ele>887.90999999999997</ele>
        <time>2018-05-06T07:22:34Z</time>
      </trkpt>
      <trkpt lat="45.87476315908134" lon="8.370127016678453">
        <ele>889.84000000000003</ele>
        <time>2018-05-06T07:22:43Z</time>
      </trkpt>
      <trkpt lat="45.874794591218233" lon="8.370084352791309">
        <ele>890.32000000000005</ele>
        <time>2018-05-06T07:22:47Z</time>
      </trkpt>
      <trkpt lat="45.874857874587178" lon="8.370003299787641">
        <ele>890.79999999999995</ele>
        <time>2018-05-06T07:22:54Z</time>
      </trkpt>
      <trkpt lat="45.874901292845607" lon="8.369959713891149">
        <ele>891.27999999999997</ele>
        <time>2018-05-06T07:22:58Z</time>
      </trkpt>
      <trkpt lat="45.874933395534754" lon="8.369903219863772">
        <ele>891.75999999999999</ele>
        <time>2018-05-06T07:23:02Z</time>
      </trkpt>
      <trkpt lat="45.874975556507707" lon="8.369727367535234">
        <ele>892.72000000000003</ele>
        <time>2018-05-06T07:23:13Z</time>
      </trkpt>
      <trkpt lat="45.874976813793182" lon="8.369633825495839">
        <ele>893.20000000000005</ele>
        <time>2018-05-06T07:23:19Z</time>
      </trkpt>
      <trkpt lat="45.875084521248937" lon="8.369577499106526">
        <ele>895.12</ele>
        <time>2018-05-06T07:23:32Z</time>
      </trkpt>
      <trkpt lat="45.875168340280652" lon="8.369549671187997">
        <ele>896.09000000000003</ele>
        <time>2018-05-06T07:23:42Z</time>
      </trkpt>
      <trkpt lat="45.875252159312367" lon="8.369491416960955">
        <ele>897.04999999999995</ele>
        <time>2018-05-06T07:23:51Z</time>
      </trkpt>
      <trkpt lat="45.875338912010193" lon="8.369425954297185">
        <ele>898.00999999999999</ele>
        <time>2018-05-06T07:24:01Z</time>
      </trkpt>
      <trkpt lat="45.875447206199169" lon="8.36936267092824">
        <ele>899.45000000000005</ele>
        <time>2018-05-06T07:24:12Z</time>
      </trkpt>
      <trkpt lat="45.875508561730385" lon="8.369314558804035">
        <ele>900.40999999999997</ele>
        <time>2018-05-06T07:24:21Z</time>
      </trkpt>
      <trkpt lat="45.875566229224205" lon="8.369242055341601">
        <ele>901.85000000000002</ele>
        <time>2018-05-06T07:24:33Z</time>
      </trkpt>
      <trkpt lat="45.875618783757091" lon="8.369194194674492">
        <ele>903.29999999999995</ele>
        <time>2018-05-06T07:24:45Z</time>
      </trkpt>
      <trkpt lat="45.875673517584801" lon="8.36913401260972">
        <ele>904.25999999999999</ele>
        <time>2018-05-06T07:24:57Z</time>
      </trkpt>
      <trkpt lat="45.87574627250433" lon="8.369070058688521">
        <ele>905.70000000000005</ele>
        <time>2018-05-06T07:25:08Z</time>
      </trkpt>
      <trkpt lat="45.875800587236881" lon="8.369008451700211">
        <ele>907.13999999999999</ele>
        <time>2018-05-06T07:25:19Z</time>
      </trkpt>
      <trkpt lat="45.875871162861586" lon="8.368956483900547">
        <ele>908.58000000000004</ele>
        <time>2018-05-06T07:25:29Z</time>
      </trkpt>
      <trkpt lat="45.875910054892302" lon="8.368866378441453">
        <ele>910.50999999999999</ele>
        <time>2018-05-06T07:25:42Z</time>
      </trkpt>
      <trkpt lat="45.875955233350396" lon="8.368806280195713">
        <ele>912.42999999999995</ele>
        <time>2018-05-06T07:25:53Z</time>
      </trkpt>
      <trkpt lat="45.876018265262246" lon="8.368737297132611">
        <ele>914.83000000000004</ele>
        <time>2018-05-06T07:26:06Z</time>
      </trkpt>
      <trkpt lat="45.876072412356734" lon="8.368658004328609">
        <ele>916.75</ele>
        <time>2018-05-06T07:26:19Z</time>
      </trkpt>
      <trkpt lat="45.876109208911657" lon="8.368614669889212">
        <ele>917.72000000000003</ele>
        <time>2018-05-06T07:26:29Z</time>
      </trkpt>
      <trkpt lat="45.876135695725679" lon="8.368517942726612">
        <ele>919.15999999999997</ele>
        <time>2018-05-06T07:26:39Z</time>
      </trkpt>
      <trkpt lat="45.876211803406477" lon="8.368454743176699">
        <ele>920.12</ele>
        <time>2018-05-06T07:26:51Z</time>
      </trkpt>
      <trkpt lat="45.876255389302969" lon="8.368363631889224">
        <ele>921.55999999999995</ele>
        <time>2018-05-06T07:27:03Z</time>
      </trkpt>
      <trkpt lat="45.876302160322666" lon="8.368285512551665">
        <ele>923</ele>
        <time>2018-05-06T07:27:13Z</time>
      </trkpt>
      <trkpt lat="45.876333005726337" lon="8.368209572508931">
        <ele>924.45000000000005</ele>
        <time>2018-05-06T07:27:23Z</time>
      </trkpt>
      <trkpt lat="45.876400396227837" lon="8.368123238906264">
        <ele>925.88999999999999</ele>
        <time>2018-05-06T07:27:34Z</time>
      </trkpt>
      <trkpt lat="45.876438952982426" lon="8.367990553379059">
        <ele>927.33000000000004</ele>
        <time>2018-05-06T07:27:46Z</time>
      </trkpt>
      <trkpt lat="45.876473737880588" lon="8.367931544780731">
        <ele>929.25</ele>
        <time>2018-05-06T07:27:59Z</time>
      </trkpt>
      <trkpt lat="45.87646946310997" lon="8.36790950037539">
        <ele>931.16999999999996</ele>
        <time>2018-05-06T07:28:13Z</time>
      </trkpt>
      <trkpt lat="45.876501565799117" lon="8.367901956662536">
        <ele>930.21000000000004</ele>
        <time>2018-05-06T07:28:29Z</time>
      </trkpt>
      <trkpt lat="45.876531237736344" lon="8.367798272520304">
        <ele>932.13999999999999</ele>
        <time>2018-05-06T07:28:40Z</time>
      </trkpt>
      <trkpt lat="45.876606842502952" lon="8.367722500115633">
        <ele>934.05999999999995</ele>
        <time>2018-05-06T07:28:53Z</time>
      </trkpt>
      <trkpt lat="45.87667616084218" lon="8.367609931156039">
        <ele>935.5</ele>
        <time>2018-05-06T07:29:05Z</time>
      </trkpt>
      <trkpt lat="45.876712622120976" lon="8.367532314732671">
        <ele>936.46000000000004</ele>
        <time>2018-05-06T07:29:15Z</time>
      </trkpt>
      <trkpt lat="45.876755705103278" lon="8.367408933117986">
        <ele>937.41999999999996</ele>
        <time>2018-05-06T07:29:28Z</time>
      </trkpt>
      <trkpt lat="45.876819156110287" lon="8.367260238155723">
        <ele>939.83000000000004</ele>
        <time>2018-05-06T07:29:43Z</time>
      </trkpt>
      <trkpt lat="45.87685695849359" lon="8.367208437994123">
        <ele>941.26999999999998</ele>
        <time>2018-05-06T07:29:55Z</time>
      </trkpt>
      <trkpt lat="45.876857880502939" lon="8.367137107998133">
        <ele>942.71000000000004</ele>
        <time>2018-05-06T07:30:09Z</time>
      </trkpt>
      <trkpt lat="45.876882020384073" lon="8.367063933983445">
        <ele>944.63</ele>
        <time>2018-05-06T07:30:20Z</time>
      </trkpt>
      <trkpt lat="45.876873135566711" lon="8.36698598228395">
        <ele>947.03999999999996</ele>
        <time>2018-05-06T07:30:31Z</time>
      </trkpt>
      <trkpt lat="45.87687355466187" lon="8.366883303970099">
        <ele>949.44000000000005</ele>
        <time>2018-05-06T07:30:42Z</time>
      </trkpt>
      <trkpt lat="45.87686181999743" lon="8.366806861013174">
        <ele>950.88</ele>
        <time>2018-05-06T07:30:51Z</time>
      </trkpt>
      <trkpt lat="45.876876739785075" lon="8.366692112758756">
        <ele>952.79999999999995</ele>
        <time>2018-05-06T07:31:01Z</time>
      </trkpt>
      <trkpt lat="45.876895431429148" lon="8.366603013128042">
        <ele>954.25</ele>
        <time>2018-05-06T07:31:12Z</time>
      </trkpt>
      <trkpt lat="45.87689652107656" lon="8.36649932898581">
        <ele>955.69000000000005</ele>
        <time>2018-05-06T07:31:21Z</time>
      </trkpt>
      <trkpt lat="45.876911273226142" lon="8.366402518004179">
        <ele>956.64999999999998</ele>
        <time>2018-05-06T07:31:30Z</time>
      </trkpt>
      <trkpt lat="45.876963827759027" lon="8.366336803883314">
        <ele>958.09000000000003</ele>
        <time>2018-05-06T07:31:40Z</time>
      </trkpt>
      <trkpt lat="45.877032727003098" lon="8.366305790841579">
        <ele>960.00999999999999</ele>
        <time>2018-05-06T07:31:52Z</time>
      </trkpt>
      <trkpt lat="45.877105733379722" lon="8.366240579634905">
        <ele>961.94000000000005</ele>
        <time>2018-05-06T07:32:06Z</time>
      </trkpt>
      <trkpt lat="45.877150073647499" lon="8.366180062294006">
        <ele>963.86000000000001</ele>
        <time>2018-05-06T07:32:17Z</time>
      </trkpt>
      <trkpt lat="45.877199443057179" lon="8.366161789745092">
        <ele>965.29999999999995</ele>
        <time>2018-05-06T07:32:29Z</time>
      </trkpt>
      <trkpt lat="45.877271695062518" lon="8.366155670955777">
        <ele>967.22000000000003</ele>
        <time>2018-05-06T07:32:41Z</time>
      </trkpt>
      <trkpt lat="45.877332296222448" lon="8.36615533567965">
        <ele>968.66999999999996</ele>
        <time>2018-05-06T07:32:51Z</time>
      </trkpt>
      <trkpt lat="45.877393819391727" lon="8.366141337901354">
        <ele>970.11000000000001</ele>
        <time>2018-05-06T07:33:02Z</time>
      </trkpt>
      <trkpt lat="45.877459449693561" lon="8.366120383143425">
        <ele>971.54999999999995</ele>
        <time>2018-05-06T07:33:12Z</time>
      </trkpt>
      <trkpt lat="45.877522313967347" lon="8.366028685122728">
        <ele>973.47000000000003</ele>
        <time>2018-05-06T07:33:24Z</time>
      </trkpt>
      <trkpt lat="45.877552404999733" lon="8.36612013168633">
        <ele>974.42999999999995</ele>
        <time>2018-05-06T07:33:34Z</time>
      </trkpt>
      <trkpt lat="45.877508735284209" lon="8.366194143891335">
        <ele>975.38999999999999</ele>
        <time>2018-05-06T07:33:44Z</time>
      </trkpt>
      <trkpt lat="45.877453330904245" lon="8.366296654567123">
        <ele>976.84000000000003</ele>
        <time>2018-05-06T07:33:55Z</time>
      </trkpt>
      <trkpt lat="45.877448553219438" lon="8.366356585174799">
        <ele>977.32000000000005</ele>
        <time>2018-05-06T07:34:06Z</time>
      </trkpt>
      <trkpt lat="45.877454001456499" lon="8.366352142766118">
        <ele>977.79999999999995</ele>
        <time>2018-05-06T07:34:22Z</time>
      </trkpt>
      <trkpt lat="45.877458108589053" lon="8.366348622366786">
        <ele>977.79999999999995</ele>
        <time>2018-05-06T07:34:41Z</time>
      </trkpt>
      <trkpt lat="45.877483673393726" lon="8.36638055741787">
        <ele>977.79999999999995</ele>
        <time>2018-05-06T07:34:59Z</time>
      </trkpt>
      <trkpt lat="45.877474201843143" lon="8.366399835795164">
        <ele>978.27999999999997</ele>
        <time>2018-05-06T07:35:13Z</time>
      </trkpt>
      <trkpt lat="45.877510076388717" lon="8.366316854953766">
        <ele>978.75999999999999</ele>
        <time>2018-05-06T07:35:25Z</time>
      </trkpt>
      <trkpt lat="45.877545699477196" lon="8.366268156096339">
        <ele>979.72000000000003</ele>
        <time>2018-05-06T07:35:34Z</time>
      </trkpt>
      <trkpt lat="45.877604205161333" lon="8.366197245195508">
        <ele>981.15999999999997</ele>
        <time>2018-05-06T07:35:45Z</time>
      </trkpt>
      <trkpt lat="45.877668242901564" lon="8.366139326244593">
        <ele>982.12</ele>
        <time>2018-05-06T07:35:56Z</time>
      </trkpt>
      <trkpt lat="45.877693556249142" lon="8.366078976541758">
        <ele>982.60000000000002</ele>
        <time>2018-05-06T07:36:05Z</time>
      </trkpt>
      <trkpt lat="45.877730939537287" lon="8.365961378440261">
        <ele>984.04999999999995</ele>
        <time>2018-05-06T07:36:16Z</time>
      </trkpt>
      <trkpt lat="45.877732448279858" lon="8.365950901061297">
        <ele>985.00999999999999</ele>
        <time>2018-05-06T07:36:17Z</time>
      </trkpt>
      <trkpt lat="45.877782572060823" lon="8.365847049281001">
        <ele>985.97000000000003</ele>
        <time>2018-05-06T07:36:28Z</time>
      </trkpt>
      <trkpt lat="45.877806041389704" lon="8.365778485313058">
        <ele>987.40999999999997</ele>
        <time>2018-05-06T07:36:38Z</time>
      </trkpt>
      <trkpt lat="45.877825990319252" lon="8.36569843813777">
        <ele>988.37</ele>
        <time>2018-05-06T07:36:48Z</time>
      </trkpt>
      <trkpt lat="45.877831857651472" lon="8.365645715966821">
        <ele>988.85000000000002</ele>
        <time>2018-05-06T07:36:56Z</time>
      </trkpt>
      <trkpt lat="45.877823894843459" lon="8.365531638264656">
        <ele>989.80999999999995</ele>
        <time>2018-05-06T07:37:07Z</time>
      </trkpt>
      <trkpt lat="45.877820793539286" lon="8.365379674360156">
        <ele>989.80999999999995</ele>
        <time>2018-05-06T07:37:18Z</time>
      </trkpt>
      <trkpt lat="45.877838982269168" lon="8.365285461768508">
        <ele>989.80999999999995</ele>
        <time>2018-05-06T07:37:29Z</time>
      </trkpt>
      <trkpt lat="45.877815177664161" lon="8.365284539759159">
        <ele>989.80999999999995</ele>
        <time>2018-05-06T07:37:31Z</time>
      </trkpt>
      <trkpt lat="45.877702357247472" lon="8.365354863926768">
        <ele>990.29999999999995</ele>
        <time>2018-05-06T07:37:42Z</time>
      </trkpt>
      <trkpt lat="45.877599762752652" lon="8.365331646054983">
        <ele>991.74000000000001</ele>
        <time>2018-05-06T07:37:54Z</time>
      </trkpt>
      <trkpt lat="45.877519715577364" lon="8.365262327715755">
        <ele>993.17999999999995</ele>
        <time>2018-05-06T07:38:06Z</time>
      </trkpt>
      <trkpt lat="45.877482416108251" lon="8.36519661359489">
        <ele>994.13999999999999</ele>
        <time>2018-05-06T07:38:15Z</time>
      </trkpt>
      <trkpt lat="45.877466574311256" lon="8.365107765421271">
        <ele>995.58000000000004</ele>
        <time>2018-05-06T07:38:26Z</time>
      </trkpt>
      <trkpt lat="45.877461042255163" lon="8.365042889490724">
        <ele>996.53999999999996</ele>
        <time>2018-05-06T07:38:36Z</time>
      </trkpt>
      <trkpt lat="45.877463640645146" lon="8.364957477897406">
        <ele>997.99000000000001</ele>
        <time>2018-05-06T07:38:46Z</time>
      </trkpt>
      <trkpt lat="45.877480488270521" lon="8.364850021898747">
        <ele>998.95000000000005</ele>
        <time>2018-05-06T07:38:55Z</time>
      </trkpt>
      <trkpt lat="45.877450564876199" lon="8.364732507616282">
        <ele>999.90999999999997</ele>
        <time>2018-05-06T07:39:07Z</time>
      </trkpt>
      <trkpt lat="45.877418043091893" lon="8.364650700241327">
        <ele>1001.35</ele>
        <time>2018-05-06T07:39:19Z</time>
      </trkpt>
      <trkpt lat="45.877394322305918" lon="8.36458582431078">
        <ele>1002.79</ele>
        <time>2018-05-06T07:39:28Z</time>
      </trkpt>
      <trkpt lat="45.87736708112061" lon="8.364510051906109">
        <ele>1004.23</ele>
        <time>2018-05-06T07:39:39Z</time>
      </trkpt>
      <trkpt lat="45.877350233495235" lon="8.364423466846347">
        <ele>1005.6799999999999</ele>
        <time>2018-05-06T07:39:48Z</time>
      </trkpt>
      <trkpt lat="45.877332463860512" lon="8.364325147122145">
        <ele>1007.6</ele>
        <time>2018-05-06T07:40:00Z</time>
      </trkpt>
      <trkpt lat="45.87732701562345" lon="8.364218277856708">
        <ele>1009.04</ele>
        <time>2018-05-06T07:40:12Z</time>
      </trkpt>
      <trkpt lat="45.877309245988727" lon="8.364123394712806">
        <ele>1010</ele>
        <time>2018-05-06T07:40:22Z</time>
      </trkpt>
      <trkpt lat="45.877303211018443" lon="8.364045862108469">
        <ele>1010.96</ele>
        <time>2018-05-06T07:40:33Z</time>
      </trkpt>
      <trkpt lat="45.877317544072866" lon="8.363936981186271">
        <ele>1012.41</ele>
        <time>2018-05-06T07:40:43Z</time>
      </trkpt>
      <trkpt lat="45.877327518537641" lon="8.363840924575925">
        <ele>1013.37</ele>
        <time>2018-05-06T07:40:53Z</time>
      </trkpt>
      <trkpt lat="45.877339504659176" lon="8.363692397251725">
        <ele>1014.8099999999999</ele>
        <time>2018-05-06T07:41:05Z</time>
      </trkpt>
      <trkpt lat="45.877342605963349" lon="8.363595418632031">
        <ele>1016.73</ele>
        <time>2018-05-06T07:41:16Z</time>
      </trkpt>
      <trkpt lat="45.877333972603083" lon="8.36348352022469">
        <ele>1017.6900000000001</ele>
        <time>2018-05-06T07:41:26Z</time>
      </trkpt>
      <trkpt lat="45.877329027280211" lon="8.363366173580289">
        <ele>1017.6900000000001</ele>
        <time>2018-05-06T07:41:37Z</time>
      </trkpt>
      <trkpt lat="45.877320729196072" lon="8.363343542441726">
        <ele>1019.62</ele>
        <time>2018-05-06T07:41:39Z</time>
      </trkpt>
      <trkpt lat="45.877319555729628" lon="8.363231979310513">
        <ele>1021.0599999999999</ele>
        <time>2018-05-06T07:41:50Z</time>
      </trkpt>
      <trkpt lat="45.877327937632799" lon="8.363113878294826">
        <ele>1022.98</ele>
        <time>2018-05-06T07:42:00Z</time>
      </trkpt>
      <trkpt lat="45.877352580428123" lon="8.36299242451787">
        <ele>1024.4200000000001</ele>
        <time>2018-05-06T07:42:12Z</time>
      </trkpt>
      <trkpt lat="45.877372864633799" lon="8.362876586616039">
        <ele>1025.8599999999999</ele>
        <time>2018-05-06T07:42:22Z</time>
      </trkpt>
      <trkpt lat="45.87739884853363" lon="8.362790169194341">
        <ele>1025.3800000000001</ele>
        <time>2018-05-06T07:42:34Z</time>
      </trkpt>
      <trkpt lat="45.877410583198071" lon="8.362735435366631">
        <ele>1027.3099999999999</ele>
        <time>2018-05-06T07:42:40Z</time>
      </trkpt>
      <trkpt lat="45.877432711422443" lon="8.362614400684834">
        <ele>1029.23</ele>
        <time>2018-05-06T07:42:53Z</time>
      </trkpt>
      <trkpt lat="45.877453833818436" lon="8.362535191699863">
        <ele>1030.6700000000001</ele>
        <time>2018-05-06T07:43:07Z</time>
      </trkpt>
      <trkpt lat="45.877442937344313" lon="8.362482134252787">
        <ele>1031.1500000000001</ele>
        <time>2018-05-06T07:43:18Z</time>
      </trkpt>
      <trkpt lat="45.877440003678203" lon="8.362490851432085">
        <ele>1031.1500000000001</ele>
        <time>2018-05-06T07:43:39Z</time>
      </trkpt>
      <trkpt lat="45.877438578754663" lon="8.362475093454123">
        <ele>1032.1099999999999</ele>
        <time>2018-05-06T07:43:49Z</time>
      </trkpt>
      <trkpt lat="45.877453833818436" lon="8.362497389316559">
        <ele>1032.1099999999999</ele>
        <time>2018-05-06T07:44:05Z</time>
      </trkpt>
      <trkpt lat="45.877463892102242" lon="8.362362189218402">
        <ele>1033.0699999999999</ele>
        <time>2018-05-06T07:44:16Z</time>
      </trkpt>
      <trkpt lat="45.877481745555997" lon="8.362287171185017">
        <ele>1034.04</ele>
        <time>2018-05-06T07:44:24Z</time>
      </trkpt>
      <trkpt lat="45.877504795789719" lon="8.362200167030096">
        <ele>1035</ele>
        <time>2018-05-06T07:44:33Z</time>
      </trkpt>
      <trkpt lat="45.877540167421103" lon="8.362092208117247">
        <ele>1036.4400000000001</ele>
        <time>2018-05-06T07:44:44Z</time>
      </trkpt>
      <trkpt lat="45.877533629536629" lon="8.362102685496211">
        <ele>1036.4400000000001</ele>
        <time>2018-05-06T07:44:53Z</time>
      </trkpt>
      <trkpt lat="45.87755911052227" lon="8.362062787637115">
        <ele>1036.9200000000001</ele>
        <time>2018-05-06T07:45:07Z</time>
      </trkpt>
      <trkpt lat="45.877553578466177" lon="8.361960528418422">
        <ele>1037.8800000000001</ele>
        <time>2018-05-06T07:45:18Z</time>
      </trkpt>
      <trkpt lat="45.877564642578363" lon="8.361850474029779">
        <ele>1038.8399999999999</ele>
        <time>2018-05-06T07:45:26Z</time>
      </trkpt>
      <trkpt lat="45.877612084150314" lon="8.36172005161643">
        <ele>1040.28</ele>
        <time>2018-05-06T07:45:37Z</time>
      </trkpt>
      <trkpt lat="45.877649635076523" lon="8.361620306968689">
        <ele>1041.25</ele>
        <time>2018-05-06T07:45:48Z</time>
      </trkpt>
      <trkpt lat="45.877624908462167" lon="8.361526513472199">
        <ele>1042.21</ele>
        <time>2018-05-06T07:45:58Z</time>
      </trkpt>
      <trkpt lat="45.877572437748313" lon="8.361452501267195">
        <ele>1043.1700000000001</ele>
        <time>2018-05-06T07:46:06Z</time>
      </trkpt>
      <trkpt lat="45.87752147577703" lon="8.36136138997972">
        <ele>1045.0899999999999</ele>
        <time>2018-05-06T07:46:17Z</time>
      </trkpt>
      <trkpt lat="45.877485852688551" lon="8.361280588433147">
        <ele>1046.53</ele>
        <time>2018-05-06T07:46:27Z</time>
      </trkpt>
      <trkpt lat="45.877497000619769" lon="8.361133737489581">
        <ele>1047.49</ele>
        <time>2018-05-06T07:46:38Z</time>
      </trkpt>
      <trkpt lat="45.877539161592722" lon="8.361026616767049">
        <ele>1049.4200000000001</ele>
        <time>2018-05-06T07:46:49Z</time>
      </trkpt>
      <trkpt lat="45.877550477162004" lon="8.361006248742342">
        <ele>1049.4200000000001</ele>
        <time>2018-05-06T07:46:51Z</time>
      </trkpt>
      <trkpt lat="45.877591799944639" lon="8.360898289829493">
        <ele>1050.3800000000001</ele>
        <time>2018-05-06T07:47:01Z</time>
      </trkpt>
      <trkpt lat="45.877647791057825" lon="8.360806927084923">
        <ele>1051.3399999999999</ele>
        <time>2018-05-06T07:47:10Z</time>
      </trkpt>
      <trkpt lat="45.877707889303565" lon="8.360751438885927">
        <ele>1052.3</ele>
        <time>2018-05-06T07:47:19Z</time>
      </trkpt>
      <trkpt lat="45.877745188772678" lon="8.360635433346033">
        <ele>1054.22</ele>
        <time>2018-05-06T07:47:30Z</time>
      </trkpt>
      <trkpt lat="45.877781063318253" lon="8.360497215762734">
        <ele>1056.1500000000001</ele>
        <time>2018-05-06T07:47:44Z</time>
      </trkpt>
      <trkpt lat="45.877803191542625" lon="8.36043200455606">
        <ele>1057.1099999999999</ele>
        <time>2018-05-06T07:47:53Z</time>
      </trkpt>
      <trkpt lat="45.877776788547635" lon="8.360342653468251">
        <ele>1058.55</ele>
        <time>2018-05-06T07:48:04Z</time>
      </trkpt>
      <trkpt lat="45.877784248441458" lon="8.360271407291293">
        <ele>1059.99</ele>
        <time>2018-05-06T07:48:12Z</time>
      </trkpt>
      <trkpt lat="45.877803610637784" lon="8.360125310719013">
        <ele>1061.4300000000001</ele>
        <time>2018-05-06T07:48:25Z</time>
      </trkpt>
      <trkpt lat="45.877823391929269" lon="8.360026152804494">
        <ele>1062.8699999999999</ele>
        <time>2018-05-06T07:48:36Z</time>
      </trkpt>
      <trkpt lat="45.877862200140953" lon="8.359930515289307">
        <ele>1064.8</ele>
        <time>2018-05-06T07:48:49Z</time>
      </trkpt>
      <trkpt lat="45.877916933968663" lon="8.359893970191479">
        <ele>1066.24</ele>
        <time>2018-05-06T07:49:00Z</time>
      </trkpt>
      <trkpt lat="45.877959178760648" lon="8.359859939664602">
        <ele>1067.6800000000001</ele>
        <time>2018-05-06T07:49:11Z</time>
      </trkpt>
      <trkpt lat="45.877987341955304" lon="8.359823478385806">
        <ele>1069.1199999999999</ele>
        <time>2018-05-06T07:49:20Z</time>
      </trkpt>
      <trkpt lat="45.878027994185686" lon="8.35977285169065">
        <ele>1071.05</ele>
        <time>2018-05-06T07:49:30Z</time>
      </trkpt>
      <trkpt lat="45.878065293654799" lon="8.359739743173122">
        <ele>1072.49</ele>
        <time>2018-05-06T07:49:41Z</time>
      </trkpt>
      <trkpt lat="45.878098402172327" lon="8.359726667404175">
        <ele>1073.9300000000001</ele>
        <time>2018-05-06T07:49:49Z</time>
      </trkpt>
      <trkpt lat="45.878147352486849" lon="8.359638908877969">
        <ele>1075.3699999999999</ele>
        <time>2018-05-06T07:50:01Z</time>
      </trkpt>
      <trkpt lat="45.8781982306391" lon="8.359588366001844">
        <ele>1076.8099999999999</ele>
        <time>2018-05-06T07:50:10Z</time>
      </trkpt>
      <trkpt lat="45.878223543986678" lon="8.359515275806189">
        <ele>1077.78</ele>
        <time>2018-05-06T07:50:19Z</time>
      </trkpt>
      <trkpt lat="45.878241984173656" lon="8.359374376013875">
        <ele>1078.26</ele>
        <time>2018-05-06T07:50:29Z</time>
      </trkpt>
      <trkpt lat="45.878263022750616" lon="8.359263818711042">
        <ele>1079.22</ele>
        <time>2018-05-06T07:50:41Z</time>
      </trkpt>
      <trkpt lat="45.878289341926575" lon="8.359187375754118">
        <ele>1080.6600000000001</ele>
        <time>2018-05-06T07:50:52Z</time>
      </trkpt>
      <trkpt lat="45.878292694687843" lon="8.359103053808212">
        <ele>1082.5799999999999</ele>
        <time>2018-05-06T07:51:02Z</time>
      </trkpt>
      <trkpt lat="45.878337286412716" lon="8.3590277004987">
        <ele>1084.02</ele>
        <time>2018-05-06T07:51:13Z</time>
      </trkpt>
      <trkpt lat="45.878334604203701" lon="8.358986880630255">
        <ele>1084.99</ele>
        <time>2018-05-06T07:51:22Z</time>
      </trkpt>
      <trkpt lat="45.878331083804369" lon="8.35892703384161">
        <ele>1086.4300000000001</ele>
        <time>2018-05-06T07:51:33Z</time>
      </trkpt>
      <trkpt lat="45.878330748528242" lon="8.358880262821913">
        <ele>1088.3499999999999</ele>
        <time>2018-05-06T07:51:45Z</time>
      </trkpt>
      <trkpt lat="45.878303172066808" lon="8.358836090192199">
        <ele>1089.79</ele>
        <time>2018-05-06T07:51:56Z</time>
      </trkpt>
      <trkpt lat="45.878260927274823" lon="8.358723521232605">
        <ele>1091.23</ele>
        <time>2018-05-06T07:52:08Z</time>
      </trkpt>
      <trkpt lat="45.878226980566978" lon="8.358647832646966">
        <ele>1092.6800000000001</ele>
        <time>2018-05-06T07:52:19Z</time>
      </trkpt>
      <trkpt lat="45.87818113155663" lon="8.358591087162495">
        <ele>1094.5999999999999</ele>
        <time>2018-05-06T07:52:31Z</time>
      </trkpt>
      <trkpt lat="45.878132851794362" lon="8.358552027493715">
        <ele>1096.04</ele>
        <time>2018-05-06T07:52:42Z</time>
      </trkpt>
      <trkpt lat="45.878052888438106" lon="8.358520427718759">
        <ele>1096.04</ele>
        <time>2018-05-06T07:52:53Z</time>
      </trkpt>
      <trkpt lat="45.87798323482275" lon="8.358464520424604">
        <ele>1096.52</ele>
        <time>2018-05-06T07:53:03Z</time>
      </trkpt>
      <trkpt lat="45.877890950068831" lon="8.35840274579823">
        <ele>1097</ele>
        <time>2018-05-06T07:53:14Z</time>
      </trkpt>
      <trkpt lat="45.87780486792326" lon="8.35833141580224">
        <ele>1098.4400000000001</ele>
        <time>2018-05-06T07:53:26Z</time>
      </trkpt>
      <trkpt lat="45.877762455493212" lon="8.358273496851325">
        <ele>1099.8900000000001</ele>
        <time>2018-05-06T07:53:37Z</time>
      </trkpt>
      <trkpt lat="45.877730268985033" lon="8.358168303966522">
        <ele>1100.8499999999999</ele>
        <time>2018-05-06T07:53:46Z</time>
      </trkpt>
      <trkpt lat="45.877752564847469" lon="8.358024805784226">
        <ele>1102.29</ele>
        <time>2018-05-06T07:53:59Z</time>
      </trkpt>
      <trkpt lat="45.877793719992042" lon="8.357943249866366">
        <ele>1103.25</ele>
        <time>2018-05-06T07:54:09Z</time>
      </trkpt>
      <trkpt lat="45.877854991704226" lon="8.357904860749841">
        <ele>1104.6900000000001</ele>
        <time>2018-05-06T07:54:19Z</time>
      </trkpt>
      <trkpt lat="45.877907462418079" lon="8.357915002852678">
        <ele>1105.6500000000001</ele>
        <time>2018-05-06T07:54:28Z</time>
      </trkpt>
      <trkpt lat="45.87791483849287" lon="8.357829507440329">
        <ele>1106.6099999999999</ele>
        <time>2018-05-06T07:54:40Z</time>
      </trkpt>
      <trkpt lat="45.877933111041784" lon="8.357774103060365">
        <ele>1108.0599999999999</ele>
        <time>2018-05-06T07:54:50Z</time>
      </trkpt>
      <trkpt lat="45.877981139346957" lon="8.357705874368548">
        <ele>1109.5</ele>
        <time>2018-05-06T07:55:02Z</time>
      </trkpt>
      <trkpt lat="45.878048613667488" lon="8.357631275430322">
        <ele>1110.9400000000001</ele>
        <time>2018-05-06T07:55:13Z</time>
      </trkpt>
      <trkpt lat="45.878126733005047" lon="8.357577715069056">
        <ele>1111.4200000000001</ele>
        <time>2018-05-06T07:55:24Z</time>
      </trkpt>
      <trkpt lat="45.878224298357964" lon="8.357522897422314">
        <ele>1112.3800000000001</ele>
        <time>2018-05-06T07:55:37Z</time>
      </trkpt>
      <trkpt lat="45.878276349976659" lon="8.357483921572566">
        <ele>1112.8599999999999</ele>
        <time>2018-05-06T07:55:46Z</time>
      </trkpt>
      <trkpt lat="45.878356900066137" lon="8.357469337061048">
        <ele>1113.3399999999999</ele>
        <time>2018-05-06T07:55:58Z</time>
      </trkpt>
      <trkpt lat="45.878457818180323" lon="8.357472438365221">
        <ele>1114.3099999999999</ele>
        <time>2018-05-06T07:56:09Z</time>
      </trkpt>
      <trkpt lat="45.878537949174643" lon="8.357457434758544">
        <ele>1115.75</ele>
        <time>2018-05-06T07:56:20Z</time>
      </trkpt>
      <trkpt lat="45.878610787913203" lon="8.357444694265723">
        <ele>1116.71</ele>
        <time>2018-05-06T07:56:31Z</time>
      </trkpt>
      <trkpt lat="45.878689074888825" lon="8.35744746029377">
        <ele>1117.6700000000001</ele>
        <time>2018-05-06T07:56:43Z</time>
      </trkpt>
      <trkpt lat="45.87875721976161" lon="8.357451651245356">
        <ele>1119.1099999999999</ele>
        <time>2018-05-06T07:56:54Z</time>
      </trkpt>
      <trkpt lat="45.878806505352259" lon="8.357469588518143">
        <ele>1120.0699999999999</ele>
        <time>2018-05-06T07:57:03Z</time>
      </trkpt>
      <trkpt lat="45.878843385726213" lon="8.35752809420228">
        <ele>1121.03</ele>
        <time>2018-05-06T07:57:14Z</time>
      </trkpt>
      <trkpt lat="45.878907842561603" lon="8.357584085315466">
        <ele>1121.03</ele>
        <time>2018-05-06T07:57:24Z</time>
      </trkpt>
      <trkpt lat="45.879003647714853" lon="8.357579642906785">
        <ele>1121.03</ele>
        <time>2018-05-06T07:57:36Z</time>
      </trkpt>
      <trkpt lat="45.879036672413349" lon="8.357482077553868">
        <ele>1121.03</ele>
        <time>2018-05-06T07:57:47Z</time>
      </trkpt>
      <trkpt lat="45.87908461689949" lon="8.357436396181583">
        <ele>1121.52</ele>
        <time>2018-05-06T07:57:55Z</time>
      </trkpt>
      <trkpt lat="45.879188468679786" lon="8.357453076168895">
        <ele>1122.48</ele>
        <time>2018-05-06T07:58:08Z</time>
      </trkpt>
      <trkpt lat="45.879170866683125" lon="8.357398426160216">
        <ele>1124.4000000000001</ele>
        <time>2018-05-06T07:58:19Z</time>
      </trkpt>
      <trkpt lat="45.879145385697484" lon="8.357284683734179">
        <ele>1124.8800000000001</ele>
        <time>2018-05-06T07:58:31Z</time>
      </trkpt>
      <trkpt lat="45.879116971045732" lon="8.357121488079429">
        <ele>1125.8399999999999</ele>
        <time>2018-05-06T07:58:43Z</time>
      </trkpt>
      <trkpt lat="45.879124095663428" lon="8.35702090524137">
        <ele>1127.28</ele>
        <time>2018-05-06T07:58:55Z</time>
      </trkpt>
      <trkpt lat="45.879109343513846" lon="8.356902385130525">
        <ele>1127.76</ele>
        <time>2018-05-06T07:59:07Z</time>
      </trkpt>
      <trkpt lat="45.879077492281795" lon="8.35681957192719">
        <ele>1129.21</ele>
        <time>2018-05-06T07:59:18Z</time>
      </trkpt>
      <trkpt lat="45.879071624949574" lon="8.356717564165592">
        <ele>1129.6900000000001</ele>
        <time>2018-05-06T07:59:29Z</time>
      </trkpt>
      <trkpt lat="45.879073133692145" lon="8.356641372665763">
        <ele>1130.6500000000001</ele>
        <time>2018-05-06T07:59:41Z</time>
      </trkpt>
      <trkpt lat="45.879065003246069" lon="8.356626201421022">
        <ele>1131.1300000000001</ele>
        <time>2018-05-06T07:59:43Z</time>
      </trkpt>
      <trkpt lat="45.879069697111845" lon="8.35652494803071">
        <ele>1132.5699999999999</ele>
        <time>2018-05-06T07:59:54Z</time>
      </trkpt>
      <trkpt lat="45.879074055701494" lon="8.356403913348913">
        <ele>1133.53</ele>
        <time>2018-05-06T08:00:05Z</time>
      </trkpt>
      <trkpt lat="45.879114624112844" lon="8.356309114024043">
        <ele>1134.49</ele>
        <time>2018-05-06T08:00:16Z</time>
      </trkpt>
      <trkpt lat="45.879160305485129" lon="8.35622881539166">
        <ele>1135.9400000000001</ele>
        <time>2018-05-06T08:00:27Z</time>
      </trkpt>
      <trkpt lat="45.879209171980619" lon="8.356158742681146">
        <ele>1136.9000000000001</ele>
        <time>2018-05-06T08:00:39Z</time>
      </trkpt>
      <trkpt lat="45.879301205277443" lon="8.35610275156796">
        <ele>1136.9000000000001</ele>
        <time>2018-05-06T08:00:50Z</time>
      </trkpt>
      <trkpt lat="45.879373457282782" lon="8.356033684685826">
        <ele>1137.8599999999999</ele>
        <time>2018-05-06T08:01:03Z</time>
      </trkpt>
      <trkpt lat="45.879398351535201" lon="8.355945171788335">
        <ele>1138.3399999999999</ele>
        <time>2018-05-06T08:01:12Z</time>
      </trkpt>
      <trkpt lat="45.879438668489456" lon="8.355881134048104">
        <ele>1138.8199999999999</ele>
        <time>2018-05-06T08:01:19Z</time>
      </trkpt>
      <trkpt lat="45.879460461437702" lon="8.35582422092557">
        <ele>1139.78</ele>
        <time>2018-05-06T08:01:26Z</time>
      </trkpt>
      <trkpt lat="45.879479655995965" lon="8.355744006112218">
        <ele>1140.74</ele>
        <time>2018-05-06T08:01:36Z</time>
      </trkpt>
      <trkpt lat="45.879516452550888" lon="8.355627665296197">
        <ele>1142.1800000000001</ele>
        <time>2018-05-06T08:01:48Z</time>
      </trkpt>
      <trkpt lat="45.87951167486608" lon="8.355561196804047">
        <ele>1142.6600000000001</ele>
        <time>2018-05-06T08:01:57Z</time>
      </trkpt>
      <trkpt lat="45.879538329318166" lon="8.355502439662814">
        <ele>1143.6300000000001</ele>
        <time>2018-05-06T08:02:09Z</time>
      </trkpt>
      <trkpt lat="45.879536820575595" lon="8.355494979768992">
        <ele>1144.5899999999999</ele>
        <time>2018-05-06T08:02:19Z</time>
      </trkpt>
      <trkpt lat="45.879571186378598" lon="8.355427924543619">
        <ele>1146.03</ele>
        <time>2018-05-06T08:02:34Z</time>
      </trkpt>
      <trkpt lat="45.87959767319262" lon="8.355337483808398">
        <ele>1147.47</ele>
        <time>2018-05-06T08:02:47Z</time>
      </trkpt>
      <trkpt lat="45.879659447818995" lon="8.355250898748636">
        <ele>1148.9100000000001</ele>
        <time>2018-05-06T08:03:00Z</time>
      </trkpt>
      <trkpt lat="45.879694065079093" lon="8.355213683098555">
        <ele>1149.8699999999999</ele>
        <time>2018-05-06T08:03:10Z</time>
      </trkpt>
      <trkpt lat="45.879723401740193" lon="8.355137994512916">
        <ele>1151.8</ele>
        <time>2018-05-06T08:03:22Z</time>
      </trkpt>
      <trkpt lat="45.879738489165902" lon="8.355071190744638">
        <ele>1152.28</ele>
        <time>2018-05-06T08:03:36Z</time>
      </trkpt>
      <trkpt lat="45.879760114476085" lon="8.354958957061172">
        <ele>1153.24</ele>
        <time>2018-05-06T08:03:48Z</time>
      </trkpt>
      <trkpt lat="45.87979850359261" lon="8.354830546304584">
        <ele>1154.2</ele>
        <time>2018-05-06T08:04:00Z</time>
      </trkpt>
      <trkpt lat="45.879805963486433" lon="8.354710433632135">
        <ele>1154.2</ele>
        <time>2018-05-06T08:04:12Z</time>
      </trkpt>
      <trkpt lat="45.879829935729504" lon="8.354637930169702">
        <ele>1154.6800000000001</ele>
        <time>2018-05-06T08:04:21Z</time>
      </trkpt>
      <trkpt lat="45.879824655130506" lon="8.354507759213448">
        <ele>1155.1600000000001</ele>
        <time>2018-05-06T08:04:31Z</time>
      </trkpt>
      <trkpt lat="45.879869079217315" lon="8.354382449761033">
        <ele>1155.1600000000001</ele>
        <time>2018-05-06T08:04:40Z</time>
      </trkpt>
      <trkpt lat="45.879911240190268" lon="8.354310365393758">
        <ele>1155.6400000000001</ele>
        <time>2018-05-06T08:04:49Z</time>
      </trkpt>
      <trkpt lat="45.879918616265059" lon="8.354306006804109">
        <ele>1155.6400000000001</ele>
        <time>2018-05-06T08:04:50Z</time>
      </trkpt>
      <trkpt lat="45.880005704239011" lon="8.35423719137907">
        <ele>1155.6400000000001</ele>
        <time>2018-05-06T08:05:01Z</time>
      </trkpt>
      <trkpt lat="45.880076698958874" lon="8.354151109233499">
        <ele>1155.1600000000001</ele>
        <time>2018-05-06T08:05:12Z</time>
      </trkpt>
      <trkpt lat="45.880122799426317" lon="8.354025213047862">
        <ele>1155.1600000000001</ele>
        <time>2018-05-06T08:05:23Z</time>
      </trkpt>
      <trkpt lat="45.880166636779904" lon="8.353944411501288">
        <ele>1155.1600000000001</ele>
        <time>2018-05-06T08:05:33Z</time>
      </trkpt>
      <trkpt lat="45.880174096673727" lon="8.353860089555383">
        <ele>1155.6400000000001</ele>
        <time>2018-05-06T08:05:43Z</time>
      </trkpt>
      <trkpt lat="45.880175605416298" lon="8.353698905557394">
        <ele>1155.6400000000001</ele>
        <time>2018-05-06T08:05:54Z</time>
      </trkpt>
      <trkpt lat="45.88022799231112" lon="8.353506959974766">
        <ele>1156.5999999999999</ele>
        <time>2018-05-06T08:06:09Z</time>
      </trkpt>
      <trkpt lat="45.880241570994258" lon="8.35345440544188">
        <ele>1157.0799999999999</ele>
        <time>2018-05-06T08:06:17Z</time>
      </trkpt>
      <trkpt lat="45.880333185195923" lon="8.353361450135708">
        <ele>1158.53</ele>
        <time>2018-05-06T08:06:30Z</time>
      </trkpt>
      <trkpt lat="45.880400072783232" lon="8.35331954061985">
        <ele>1159.49</ele>
        <time>2018-05-06T08:06:42Z</time>
      </trkpt>
      <trkpt lat="45.880414824932814" lon="8.353310320526362">
        <ele>1159.49</ele>
        <time>2018-05-06T08:06:44Z</time>
      </trkpt>
      <trkpt lat="45.880528734996915" lon="8.353255419060588">
        <ele>1160.45</ele>
        <time>2018-05-06T08:06:57Z</time>
      </trkpt>
      <trkpt lat="45.880642561241984" lon="8.353232452645898">
        <ele>1161.4100000000001</ele>
        <time>2018-05-06T08:07:09Z</time>
      </trkpt>
      <trkpt lat="45.880771894007921" lon="8.353229938074946">
        <ele>1161.8900000000001</ele>
        <time>2018-05-06T08:07:21Z</time>
      </trkpt>
      <trkpt lat="45.880866190418601" lon="8.353208648040891">
        <ele>1161.8900000000001</ele>
        <time>2018-05-06T08:07:32Z</time>
      </trkpt>
      <trkpt lat="45.880968114361167" lon="8.353214347735047">
        <ele>1161.8900000000001</ele>
        <time>2018-05-06T08:07:44Z</time>
      </trkpt>
      <trkpt lat="45.881046568974853" lon="8.353232117369771">
        <ele>1161.4100000000001</ele>
        <time>2018-05-06T08:07:55Z</time>
      </trkpt>
      <trkpt lat="45.881130639463663" lon="8.353263717144728">
        <ele>1161.8900000000001</ele>
        <time>2018-05-06T08:08:03Z</time>
      </trkpt>
      <trkpt lat="45.881208926439285" lon="8.353282492607832">
        <ele>1161.8900000000001</ele>
        <time>2018-05-06T08:08:11Z</time>
      </trkpt>
      <trkpt lat="45.881297690793872" lon="8.353317948058248">
        <ele>1161.4100000000001</ele>
        <time>2018-05-06T08:08:22Z</time>
      </trkpt>
      <trkpt lat="45.881347982212901" lon="8.353352649137378">
        <ele>1161.8900000000001</ele>
        <time>2018-05-06T08:08:33Z</time>
      </trkpt>
      <trkpt lat="45.881395842880011" lon="8.353370921686292">
        <ele>1161.4100000000001</ele>
        <time>2018-05-06T08:08:43Z</time>
      </trkpt>
      <trkpt lat="45.881434567272663" lon="8.353317445144057">
        <ele>1161.4100000000001</ele>
        <time>2018-05-06T08:08:55Z</time>
      </trkpt>
      <trkpt lat="45.881456024944782" lon="8.353298250585794">
        <ele>1161.4100000000001</ele>
        <time>2018-05-06T08:08:58Z</time>
      </trkpt>
      <trkpt lat="45.881670853123069" lon="8.353315852582455">
        <ele>1161.4100000000001</ele>
        <time>2018-05-06T08:09:09Z</time>
      </trkpt>
      <trkpt lat="45.881767412647605" lon="8.353271093219519">
        <ele>1161.4100000000001</ele>
        <time>2018-05-06T08:09:19Z</time>
      </trkpt>
      <trkpt lat="45.881766993552446" lon="8.35326673462987">
        <ele>1161.4100000000001</ele>
        <time>2018-05-06T08:09:20Z</time>
      </trkpt>
      <trkpt lat="45.881727682426572" lon="8.3531494718045">
        <ele>1160.9300000000001</ele>
        <time>2018-05-06T08:09:31Z</time>
      </trkpt>
      <trkpt lat="45.881769508123398" lon="8.353079231455922">
        <ele>1160.9300000000001</ele>
        <time>2018-05-06T08:09:43Z</time>
      </trkpt>
      <trkpt lat="45.88178132660687" lon="8.353063557296991">
        <ele>1160.9300000000001</ele>
        <time>2018-05-06T08:09:45Z</time>
      </trkpt>
      <trkpt lat="45.881891464814544" lon="8.353002704679966">
        <ele>1160.9300000000001</ele>
        <time>2018-05-06T08:09:54Z</time>
      </trkpt>
      <trkpt lat="45.881898337975144" lon="8.352977307513356">
        <ele>1160.45</ele>
        <time>2018-05-06T08:09:56Z</time>
      </trkpt>
      <trkpt lat="45.881909988820553" lon="8.352944869548082">
        <ele>1160.45</ele>
        <time>2018-05-06T08:09:59Z</time>
      </trkpt>
      <trkpt lat="45.881899846717715" lon="8.352875635027885">
        <ele>1159.97</ele>
        <time>2018-05-06T08:10:05Z</time>
      </trkpt>
      <trkpt lat="45.881923567503691" lon="8.352804891765118">
        <ele>1159.49</ele>
        <time>2018-05-06T08:10:10Z</time>
      </trkpt>
      <trkpt lat="45.881990622729063" lon="8.352673798799515">
        <ele>1159.97</ele>
        <time>2018-05-06T08:10:23Z</time>
      </trkpt>
      <trkpt lat="45.882050888612866" lon="8.352618897333741">
        <ele>1160.45</ele>
        <time>2018-05-06T08:10:32Z</time>
      </trkpt>
      <trkpt lat="45.88211115449667" lon="8.352571288123727">
        <ele>1160.45</ele>
        <time>2018-05-06T08:10:39Z</time>
      </trkpt>
      <trkpt lat="45.882174437865615" lon="8.352500377222896">
        <ele>1160.45</ele>
        <time>2018-05-06T08:10:46Z</time>
      </trkpt>
      <trkpt lat="45.882246941328049" lon="8.352375319227576">
        <ele>1160.45</ele>
        <time>2018-05-06T08:10:57Z</time>
      </trkpt>
      <trkpt lat="45.882292203605175" lon="8.352204747498035">
        <ele>1160.45</ele>
        <time>2018-05-06T08:11:10Z</time>
      </trkpt>
      <trkpt lat="45.882355067878962" lon="8.352095363661647">
        <ele>1159.97</ele>
        <time>2018-05-06T08:11:21Z</time>
      </trkpt>
      <trkpt lat="45.882456237450242" lon="8.35202562622726">
        <ele>1159.49</ele>
        <time>2018-05-06T08:11:32Z</time>
      </trkpt>
      <trkpt lat="45.882538547739387" lon="8.351986901834607">
        <ele>1159.49</ele>
        <time>2018-05-06T08:11:42Z</time>
      </trkpt>
      <trkpt lat="45.882556149736047" lon="8.351982375606895">
        <ele>1159.49</ele>
        <time>2018-05-06T08:11:44Z</time>
      </trkpt>
      <trkpt lat="45.882667377591133" lon="8.352003330364823">
        <ele>1160.45</ele>
        <time>2018-05-06T08:11:58Z</time>
      </trkpt>
      <trkpt lat="45.882773995399475" lon="8.35197432897985">
        <ele>1160.9300000000001</ele>
        <time>2018-05-06T08:12:09Z</time>
      </trkpt>
      <trkpt lat="45.882830573245883" lon="8.351962259039283">
        <ele>1161.8900000000001</ele>
        <time>2018-05-06T08:12:18Z</time>
      </trkpt>
      <trkpt lat="45.882906764745712" lon="8.35195672698319">
        <ele>1164.29</ele>
        <time>2018-05-06T08:12:31Z</time>
      </trkpt>
      <trkpt lat="45.882996032014489" lon="8.351962845772505">
        <ele>1164.77</ele>
        <time>2018-05-06T08:12:44Z</time>
      </trkpt>
      <trkpt lat="45.883056968450546" lon="8.351878188550472">
        <ele>1163.8099999999999</ele>
        <time>2018-05-06T08:12:55Z</time>
      </trkpt>
      <trkpt lat="45.883119916543365" lon="8.351773247122765">
        <ele>1162.8499999999999</ele>
        <time>2018-05-06T08:13:08Z</time>
      </trkpt>
      <trkpt lat="45.883102817460895" lon="8.351717926561832">
        <ele>1162.8499999999999</ele>
        <time>2018-05-06T08:13:21Z</time>
      </trkpt>
      <trkpt lat="45.883090496063232" lon="8.351696636527777">
        <ele>1163.3299999999999</ele>
        <time>2018-05-06T08:13:24Z</time>
      </trkpt>
      <trkpt lat="45.883078426122665" lon="8.351625893265009">
        <ele>1163.8099999999999</ele>
        <time>2018-05-06T08:13:31Z</time>
      </trkpt>
      <trkpt lat="45.883079683408141" lon="8.351504439488053">
        <ele>1164.29</ele>
        <time>2018-05-06T08:13:42Z</time>
      </trkpt>
      <trkpt lat="45.883091669529676" lon="8.351359935477376">
        <ele>1164.29</ele>
        <time>2018-05-06T08:13:53Z</time>
      </trkpt>
      <trkpt lat="45.883099045604467" lon="8.351331101730466">
        <ele>1164.77</ele>
        <time>2018-05-06T08:13:55Z</time>
      </trkpt>
      <trkpt lat="45.88313483633101" lon="8.351229429244995">
        <ele>1164.29</ele>
        <time>2018-05-06T08:14:03Z</time>
      </trkpt>
      <trkpt lat="45.883177081122994" lon="8.351171929389238">
        <ele>1164.29</ele>
        <time>2018-05-06T08:14:08Z</time>
      </trkpt>
      <trkpt lat="45.883195856586099" lon="8.351123817265034">
        <ele>1164.29</ele>
        <time>2018-05-06T08:14:12Z</time>
      </trkpt>
      <trkpt lat="45.883246986195445" lon="8.351012254133821">
        <ele>1165.74</ele>
        <time>2018-05-06T08:14:23Z</time>
      </trkpt>
      <trkpt lat="45.883234916254878" lon="8.350932290777564">
        <ele>1166.7</ele>
        <time>2018-05-06T08:14:31Z</time>
      </trkpt>
      <trkpt lat="45.883215218782425" lon="8.350827349349856">
        <ele>1166.22</ele>
        <time>2018-05-06T08:14:40Z</time>
      </trkpt>
      <trkpt lat="45.883138692006469" lon="8.350754845887423">
        <ele>1165.26</ele>
        <time>2018-05-06T08:14:48Z</time>
      </trkpt>
      <trkpt lat="45.883086305111647" lon="8.350638672709465">
        <ele>1166.7</ele>
        <time>2018-05-06T08:14:59Z</time>
      </trkpt>
      <trkpt lat="45.883070463314652" lon="8.350504729896784">
        <ele>1167.1800000000001</ele>
        <time>2018-05-06T08:15:10Z</time>
      </trkpt>
      <trkpt lat="45.883063590154052" lon="8.350382773205638">
        <ele>1168.1400000000001</ele>
        <time>2018-05-06T08:15:20Z</time>
      </trkpt>
      <trkpt lat="45.88304934091866" lon="8.350290572270751">
        <ele>1169.0999999999999</ele>
        <time>2018-05-06T08:15:30Z</time>
      </trkpt>
      <trkpt lat="45.883028469979763" lon="8.350196527317166">
        <ele>1170.0599999999999</ele>
        <time>2018-05-06T08:15:39Z</time>
      </trkpt>
      <trkpt lat="45.882969042286277" lon="8.350090328603983">
        <ele>1170.54</ele>
        <time>2018-05-06T08:15:49Z</time>
      </trkpt>
      <trkpt lat="45.882911458611488" lon="8.350016567856073">
        <ele>1170.54</ele>
        <time>2018-05-06T08:15:57Z</time>
      </trkpt>
      <trkpt lat="45.882819425314665" lon="8.349901987239718">
        <ele>1171.02</ele>
        <time>2018-05-06T08:16:08Z</time>
      </trkpt>
      <trkpt lat="45.882753375917673" lon="8.34979796782136">
        <ele>1171.02</ele>
        <time>2018-05-06T08:16:20Z</time>
      </trkpt>
      <trkpt lat="45.882680369541049" lon="8.349659247323871">
        <ele>1171.5</ele>
        <time>2018-05-06T08:16:32Z</time>
      </trkpt>
      <trkpt lat="45.882607027888298" lon="8.349520778283477">
        <ele>1172.47</ele>
        <time>2018-05-06T08:16:44Z</time>
      </trkpt>
      <trkpt lat="45.882559837773442" lon="8.349387925118208">
        <ele>1172.95</ele>
        <time>2018-05-06T08:16:55Z</time>
      </trkpt>
      <trkpt lat="45.882524801418185" lon="8.349246941506863">
        <ele>1173.9100000000001</ele>
        <time>2018-05-06T08:17:07Z</time>
      </trkpt>
      <trkpt lat="45.882511558011174" lon="8.349101766943932">
        <ele>1174.3900000000001</ele>
        <time>2018-05-06T08:17:19Z</time>
      </trkpt>
      <trkpt lat="45.882494291290641" lon="8.348968746140599">
        <ele>1175.3499999999999</ele>
        <time>2018-05-06T08:17:30Z</time>
      </trkpt>
      <trkpt lat="45.882501667365432" lon="8.348844274878502">
        <ele>1176.3099999999999</ele>
        <time>2018-05-06T08:17:39Z</time>
      </trkpt>
      <trkpt lat="45.882522705942392" lon="8.348763221874833">
        <ele>1177.27</ele>
        <time>2018-05-06T08:17:47Z</time>
      </trkpt>
      <trkpt lat="45.882558831945062" lon="8.348647970706224">
        <ele>1178.23</ele>
        <time>2018-05-06T08:17:57Z</time>
      </trkpt>
      <trkpt lat="45.88257048279047" lon="8.348596841096878">
        <ele>1177.75</ele>
        <time>2018-05-06T08:18:01Z</time>
      </trkpt>
      <trkpt lat="45.882615745067596" lon="8.348479829728603">
        <ele>1177.75</ele>
        <time>2018-05-06T08:18:10Z</time>
      </trkpt>
      <trkpt lat="45.882650446146727" lon="8.348435405641794">
        <ele>1177.75</ele>
        <time>2018-05-06T08:18:15Z</time>
      </trkpt>
      <trkpt lat="45.882673328742385" lon="8.348363991826773">
        <ele>1178.23</ele>
        <time>2018-05-06T08:18:21Z</time>
      </trkpt>
      <trkpt lat="45.882708197459579" lon="8.348197611048818">
        <ele>1177.75</ele>
        <time>2018-05-06T08:18:33Z</time>
      </trkpt>
      <trkpt lat="45.882754884660244" lon="8.348087724298239">
        <ele>1178.23</ele>
        <time>2018-05-06T08:18:43Z</time>
      </trkpt>
      <trkpt lat="45.882836356759071" lon="8.347973562777042">
        <ele>1179.1900000000001</ele>
        <time>2018-05-06T08:18:55Z</time>
      </trkpt>
      <trkpt lat="45.882879020646214" lon="8.347888486459851">
        <ele>1180.1600000000001</ele>
        <time>2018-05-06T08:19:05Z</time>
      </trkpt>
      <trkpt lat="45.882939202710986" lon="8.34783224388957">
        <ele>1181.1199999999999</ele>
        <time>2018-05-06T08:19:15Z</time>
      </trkpt>
      <trkpt lat="45.883008940145373" lon="8.347811959683895">
        <ele>1181.5999999999999</ele>
        <time>2018-05-06T08:19:24Z</time>
      </trkpt>
      <trkpt lat="45.883085718378425" lon="8.347773402929306">
        <ele>1181.5999999999999</ele>
        <time>2018-05-06T08:19:33Z</time>
      </trkpt>
      <trkpt lat="45.883183367550373" lon="8.347637113183737">
        <ele>1181.5999999999999</ele>
        <time>2018-05-06T08:19:47Z</time>
      </trkpt>
      <trkpt lat="45.883195772767067" lon="8.347587240859866">
        <ele>1182.0799999999999</ele>
        <time>2018-05-06T08:19:59Z</time>
      </trkpt>
      <trkpt lat="45.883195856586099" lon="8.347564609721303">
        <ele>1182.0799999999999</ele>
        <time>2018-05-06T08:20:09Z</time>
      </trkpt>
      <trkpt lat="45.883195688948035" lon="8.347543235868216">
        <ele>1182.0799999999999</ele>
        <time>2018-05-06T08:20:11Z</time>
      </trkpt>
      <trkpt lat="45.883199209347367" lon="8.347460087388754">
        <ele>1182.0799999999999</ele>
        <time>2018-05-06T08:20:19Z</time>
      </trkpt>
      <trkpt lat="45.883183619007468" lon="8.347419854253531">
        <ele>1182.0799999999999</ele>
        <time>2018-05-06T08:20:30Z</time>
      </trkpt>
      <trkpt lat="45.883196275681257" lon="8.347373753786087">
        <ele>1182.0799999999999</ele>
        <time>2018-05-06T08:20:40Z</time>
      </trkpt>
      <trkpt lat="45.883196359500289" lon="8.347498727962375">
        <ele>1182.0799999999999</ele>
        <time>2018-05-06T08:20:50Z</time>
      </trkpt>
      <trkpt lat="45.883195186033845" lon="8.347502918913961">
        <ele>1182.0799999999999</ele>
        <time>2018-05-06T08:20:52Z</time>
      </trkpt>
      <trkpt lat="45.883197952061892" lon="8.347649266943336">
        <ele>1182.0799999999999</ele>
        <time>2018-05-06T08:21:02Z</time>
      </trkpt>
      <trkpt lat="45.883193761110306" lon="8.347693691030145">
        <ele>1182.0799999999999</ele>
        <time>2018-05-06T08:21:12Z</time>
      </trkpt>
      <trkpt lat="45.883190995082259" lon="8.347714729607105">
        <ele>1182.0799999999999</ele>
        <time>2018-05-06T08:21:38Z</time>
      </trkpt>
      <trkpt lat="45.883205076679587" lon="8.347664186730981">
        <ele>1182.0799999999999</ele>
        <time>2018-05-06T08:21:41Z</time>
      </trkpt>
      <trkpt lat="45.883203400298953" lon="8.347548432648182">
        <ele>1182.0799999999999</ele>
        <time>2018-05-06T08:21:48Z</time>
      </trkpt>
      <trkpt lat="45.883206836879253" lon="8.347492441534996">
        <ele>1182.0799999999999</ele>
        <time>2018-05-06T08:21:51Z</time>
      </trkpt>
      <trkpt lat="45.883213123306632" lon="8.347411137074232">
        <ele>1181.5999999999999</ele>
        <time>2018-05-06T08:22:02Z</time>
      </trkpt>
      <trkpt lat="45.883214464411139" lon="8.347398564219475">
        <ele>1180.6400000000001</ele>
        <time>2018-05-06T08:22:12Z</time>
      </trkpt>
      <trkpt lat="45.883215889334679" lon="8.34738808684051">
        <ele>1181.5999999999999</ele>
        <time>2018-05-06T08:22:37Z</time>
      </trkpt>
      <trkpt lat="45.883203987032175" lon="8.347404431551695">
        <ele>1182.5599999999999</ele>
        <time>2018-05-06T08:22:46Z</time>
      </trkpt>
      <trkpt lat="45.883212285116315" lon="8.34737341850996">
        <ele>1182.5599999999999</ele>
        <time>2018-05-06T08:22:59Z</time>
      </trkpt>
      <trkpt lat="45.883211614564061" lon="8.347310973331332">
        <ele>1182.5599999999999</ele>
        <time>2018-05-06T08:23:09Z</time>
      </trkpt>
      <trkpt lat="45.883246399462223" lon="8.347280379384756">
        <ele>1182.5599999999999</ele>
        <time>2018-05-06T08:23:21Z</time>
      </trkpt>
      <trkpt lat="45.883236844092607" lon="8.34728742018342">
        <ele>1182.5599999999999</ele>
        <time>2018-05-06T08:23:35Z</time>
      </trkpt>
      <trkpt lat="45.883241035044193" lon="8.347283899784088">
        <ele>1182.5599999999999</ele>
        <time>2018-05-06T08:23:50Z</time>
      </trkpt>
      <trkpt lat="45.88324480690062" lon="8.347297059372068">
        <ele>1182.5599999999999</ele>
        <time>2018-05-06T08:24:04Z</time>
      </trkpt>
      <trkpt lat="45.883244639262557" lon="8.347295550629497">
        <ele>1182.5599999999999</ele>
        <time>2018-05-06T08:24:17Z</time>
      </trkpt>
      <trkpt lat="45.883239023387432" lon="8.347284067422152">
        <ele>1182.5599999999999</ele>
        <time>2018-05-06T08:24:32Z</time>
      </trkpt>
      <trkpt lat="45.883237598463893" lon="8.347277697175741">
        <ele>1183.04</ele>
        <time>2018-05-06T08:24:52Z</time>
      </trkpt>
      <trkpt lat="45.883238352835178" lon="8.347268309444189">
        <ele>1183.04</ele>
        <time>2018-05-06T08:25:09Z</time>
      </trkpt>
      <trkpt lat="45.883246148005128" lon="8.347275098785758">
        <ele>1183.04</ele>
        <time>2018-05-06T08:25:24Z</time>
      </trkpt>
      <trkpt lat="45.883239191025496" lon="8.347265459597111">
        <ele>1183.04</ele>
        <time>2018-05-06T08:25:41Z</time>
      </trkpt>
      <trkpt lat="45.883226534351707" lon="8.347244672477245">
        <ele>1183.52</ele>
        <time>2018-05-06T08:25:59Z</time>
      </trkpt>
      <trkpt lat="45.883214045315981" lon="8.347235452383757">
        <ele>1183.04</ele>
        <time>2018-05-06T08:26:11Z</time>
      </trkpt>
      <trkpt lat="45.883213961496949" lon="8.347289515659213">
        <ele>1183.04</ele>
        <time>2018-05-06T08:26:27Z</time>
      </trkpt>
      <trkpt lat="45.883223349228501" lon="8.347294041886926">
        <ele>1183.52</ele>
        <time>2018-05-06T08:26:39Z</time>
      </trkpt>
      <trkpt lat="45.88325209915638" lon="8.347246935591102">
        <ele>1183.52</ele>
        <time>2018-05-06T08:26:56Z</time>
      </trkpt>
      <trkpt lat="45.883270455524325" lon="8.3471745159477">
        <ele>1184</ele>
        <time>2018-05-06T08:27:14Z</time>
      </trkpt>
      <trkpt lat="45.883303564041853" lon="8.34704308770597">
        <ele>1184.48</ele>
        <time>2018-05-06T08:27:26Z</time>
      </trkpt>
      <trkpt lat="45.883315047249198" lon="8.346983743831515">
        <ele>1184.96</ele>
        <time>2018-05-06T08:27:32Z</time>
      </trkpt>
      <trkpt lat="45.883320076391101" lon="8.346854662522674">
        <ele>1184.96</ele>
        <time>2018-05-06T08:27:43Z</time>
      </trkpt>
      <trkpt lat="45.883294763043523" lon="8.346669422462583">
        <ele>1186.4000000000001</ele>
        <time>2018-05-06T08:27:58Z</time>
      </trkpt>
      <trkpt lat="45.88329317048192" lon="8.346557440236211">
        <ele>1186.4000000000001</ele>
        <time>2018-05-06T08:28:07Z</time>
      </trkpt>
      <trkpt lat="45.883282525464892" lon="8.346414947882295">
        <ele>1187.3699999999999</ele>
        <time>2018-05-06T08:28:19Z</time>
      </trkpt>
      <trkpt lat="45.883267605677247" lon="8.346292488276959">
        <ele>1187.8499999999999</ele>
        <time>2018-05-06T08:28:29Z</time>
      </trkpt>
      <trkpt lat="45.883291242644191" lon="8.346164999529719">
        <ele>1188.3299999999999</ele>
        <time>2018-05-06T08:28:40Z</time>
      </trkpt>
      <trkpt lat="45.883299373090267" lon="8.346141781657934">
        <ele>1188.3299999999999</ele>
        <time>2018-05-06T08:28:42Z</time>
      </trkpt>
      <trkpt lat="45.883363327011466" lon="8.346015047281981">
        <ele>1188.8099999999999</ele>
        <time>2018-05-06T08:28:54Z</time>
      </trkpt>
      <trkpt lat="45.883439518511295" lon="8.345953021198511">
        <ele>1188.8099999999999</ele>
        <time>2018-05-06T08:29:06Z</time>
      </trkpt>
      <trkpt lat="45.883476566523314" lon="8.34593877196312">
        <ele>1188.8099999999999</ele>
        <time>2018-05-06T08:29:10Z</time>
      </trkpt>
      <trkpt lat="45.883565666154027" lon="8.345867609605193">
        <ele>1189.77</ele>
        <time>2018-05-06T08:29:21Z</time>
      </trkpt>
      <trkpt lat="45.883580250665545" lon="8.345769457519054">
        <ele>1189.77</ele>
        <time>2018-05-06T08:29:30Z</time>
      </trkpt>
      <trkpt lat="45.883619310334325" lon="8.345642806962133">
        <ele>1189.77</ele>
        <time>2018-05-06T08:29:40Z</time>
      </trkpt>
      <trkpt lat="45.883654011413455" lon="8.345545073971152">
        <ele>1189.77</ele>
        <time>2018-05-06T08:29:50Z</time>
      </trkpt>
      <trkpt lat="45.883649149909616" lon="8.345486568287015">
        <ele>1189.77</ele>
        <time>2018-05-06T08:29:55Z</time>
      </trkpt>
      <trkpt lat="45.883588381111622" lon="8.345338543877006">
        <ele>1190.73</ele>
        <time>2018-05-06T08:30:08Z</time>
      </trkpt>
      <trkpt lat="45.883605564013124" lon="8.345234356820583">
        <ele>1191.21</ele>
        <time>2018-05-06T08:30:17Z</time>
      </trkpt>
      <trkpt lat="45.883587040007114" lon="8.345120111480355">
        <ele>1191.21</ele>
        <time>2018-05-06T08:30:28Z</time>
      </trkpt>
      <trkpt lat="45.88355066254735" lon="8.345002345740795">
        <ele>1192.1700000000001</ele>
        <time>2018-05-06T08:30:38Z</time>
      </trkpt>
      <trkpt lat="45.883565582334995" lon="8.344860021024942">
        <ele>1192.6500000000001</ele>
        <time>2018-05-06T08:30:48Z</time>
      </trkpt>
      <trkpt lat="45.883584776893258" lon="8.344763796776533">
        <ele>1194.0899999999999</ele>
        <time>2018-05-06T08:30:58Z</time>
      </trkpt>
      <trkpt lat="45.883597936481237" lon="8.344667153432965">
        <ele>1195.0599999999999</ele>
        <time>2018-05-06T08:31:10Z</time>
      </trkpt>
      <trkpt lat="45.883603300899267" lon="8.344574114307761">
        <ele>1196.5</ele>
        <time>2018-05-06T08:31:20Z</time>
      </trkpt>
      <trkpt lat="45.88357312604785" lon="8.344464479014278">
        <ele>1197.9400000000001</ele>
        <time>2018-05-06T08:31:32Z</time>
      </trkpt>
      <trkpt lat="45.883581759408116" lon="8.344364315271378">
        <ele>1199.8599999999999</ele>
        <time>2018-05-06T08:31:43Z</time>
      </trkpt>
      <trkpt lat="45.883595673367381" lon="8.3442975115031">
        <ele>1199.8599999999999</ele>
        <time>2018-05-06T08:31:50Z</time>
      </trkpt>
      <trkpt lat="45.883645545691252" lon="8.344230791553855">
        <ele>1201.3</ele>
        <time>2018-05-06T08:32:00Z</time>
      </trkpt>
      <trkpt lat="45.883679576218128" lon="8.344163149595261">
        <ele>1202.75</ele>
        <time>2018-05-06T08:32:10Z</time>
      </trkpt>
      <trkpt lat="45.88373389095068" lon="8.34409274160862">
        <ele>1203.71</ele>
        <time>2018-05-06T08:32:20Z</time>
      </trkpt>
      <trkpt lat="45.883800610899925" lon="8.344020070508122">
        <ele>1205.1500000000001</ele>
        <time>2018-05-06T08:32:31Z</time>
      </trkpt>
      <trkpt lat="45.883863642811775" lon="8.343910938128829">
        <ele>1206.1099999999999</ele>
        <time>2018-05-06T08:32:42Z</time>
      </trkpt>
      <trkpt lat="45.883914101868868" lon="8.343788646161556">
        <ele>1206.5899999999999</ele>
        <time>2018-05-06T08:32:52Z</time>
      </trkpt>
      <trkpt lat="45.883948635309935" lon="8.343647997826338">
        <ele>1207.55</ele>
        <time>2018-05-06T08:33:03Z</time>
      </trkpt>
      <trkpt lat="45.883981240913272" lon="8.343538697808981">
        <ele>1208.03</ele>
        <time>2018-05-06T08:33:13Z</time>
      </trkpt>
      <trkpt lat="45.884008314460516" lon="8.343434929847717">
        <ele>1209</ele>
        <time>2018-05-06T08:33:23Z</time>
      </trkpt>
      <trkpt lat="45.884028179571033" lon="8.34332412108779">
        <ele>1209.96</ele>
        <time>2018-05-06T08:33:33Z</time>
      </trkpt>
      <trkpt lat="45.884042344987392" lon="8.343235859647393">
        <ele>1210.4400000000001</ele>
        <time>2018-05-06T08:33:44Z</time>
      </trkpt>
      <trkpt lat="45.884079392999411" lon="8.34317316301167">
        <ele>1211.8800000000001</ele>
        <time>2018-05-06T08:33:54Z</time>
      </trkpt>
      <trkpt lat="45.88410772383213" lon="8.343101581558585">
        <ele>1212.3599999999999</ele>
        <time>2018-05-06T08:34:00Z</time>
      </trkpt>
      <trkpt lat="45.884161032736301" lon="8.342958418652415">
        <ele>1213.3199999999999</ele>
        <time>2018-05-06T08:34:11Z</time>
      </trkpt>
      <trkpt lat="45.884158685803413" lon="8.342893961817026">
        <ele>1213.8</ele>
        <time>2018-05-06T08:34:17Z</time>
      </trkpt>
      <trkpt lat="45.884148962795734" lon="8.342743506655097">
        <ele>1214.28</ele>
        <time>2018-05-06T08:34:29Z</time>
      </trkpt>
      <trkpt lat="45.884145442396402" lon="8.342731352895498">
        <ele>1214.28</ele>
        <time>2018-05-06T08:34:30Z</time>
      </trkpt>
      <trkpt lat="45.884120380505919" lon="8.342594979330897">
        <ele>1215.24</ele>
        <time>2018-05-06T08:34:41Z</time>
      </trkpt>
      <trkpt lat="45.884120045229793" lon="8.342585507780314">
        <ele>1215.24</ele>
        <time>2018-05-06T08:34:42Z</time>
      </trkpt>
      <trkpt lat="45.884118620306253" lon="8.342452319338918">
        <ele>1216.6900000000001</ele>
        <time>2018-05-06T08:34:53Z</time>
      </trkpt>
      <trkpt lat="45.88412775658071" lon="8.342323321849108">
        <ele>1217.1700000000001</ele>
        <time>2018-05-06T08:35:04Z</time>
      </trkpt>
      <trkpt lat="45.884137647226453" lon="8.342167669907212">
        <ele>1218.1300000000001</ele>
        <time>2018-05-06T08:35:16Z</time>
      </trkpt>
      <trkpt lat="45.884139407426119" lon="8.342058788985014">
        <ele>1219.5699999999999</ele>
        <time>2018-05-06T08:35:26Z</time>
      </trkpt>
      <trkpt lat="45.884138317778707" lon="8.341952925547957">
        <ele>1220.05</ele>
        <time>2018-05-06T08:35:35Z</time>
      </trkpt>
      <trkpt lat="45.884142341092229" lon="8.341857204213738">
        <ele>1220.05</ele>
        <time>2018-05-06T08:35:43Z</time>
      </trkpt>
      <trkpt lat="45.884147537872195" lon="8.341710856184363">
        <ele>1221.49</ele>
        <time>2018-05-06T08:35:55Z</time>
      </trkpt>
      <trkpt lat="45.884157763794065" lon="8.341574314981699">
        <ele>1221.97</ele>
        <time>2018-05-06T08:36:06Z</time>
      </trkpt>
      <trkpt lat="45.884187687188387" lon="8.341445568948984">
        <ele>1222.45</ele>
        <time>2018-05-06T08:36:16Z</time>
      </trkpt>
      <trkpt lat="45.884198918938637" lon="8.341386979445815">
        <ele>1222.9300000000001</ele>
        <time>2018-05-06T08:36:20Z</time>
      </trkpt>
      <trkpt lat="45.884209396317601" lon="8.341361163184047">
        <ele>1222.9300000000001</ele>
        <time>2018-05-06T08:36:22Z</time>
      </trkpt>
      <trkpt lat="45.884237475693226" lon="8.341264436021447">
        <ele>1223.4200000000001</ele>
        <time>2018-05-06T08:36:30Z</time>
      </trkpt>
      <trkpt lat="45.884244432672858" lon="8.341243145987392">
        <ele>1223.4200000000001</ele>
        <time>2018-05-06T08:36:32Z</time>
      </trkpt>
      <trkpt lat="45.884272260591388" lon="8.341092523187399">
        <ele>1223.9000000000001</ele>
        <time>2018-05-06T08:36:43Z</time>
      </trkpt>
      <trkpt lat="45.884286426007748" lon="8.340968890115619">
        <ele>1224.3800000000001</ele>
        <time>2018-05-06T08:36:54Z</time>
      </trkpt>
      <trkpt lat="45.884311320260167" lon="8.340824218466878">
        <ele>1225.3399999999999</ele>
        <time>2018-05-06T08:37:06Z</time>
      </trkpt>
      <trkpt lat="45.884316684678197" lon="8.340709302574396">
        <ele>1226.3</ele>
        <time>2018-05-06T08:37:17Z</time>
      </trkpt>
      <trkpt lat="45.884326240047812" lon="8.340603355318308">
        <ele>1226.78</ele>
        <time>2018-05-06T08:37:27Z</time>
      </trkpt>
      <trkpt lat="45.884357672184706" lon="8.34046714939177">
        <ele>1228.22</ele>
        <time>2018-05-06T08:37:39Z</time>
      </trkpt>
      <trkpt lat="45.884375274181366" lon="8.340352149680257">
        <ele>1229.1800000000001</ele>
        <time>2018-05-06T08:37:49Z</time>
      </trkpt>
      <trkpt lat="45.884389439597726" lon="8.34023212082684">
        <ele>1230.6199999999999</ele>
        <time>2018-05-06T08:38:02Z</time>
      </trkpt>
      <trkpt lat="45.884405532851815" lon="8.340119384229183">
        <ele>1231.5899999999999</ele>
        <time>2018-05-06T08:38:13Z</time>
      </trkpt>
      <trkpt lat="45.884422631934285" lon="8.340002205222845">
        <ele>1232.55</ele>
        <time>2018-05-06T08:38:24Z</time>
      </trkpt>
      <trkpt lat="45.884437216445804" lon="8.339877901598811">
        <ele>1233.99</ele>
        <time>2018-05-06T08:38:36Z</time>
      </trkpt>
      <trkpt lat="45.884449286386371" lon="8.339784191921353">
        <ele>1234.47</ele>
        <time>2018-05-06T08:38:44Z</time>
      </trkpt>
      <trkpt lat="45.884448448196054" lon="8.339670700952411">
        <ele>1235.9100000000001</ele>
        <time>2018-05-06T08:38:56Z</time>
      </trkpt>
      <trkpt lat="45.884450292214751" lon="8.339556120336056">
        <ele>1236.8699999999999</ele>
        <time>2018-05-06T08:39:06Z</time>
      </trkpt>
      <trkpt lat="45.884454064071178" lon="8.339435923844576">
        <ele>1238.3199999999999</ele>
        <time>2018-05-06T08:39:17Z</time>
      </trkpt>
      <trkpt lat="45.884440317749977" lon="8.339333413168788">
        <ele>1239.76</ele>
        <time>2018-05-06T08:39:27Z</time>
      </trkpt>
      <trkpt lat="45.884432606399059" lon="8.339227633550763">
        <ele>1240.72</ele>
        <time>2018-05-06T08:39:37Z</time>
      </trkpt>
      <trkpt lat="45.884429002180696" lon="8.339128056541085">
        <ele>1241.2</ele>
        <time>2018-05-06T08:39:46Z</time>
      </trkpt>
      <trkpt lat="45.884415674954653" lon="8.338985312730074">
        <ele>1242.1600000000001</ele>
        <time>2018-05-06T08:39:57Z</time>
      </trkpt>
      <trkpt lat="45.884417854249477" lon="8.338836701586843">
        <ele>1242.6400000000001</ele>
        <time>2018-05-06T08:40:09Z</time>
      </trkpt>
      <trkpt lat="45.884417099878192" lon="8.338712565600872">
        <ele>1243.1199999999999</ele>
        <time>2018-05-06T08:40:19Z</time>
      </trkpt>
      <trkpt lat="45.884407628327608" lon="8.338552722707391">
        <ele>1244.0799999999999</ele>
        <time>2018-05-06T08:40:32Z</time>
      </trkpt>
      <trkpt lat="45.884427158161998" lon="8.338424228131771">
        <ele>1244.5599999999999</ele>
        <time>2018-05-06T08:40:44Z</time>
      </trkpt>
      <trkpt lat="45.884420871734619" lon="8.338303612545133">
        <ele>1245.53</ele>
        <time>2018-05-06T08:40:55Z</time>
      </trkpt>
      <trkpt lat="45.884399581700563" lon="8.338196408003569">
        <ele>1246.49</ele>
        <time>2018-05-06T08:41:05Z</time>
      </trkpt>
      <trkpt lat="45.884366640821099" lon="8.338079983368516">
        <ele>1246.97</ele>
        <time>2018-05-06T08:41:16Z</time>
      </trkpt>
      <trkpt lat="45.884342500939965" lon="8.33796976134181">
        <ele>1247.9300000000001</ele>
        <time>2018-05-06T08:41:27Z</time>
      </trkpt>
      <trkpt lat="45.884313667193055" lon="8.337875213474035">
        <ele>1248.8900000000001</ele>
        <time>2018-05-06T08:41:38Z</time>
      </trkpt>
      <trkpt lat="45.884304950013757" lon="8.337820814922452">
        <ele>1249.3699999999999</ele>
        <time>2018-05-06T08:41:44Z</time>
      </trkpt>
      <trkpt lat="45.884294221177697" lon="8.337704557925463">
        <ele>1250.3299999999999</ele>
        <time>2018-05-06T08:41:54Z</time>
      </trkpt>
      <trkpt lat="45.884283073246479" lon="8.337582852691412">
        <ele>1251.29</ele>
        <time>2018-05-06T08:42:05Z</time>
      </trkpt>
      <trkpt lat="45.884257005527616" lon="8.337447820231319">
        <ele>1251.77</ele>
        <time>2018-05-06T08:42:16Z</time>
      </trkpt>
      <trkpt lat="45.884249797090888" lon="8.337376490235329">
        <ele>1252.25</ele>
        <time>2018-05-06T08:42:22Z</time>
      </trkpt>
      <trkpt lat="45.884240493178368" lon="8.337279260158539">
        <ele>1253.7</ele>
        <time>2018-05-06T08:42:32Z</time>
      </trkpt>
      <trkpt lat="45.884239738807082" lon="8.337245732545853">
        <ele>1254.1800000000001</ele>
        <time>2018-05-06T08:42:35Z</time>
      </trkpt>
      <trkpt lat="45.884223310276866" lon="8.337159398943186">
        <ele>1254.6600000000001</ele>
        <time>2018-05-06T08:42:43Z</time>
      </trkpt>
      <trkpt lat="45.884209312498569" lon="8.337006596848369">
        <ele>1257.0599999999999</ele>
        <time>2018-05-06T08:42:55Z</time>
      </trkpt>
      <trkpt lat="45.884206127375364" lon="8.336896374821663">
        <ele>1256.0999999999999</ele>
        <time>2018-05-06T08:43:04Z</time>
      </trkpt>
      <trkpt lat="45.884198332205415" lon="8.336757738143206">
        <ele>1256.0999999999999</ele>
        <time>2018-05-06T08:43:15Z</time>
      </trkpt>
      <trkpt lat="45.884123481810093" lon="8.336633099243045">
        <ele>1257.0599999999999</ele>
        <time>2018-05-06T08:43:25Z</time>
      </trkpt>
      <trkpt lat="45.8840989228338" lon="8.336582388728857">
        <ele>1257.0599999999999</ele>
        <time>2018-05-06T08:43:30Z</time>
      </trkpt>
      <trkpt lat="45.884036561474204" lon="8.336483566090465">
        <ele>1257.0599999999999</ele>
        <time>2018-05-06T08:43:39Z</time>
      </trkpt>
      <trkpt lat="45.884009152650833" lon="8.33640712313354">
        <ele>1257.0599999999999</ele>
        <time>2018-05-06T08:43:46Z</time>
      </trkpt>
      <trkpt lat="45.883983671665192" lon="8.33636119030416">
        <ele>1257.0599999999999</ele>
        <time>2018-05-06T08:43:50Z</time>
      </trkpt>
      <trkpt lat="45.883911084383726" lon="8.336225068196654">
        <ele>1257.54</ele>
        <time>2018-05-06T08:44:02Z</time>
      </trkpt>
      <trkpt lat="45.883885771036148" lon="8.336139405146241">
        <ele>1258.02</ele>
        <time>2018-05-06T08:44:11Z</time>
      </trkpt>
      <trkpt lat="45.883858278393745" lon="8.336078468710184">
        <ele>1258.5</ele>
        <time>2018-05-06T08:44:17Z</time>
      </trkpt>
      <trkpt lat="45.88385215960443" lon="8.336052065715194">
        <ele>1258.5</ele>
        <time>2018-05-06T08:44:19Z</time>
      </trkpt>
      <trkpt lat="45.883814441040158" lon="8.335971347987652">
        <ele>1258.5</ele>
        <time>2018-05-06T08:44:27Z</time>
      </trkpt>
      <trkpt lat="45.883773118257523" lon="8.335812259465456">
        <ele>1258.5</ele>
        <time>2018-05-06T08:44:40Z</time>
      </trkpt>
      <trkpt lat="45.883757527917624" lon="8.335731206461787">
        <ele>1258.5</ele>
        <time>2018-05-06T08:44:46Z</time>
      </trkpt>
      <trkpt lat="45.883767753839493" lon="8.33555543795228">
        <ele>1258.98</ele>
        <time>2018-05-06T08:44:58Z</time>
      </trkpt>
      <trkpt lat="45.883831037208438" lon="8.335423087701201">
        <ele>1258.5</ele>
        <time>2018-05-06T08:45:09Z</time>
      </trkpt>
      <trkpt lat="45.883871940895915" lon="8.33533457480371">
        <ele>1258.5</ele>
        <time>2018-05-06T08:45:18Z</time>
      </trkpt>
      <trkpt lat="45.883888034150004" lon="8.335299286991358">
        <ele>1258.98</ele>
        <time>2018-05-06T08:45:21Z</time>
      </trkpt>
      <trkpt lat="45.883919801563025" lon="8.335223766043782">
        <ele>1258.98</ele>
        <time>2018-05-06T08:45:32Z</time>
      </trkpt>
      <trkpt lat="45.883949054405093" lon="8.335080603137612">
        <ele>1259.46</ele>
        <time>2018-05-06T08:45:45Z</time>
      </trkpt>
      <trkpt lat="45.883979480713606" lon="8.334959987550974">
        <ele>1260.4300000000001</ele>
        <time>2018-05-06T08:45:55Z</time>
      </trkpt>
      <trkpt lat="45.884048715233803" lon="8.334880024194717">
        <ele>1259.9400000000001</ele>
        <time>2018-05-06T08:46:04Z</time>
      </trkpt>
      <trkpt lat="45.884195566177368" lon="8.334818333387375">
        <ele>1259.9400000000001</ele>
        <time>2018-05-06T08:46:18Z</time>
      </trkpt>
      <trkpt lat="45.884293131530285" lon="8.334750439971685">
        <ele>1259.9400000000001</ele>
        <time>2018-05-06T08:46:30Z</time>
      </trkpt>
      <trkpt lat="45.884404359385371" lon="8.334627477452159">
        <ele>1259.9400000000001</ele>
        <time>2018-05-06T08:46:42Z</time>
      </trkpt>
      <trkpt lat="45.884466804563999" lon="8.334474926814437">
        <ele>1259.9400000000001</ele>
        <time>2018-05-06T08:46:55Z</time>
      </trkpt>
      <trkpt lat="45.884510474279523" lon="8.334275269880891">
        <ele>1260.4300000000001</ele>
        <time>2018-05-06T08:47:09Z</time>
      </trkpt>
      <trkpt lat="45.88454601354897" lon="8.334074942395091">
        <ele>1260.4300000000001</ele>
        <time>2018-05-06T08:47:23Z</time>
      </trkpt>
      <trkpt lat="45.884579541161656" lon="8.333897078409791">
        <ele>1260.9100000000001</ele>
        <time>2018-05-06T08:47:36Z</time>
      </trkpt>
      <trkpt lat="45.884606530889869" lon="8.333699349313974">
        <ele>1261.3900000000001</ele>
        <time>2018-05-06T08:47:50Z</time>
      </trkpt>
      <trkpt lat="45.884624803438783" lon="8.333520982414484">
        <ele>1261.3900000000001</ele>
        <time>2018-05-06T08:48:03Z</time>
      </trkpt>
      <trkpt lat="45.884651876986027" lon="8.333351500332356">
        <ele>1261.3900000000001</ele>
        <time>2018-05-06T08:48:15Z</time>
      </trkpt>
      <trkpt lat="45.884650116786361" lon="8.333322247490287">
        <ele>1260.9100000000001</ele>
        <time>2018-05-06T08:48:17Z</time>
      </trkpt>
      <trkpt lat="45.884672496467829" lon="8.333151089027524">
        <ele>1261.3900000000001</ele>
        <time>2018-05-06T08:48:30Z</time>
      </trkpt>
      <trkpt lat="45.884673586115241" lon="8.333012452349067">
        <ele>1261.3900000000001</ele>
        <time>2018-05-06T08:48:40Z</time>
      </trkpt>
      <trkpt lat="45.88466570712626" lon="8.33285671658814">
        <ele>1261.8699999999999</ele>
        <time>2018-05-06T08:48:51Z</time>
      </trkpt>
      <trkpt lat="45.884654056280851" lon="8.332700058817864">
        <ele>1262.3499999999999</ele>
        <time>2018-05-06T08:49:03Z</time>
      </trkpt>
      <trkpt lat="45.884632766246796" lon="8.33257868885994">
        <ele>1263.3099999999999</ele>
        <time>2018-05-06T08:49:14Z</time>
      </trkpt>
      <trkpt lat="45.884623462334275" lon="8.332447847351432">
        <ele>1263.3099999999999</ele>
        <time>2018-05-06T08:49:24Z</time>
      </trkpt>
      <trkpt lat="45.884594125673175" lon="8.332327818498015">
        <ele>1264.27</ele>
        <time>2018-05-06T08:49:34Z</time>
      </trkpt>
      <trkpt lat="45.884595550596714" lon="8.332217093557119">
        <ele>1264.75</ele>
        <time>2018-05-06T08:49:44Z</time>
      </trkpt>
      <trkpt lat="45.884584905579686" lon="8.332157162949443">
        <ele>1264.75</ele>
        <time>2018-05-06T08:49:55Z</time>
      </trkpt>
      <trkpt lat="45.884584570303559" lon="8.332142159342766">
        <ele>1264.27</ele>
        <time>2018-05-06T08:50:06Z</time>
      </trkpt>
      <trkpt lat="45.884569482877851" lon="8.332116762176156">
        <ele>1265.23</ele>
        <time>2018-05-06T08:50:19Z</time>
      </trkpt>
      <trkpt lat="45.88455188088119" lon="8.33210963755846">
        <ele>1265.23</ele>
        <time>2018-05-06T08:50:32Z</time>
      </trkpt>
      <trkpt lat="45.88456210680306" lon="8.332074517384172">
        <ele>1265.23</ele>
        <time>2018-05-06T08:50:43Z</time>
      </trkpt>
      <trkpt lat="45.884553976356983" lon="8.332030680030584">
        <ele>1266.6700000000001</ele>
        <time>2018-05-06T08:50:51Z</time>
      </trkpt>
      <trkpt lat="45.884567135944963" lon="8.332056328654289">
        <ele>1266.6700000000001</ele>
        <time>2018-05-06T08:51:02Z</time>
      </trkpt>
      <trkpt lat="45.884689427912235" lon="8.331975024193525">
        <ele>1266.6700000000001</ele>
        <time>2018-05-06T08:51:15Z</time>
      </trkpt>
      <trkpt lat="45.884686578065157" lon="8.331972677260637">
        <ele>1265.71</ele>
        <time>2018-05-06T08:51:28Z</time>
      </trkpt>
      <trkpt lat="45.884672831743956" lon="8.331973850727081">
        <ele>1266.6700000000001</ele>
        <time>2018-05-06T08:51:41Z</time>
      </trkpt>
      <trkpt lat="45.884671239182353" lon="8.33195473998785">
        <ele>1266.1900000000001</ele>
        <time>2018-05-06T08:51:54Z</time>
      </trkpt>
      <trkpt lat="45.88467258028686" lon="8.332075355574489">
        <ele>1266.1900000000001</ele>
        <time>2018-05-06T08:52:10Z</time>
      </trkpt>
      <trkpt lat="45.884610805660486" lon="8.332120701670647">
        <ele>1266.1900000000001</ele>
        <time>2018-05-06T08:52:22Z</time>
      </trkpt>
      <trkpt lat="45.884603932499886" lon="8.332120114937425">
        <ele>1265.71</ele>
        <time>2018-05-06T08:52:34Z</time>
      </trkpt>
      <trkpt lat="45.884603848680854" lon="8.332128496840596">
        <ele>1265.71</ele>
        <time>2018-05-06T08:52:47Z</time>
      </trkpt>
      <trkpt lat="45.884600998833776" lon="8.332113577052951">
        <ele>1266.1900000000001</ele>
        <time>2018-05-06T08:52:56Z</time>
      </trkpt>
      <trkpt lat="45.884607369080186" lon="8.332115923985839">
        <ele>1265.71</ele>
        <time>2018-05-06T08:53:14Z</time>
      </trkpt>
      <trkpt lat="45.884608374908566" lon="8.332116259261966">
        <ele>1264.75</ele>
        <time>2018-05-06T08:53:25Z</time>
      </trkpt>
      <trkpt lat="45.884589767083526" lon="8.33210913464427">
        <ele>1265.71</ele>
        <time>2018-05-06T08:53:48Z</time>
      </trkpt>
      <trkpt lat="45.884597394615412" lon="8.332125311717391">
        <ele>1264.75</ele>
        <time>2018-05-06T08:54:00Z</time>
      </trkpt>
      <trkpt lat="45.884624887257814" lon="8.332134364172816">
        <ele>1265.23</ele>
        <time>2018-05-06T08:54:27Z</time>
      </trkpt>
      <trkpt lat="45.884614996612072" lon="8.332133945077658">
        <ele>1265.71</ele>
        <time>2018-05-06T08:54:36Z</time>
      </trkpt>
      <trkpt lat="45.884628407657146" lon="8.332185074687004">
        <ele>1265.71</ele>
        <time>2018-05-06T08:54:51Z</time>
      </trkpt>
      <trkpt lat="45.884621283039451" lon="8.332223212346435">
        <ele>1266.1900000000001</ele>
        <time>2018-05-06T08:55:01Z</time>
      </trkpt>
      <trkpt lat="45.884589515626431" lon="8.332195384427905">
        <ele>1265.23</ele>
        <time>2018-05-06T08:55:15Z</time>
      </trkpt>
      <trkpt lat="45.884580127894878" lon="8.332182308658958">
        <ele>1265.23</ele>
        <time>2018-05-06T08:55:26Z</time>
      </trkpt>
      <trkpt lat="45.884582223370671" lon="8.332214159891009">
        <ele>1264.75</ele>
        <time>2018-05-06T08:55:40Z</time>
      </trkpt>
      <trkpt lat="45.884567806497216" lon="8.332177950069308">
        <ele>1265.71</ele>
        <time>2018-05-06T08:55:51Z</time>
      </trkpt>
      <trkpt lat="45.884552719071507" lon="8.332170657813549">
        <ele>1265.71</ele>
        <time>2018-05-06T08:56:04Z</time>
      </trkpt>
      <trkpt lat="45.884548192843795" lon="8.33215749822557">
        <ele>1265.71</ele>
        <time>2018-05-06T08:56:05Z</time>
      </trkpt>
      <trkpt lat="45.884498991072178" lon="8.332020957022905">
        <ele>1266.6700000000001</ele>
        <time>2018-05-06T08:56:15Z</time>
      </trkpt>
      <trkpt lat="45.884426236152649" lon="8.331921212375164">
        <ele>1267.1600000000001</ele>
        <time>2018-05-06T08:56:25Z</time>
      </trkpt>
      <trkpt lat="45.88435985147953" lon="8.331832950934768">
        <ele>1267.6400000000001</ele>
        <time>2018-05-06T08:56:35Z</time>
      </trkpt>
      <trkpt lat="45.884266057983041" lon="8.331728847697377">
        <ele>1268.5999999999999</ele>
        <time>2018-05-06T08:56:46Z</time>
      </trkpt>
      <trkpt lat="45.88418927974999" lon="8.331628600135446">
        <ele>1269.5599999999999</ele>
        <time>2018-05-06T08:56:55Z</time>
      </trkpt>
      <trkpt lat="45.884152483195066" lon="8.331557353958488">
        <ele>1271</ele>
        <time>2018-05-06T08:57:02Z</time>
      </trkpt>
      <trkpt lat="45.88412188924849" lon="8.331531370058656">
        <ele>1270.52</ele>
        <time>2018-05-06T08:57:05Z</time>
      </trkpt>
      <trkpt lat="45.884085595607758" lon="8.3314358163625">
        <ele>1271.48</ele>
        <time>2018-05-06T08:57:13Z</time>
      </trkpt>
      <trkpt lat="45.884055588394403" lon="8.331287624314427">
        <ele>1272.9200000000001</ele>
        <time>2018-05-06T08:57:24Z</time>
      </trkpt>
      <trkpt lat="45.884050307795405" lon="8.331257700920105">
        <ele>1273.4000000000001</ele>
        <time>2018-05-06T08:57:26Z</time>
      </trkpt>
      <trkpt lat="45.88403245434165" lon="8.331207660958171">
        <ele>1273.4000000000001</ele>
        <time>2018-05-06T08:57:30Z</time>
      </trkpt>
      <trkpt lat="45.883986940607429" lon="8.331107581034303">
        <ele>1274.8499999999999</ele>
        <time>2018-05-06T08:57:39Z</time>
      </trkpt>
      <trkpt lat="45.88395232334733" lon="8.330979170277715">
        <ele>1275.3299999999999</ele>
        <time>2018-05-06T08:57:49Z</time>
      </trkpt>
      <trkpt lat="45.88393472135067" lon="8.330921251326799">
        <ele>1275.8099999999999</ele>
        <time>2018-05-06T08:57:54Z</time>
      </trkpt>
      <trkpt lat="45.883925668895245" lon="8.330896524712443">
        <ele>1276.29</ele>
        <time>2018-05-06T08:57:56Z</time>
      </trkpt>
      <trkpt lat="45.883916700258851" lon="8.330870792269707">
        <ele>1275.8099999999999</ele>
        <time>2018-05-06T08:57:58Z</time>
      </trkpt>
      <trkpt lat="45.883903540670872" lon="8.330742381513119">
        <ele>1276.29</ele>
        <time>2018-05-06T08:58:08Z</time>
      </trkpt>
      <trkpt lat="45.883844783529639" lon="8.330572228878737">
        <ele>1276.77</ele>
        <time>2018-05-06T08:58:21Z</time>
      </trkpt>
      <trkpt lat="45.883779991418123" lon="8.33043409511447">
        <ele>1276.77</ele>
        <time>2018-05-06T08:58:32Z</time>
      </trkpt>
      <trkpt lat="45.883743865415454" lon="8.330299146473408">
        <ele>1276.77</ele>
        <time>2018-05-06T08:58:43Z</time>
      </trkpt>
      <trkpt lat="45.883712768554687" lon="8.330178111791611">
        <ele>1276.77</ele>
        <time>2018-05-06T08:58:53Z</time>
      </trkpt>
      <trkpt lat="45.883655017241836" lon="8.330019442364574">
        <ele>1276.77</ele>
        <time>2018-05-06T08:59:04Z</time>
      </trkpt>
      <trkpt lat="45.883585531264544" lon="8.329876028001308">
        <ele>1276.29</ele>
        <time>2018-05-06T08:59:16Z</time>
      </trkpt>
      <trkpt lat="45.883505567908287" lon="8.329766811802983">
        <ele>1275.8099999999999</ele>
        <time>2018-05-06T08:59:27Z</time>
      </trkpt>
      <trkpt lat="45.88343339972198" lon="8.329664217308164">
        <ele>1275.3299999999999</ele>
        <time>2018-05-06T08:59:38Z</time>
      </trkpt>
      <trkpt lat="45.883338684216142" lon="8.32951501943171">
        <ele>1274.8499999999999</ele>
        <time>2018-05-06T08:59:51Z</time>
      </trkpt>
      <trkpt lat="45.883244136348367" lon="8.329382920637727">
        <ele>1274.8499999999999</ele>
        <time>2018-05-06T09:00:04Z</time>
      </trkpt>
      <trkpt lat="45.883216224610806" lon="8.329268926754594">
        <ele>1274.8499999999999</ele>
        <time>2018-05-06T09:00:13Z</time>
      </trkpt>
      <trkpt lat="45.883150678128004" lon="8.32914755679667">
        <ele>1274.8499999999999</ele>
        <time>2018-05-06T09:00:24Z</time>
      </trkpt>
      <trkpt lat="45.883107678964734" lon="8.328998778015375">
        <ele>1275.3299999999999</ele>
        <time>2018-05-06T09:00:36Z</time>
      </trkpt>
      <trkpt lat="45.883063087239861" lon="8.32884656265378">
        <ele>1276.29</ele>
        <time>2018-05-06T09:00:49Z</time>
      </trkpt>
      <trkpt lat="45.883050095289946" lon="8.328717481344938">
        <ele>1276.29</ele>
        <time>2018-05-06T09:00:58Z</time>
      </trkpt>
      <trkpt lat="45.883041797205806" lon="8.32854556851089">
        <ele>1276.77</ele>
        <time>2018-05-06T09:01:08Z</time>
      </trkpt>
      <trkpt lat="45.883057806640863" lon="8.328367872163653">
        <ele>1276.77</ele>
        <time>2018-05-06T09:01:21Z</time>
      </trkpt>
      <trkpt lat="45.883069708943367" lon="8.328209118917584">
        <ele>1277.73</ele>
        <time>2018-05-06T09:01:32Z</time>
      </trkpt>
      <trkpt lat="45.883100470528007" lon="8.328079115599394">
        <ele>1278.21</ele>
        <time>2018-05-06T09:01:41Z</time>
      </trkpt>
      <trkpt lat="45.883119078353047" lon="8.327894126996398">
        <ele>1278.6900000000001</ele>
        <time>2018-05-06T09:01:54Z</time>
      </trkpt>
      <trkpt lat="45.883119581267238" lon="8.327865293249488">
        <ele>1278.6900000000001</ele>
        <time>2018-05-06T09:01:56Z</time>
      </trkpt>
      <trkpt lat="45.883079264312983" lon="8.327677622437477">
        <ele>1278.21</ele>
        <time>2018-05-06T09:02:10Z</time>
      </trkpt>
      <trkpt lat="45.883038863539696" lon="8.327515432611108">
        <ele>1277.73</ele>
        <time>2018-05-06T09:02:21Z</time>
      </trkpt>
      <trkpt lat="45.882987901568413" lon="8.327369503676891">
        <ele>1277.25</ele>
        <time>2018-05-06T09:02:32Z</time>
      </trkpt>
      <trkpt lat="45.882971305400133" lon="8.327220221981406">
        <ele>1276.77</ele>
        <time>2018-05-06T09:02:42Z</time>
      </trkpt>
      <trkpt lat="45.882951859384775" lon="8.327084183692932">
        <ele>1276.77</ele>
        <time>2018-05-06T09:02:51Z</time>
      </trkpt>
      <trkpt lat="45.882950015366077" lon="8.32691210322082">
        <ele>1276.77</ele>
        <time>2018-05-06T09:03:02Z</time>
      </trkpt>
      <trkpt lat="45.882928976789117" lon="8.32674790173769">
        <ele>1276.29</ele>
        <time>2018-05-06T09:03:13Z</time>
      </trkpt>
      <trkpt lat="45.88292277418077" lon="8.326590489596129">
        <ele>1275.8099999999999</ele>
        <time>2018-05-06T09:03:24Z</time>
      </trkpt>
      <trkpt lat="45.882890587672591" lon="8.326395945623517">
        <ele>1275.3299999999999</ele>
        <time>2018-05-06T09:03:36Z</time>
      </trkpt>
      <trkpt lat="45.882859490811825" lon="8.326212130486965">
        <ele>1275.3299999999999</ele>
        <time>2018-05-06T09:03:47Z</time>
      </trkpt>
      <trkpt lat="45.882820598781109" lon="8.326100902631879">
        <ele>1275.8099999999999</ele>
        <time>2018-05-06T09:03:56Z</time>
      </trkpt>
      <trkpt lat="45.882779024541378" lon="8.326036613434553">
        <ele>1275.3299999999999</ele>
        <time>2018-05-06T09:04:02Z</time>
      </trkpt>
      <trkpt lat="45.882669808343053" lon="8.325911723077297">
        <ele>1275.3299999999999</ele>
        <time>2018-05-06T09:04:14Z</time>
      </trkpt>
      <trkpt lat="45.882567213848233" lon="8.325800327584148">
        <ele>1274.8499999999999</ele>
        <time>2018-05-06T09:04:25Z</time>
      </trkpt>
      <trkpt lat="45.882474258542061" lon="8.325669821351767">
        <ele>1274.8499999999999</ele>
        <time>2018-05-06T09:04:38Z</time>
      </trkpt>
      <trkpt lat="45.882411226630211" lon="8.325560940429568">
        <ele>1274.3599999999999</ele>
        <time>2018-05-06T09:04:48Z</time>
      </trkpt>
      <trkpt lat="45.882389266043901" lon="8.325500842183828">
        <ele>1274.3599999999999</ele>
        <time>2018-05-06T09:04:52Z</time>
      </trkpt>
      <trkpt lat="45.88231441564858" lon="8.325367234647274">
        <ele>1274.8499999999999</ele>
        <time>2018-05-06T09:05:04Z</time>
      </trkpt>
      <trkpt lat="45.882255993783474" lon="8.325241506099701">
        <ele>1274.8499999999999</ele>
        <time>2018-05-06T09:05:14Z</time>
      </trkpt>
      <trkpt lat="45.882185334339738" lon="8.325086859986186">
        <ele>1275.3299999999999</ele>
        <time>2018-05-06T09:05:26Z</time>
      </trkpt>
      <trkpt lat="45.88216932490468" lon="8.324982840567827">
        <ele>1275.8099999999999</ele>
        <time>2018-05-06T09:05:37Z</time>
      </trkpt>
      <trkpt lat="45.88212045840919" lon="8.324904134497047">
        <ele>1275.8099999999999</ele>
        <time>2018-05-06T09:05:47Z</time>
      </trkpt>
      <trkpt lat="45.88210235349834" lon="8.324864655733109">
        <ele>1275.8099999999999</ele>
        <time>2018-05-06T09:05:56Z</time>
      </trkpt>
      <trkpt lat="45.882122134789824" lon="8.324852753430605">
        <ele>1276.29</ele>
        <time>2018-05-06T09:06:05Z</time>
      </trkpt>
      <trkpt lat="45.882111573591828" lon="8.324827020987868">
        <ele>1275.8099999999999</ele>
        <time>2018-05-06T09:06:21Z</time>
      </trkpt>
      <trkpt lat="45.882109561935067" lon="8.324845880270004">
        <ele>1275.8099999999999</ele>
        <time>2018-05-06T09:06:36Z</time>
      </trkpt>
      <trkpt lat="45.882098833099008" lon="8.324844036251307">
        <ele>1275.8099999999999</ele>
        <time>2018-05-06T09:06:53Z</time>
      </trkpt>
      <trkpt lat="45.882078045979142" lon="8.324849484488368">
        <ele>1276.29</ele>
        <time>2018-05-06T09:07:09Z</time>
      </trkpt>
      <trkpt lat="45.88209941983223" lon="8.324819225817919">
        <ele>1276.29</ele>
        <time>2018-05-06T09:07:21Z</time>
      </trkpt>
      <trkpt lat="45.882159098982811" lon="8.324723169207573">
        <ele>1276.77</ele>
        <time>2018-05-06T09:07:32Z</time>
      </trkpt>
      <trkpt lat="45.882214671000838" lon="8.32461160607636">
        <ele>1278.21</ele>
        <time>2018-05-06T09:07:47Z</time>
      </trkpt>
      <trkpt lat="45.882235793396831" lon="8.324554860591888">
        <ele>1278.6900000000001</ele>
        <time>2018-05-06T09:07:59Z</time>
      </trkpt>
      <trkpt lat="45.882264710962772" lon="8.324496606364846">
        <ele>1279.6500000000001</ele>
        <time>2018-05-06T09:08:12Z</time>
      </trkpt>
      <trkpt lat="45.882295053452253" lon="8.324429718777537">
        <ele>1280.6099999999999</ele>
        <time>2018-05-06T09:08:23Z</time>
      </trkpt>
      <trkpt lat="45.882354564964771" lon="8.32431111484766">
        <ele>1281.0899999999999</ele>
        <time>2018-05-06T09:08:35Z</time>
      </trkpt>
      <trkpt lat="45.882389098405838" lon="8.324213800951839">
        <ele>1281.5699999999999</ele>
        <time>2018-05-06T09:08:46Z</time>
      </trkpt>
      <trkpt lat="45.88238038122654" lon="8.32411858253181">
        <ele>1282.54</ele>
        <time>2018-05-06T09:08:59Z</time>
      </trkpt>
      <trkpt lat="45.882378285750747" lon="8.324005929753184">
        <ele>1283.02</ele>
        <time>2018-05-06T09:09:11Z</time>
      </trkpt>
      <trkpt lat="45.882405946031213" lon="8.323846170678735">
        <ele>1282.54</ele>
        <time>2018-05-06T09:09:23Z</time>
      </trkpt>
      <trkpt lat="45.882448358461261" lon="8.323736116290093">
        <ele>1283.5</ele>
        <time>2018-05-06T09:09:36Z</time>
      </trkpt>
      <trkpt lat="45.882477946579456" lon="8.323656907305121">
        <ele>1283.98</ele>
        <time>2018-05-06T09:09:47Z</time>
      </trkpt>
      <trkpt lat="45.882512144744396" lon="8.323572920635343">
        <ele>1284.9400000000001</ele>
        <time>2018-05-06T09:09:59Z</time>
      </trkpt>
      <trkpt lat="45.882530668750405" lon="8.323448114097118">
        <ele>1283.98</ele>
        <time>2018-05-06T09:10:11Z</time>
      </trkpt>
      <trkpt lat="45.882513904944062" lon="8.32330453209579">
        <ele>1283.5</ele>
        <time>2018-05-06T09:10:23Z</time>
      </trkpt>
      <trkpt lat="45.882523376494646" lon="8.323193807154894">
        <ele>1285.4200000000001</ele>
        <time>2018-05-06T09:10:34Z</time>
      </trkpt>
      <trkpt lat="45.882549863308668" lon="8.323072521016002">
        <ele>1287.3399999999999</ele>
        <time>2018-05-06T09:10:45Z</time>
      </trkpt>
      <trkpt lat="45.88259395211935" lon="8.322980236262083">
        <ele>1288.78</ele>
        <time>2018-05-06T09:10:56Z</time>
      </trkpt>
      <trkpt lat="45.882625384256244" lon="8.322913683950901">
        <ele>1289.75</ele>
        <time>2018-05-06T09:11:05Z</time>
      </trkpt>
      <trkpt lat="45.882646422833204" lon="8.322845539078116">
        <ele>1291.1900000000001</ele>
        <time>2018-05-06T09:11:18Z</time>
      </trkpt>
      <trkpt lat="45.882657654583454" lon="8.322769096121192">
        <ele>1293.1099999999999</ele>
        <time>2018-05-06T09:11:29Z</time>
      </trkpt>
      <trkpt lat="45.882669305428863" lon="8.322681505233049">
        <ele>1294.55</ele>
        <time>2018-05-06T09:11:41Z</time>
      </trkpt>
      <trkpt lat="45.882688667625189" lon="8.322606738656759">
        <ele>1295.99</ele>
        <time>2018-05-06T09:11:52Z</time>
      </trkpt>
      <trkpt lat="45.88272588327527" lon="8.322520991787314">
        <ele>1298.4000000000001</ele>
        <time>2018-05-06T09:12:05Z</time>
      </trkpt>
      <trkpt lat="45.882765194401145" lon="8.322455110028386">
        <ele>1299.8399999999999</ele>
        <time>2018-05-06T09:12:15Z</time>
      </trkpt>
      <trkpt lat="45.88279134593904" lon="8.322399873286486">
        <ele>1301.28</ele>
        <time>2018-05-06T09:12:28Z</time>
      </trkpt>
      <trkpt lat="45.882825711742043" lon="8.322340697050095">
        <ele>1302.72</ele>
        <time>2018-05-06T09:12:36Z</time>
      </trkpt>
      <trkpt lat="45.882896119728684" lon="8.322274480015039">
        <ele>1304.6500000000001</ele>
        <time>2018-05-06T09:12:48Z</time>
      </trkpt>
      <trkpt lat="45.882909027859569" lon="8.322223601862788">
        <ele>1305.6099999999999</ele>
        <time>2018-05-06T09:13:00Z</time>
      </trkpt>
      <trkpt lat="45.882876254618168" lon="8.322205077856779">
        <ele>1307.05</ele>
        <time>2018-05-06T09:13:11Z</time>
      </trkpt>
      <trkpt lat="45.882909698411822" lon="8.322130143642426">
        <ele>1308.49</ele>
        <time>2018-05-06T09:13:23Z</time>
      </trkpt>
      <trkpt lat="45.88289980776608" lon="8.322128970175982">
        <ele>1309.45</ele>
        <time>2018-05-06T09:13:35Z</time>
      </trkpt>
      <trkpt lat="45.882914727553725" lon="8.322047581896186">
        <ele>1311.3800000000001</ele>
        <time>2018-05-06T09:13:45Z</time>
      </trkpt>
      <trkpt lat="45.882952529937029" lon="8.321987735107541">
        <ele>1312.8199999999999</ele>
        <time>2018-05-06T09:13:54Z</time>
      </trkpt>
      <trkpt lat="45.882984129711986" lon="8.32194222137332">
        <ele>1313.78</ele>
        <time>2018-05-06T09:14:05Z</time>
      </trkpt>
      <trkpt lat="45.883010616526008" lon="8.321902491152287">
        <ele>1315.22</ele>
        <time>2018-05-06T09:14:16Z</time>
      </trkpt>
      <trkpt lat="45.883010867983103" lon="8.321859240531921">
        <ele>1316.6600000000001</ele>
        <time>2018-05-06T09:14:24Z</time>
      </trkpt>
      <trkpt lat="45.883032409474254" lon="8.321798052638769">
        <ele>1317.6199999999999</ele>
        <time>2018-05-06T09:14:35Z</time>
      </trkpt>
      <trkpt lat="45.883039031177759" lon="8.32178195938468">
        <ele>1319.0699999999999</ele>
        <time>2018-05-06T09:14:46Z</time>
      </trkpt>
      <trkpt lat="45.883055794984102" lon="8.321737619116902">
        <ele>1319.55</ele>
        <time>2018-05-06T09:14:55Z</time>
      </trkpt>
      <trkpt lat="45.883090244606137" lon="8.321648603305221">
        <ele>1321.47</ele>
        <time>2018-05-06T09:15:05Z</time>
      </trkpt>
      <trkpt lat="45.883109858259559" lon="8.321608537808061">
        <ele>1322.4300000000001</ele>
        <time>2018-05-06T09:15:17Z</time>
      </trkpt>
      <trkpt lat="45.883124275133014" lon="8.32157333381474">
        <ele>1323.3900000000001</ele>
        <time>2018-05-06T09:15:28Z</time>
      </trkpt>
      <trkpt lat="45.883098375052214" lon="8.32151859998703">
        <ele>1325.3099999999999</ele>
        <time>2018-05-06T09:15:40Z</time>
      </trkpt>
      <trkpt lat="45.883094435557723" lon="8.321459256112576">
        <ele>1327.24</ele>
        <time>2018-05-06T09:15:51Z</time>
      </trkpt>
      <trkpt lat="45.883122347295284" lon="8.321369402110577">
        <ele>1328.6800000000001</ele>
        <time>2018-05-06T09:16:08Z</time>
      </trkpt>
      <trkpt lat="45.883086137473583" lon="8.321356996893883">
        <ele>1330.5999999999999</ele>
        <time>2018-05-06T09:16:20Z</time>
      </trkpt>
      <trkpt lat="45.883074989542365" lon="8.321305112913251">
        <ele>1332.52</ele>
        <time>2018-05-06T09:16:30Z</time>
      </trkpt>
      <trkpt lat="45.883079348132014" lon="8.321245517581701">
        <ele>1333.97</ele>
        <time>2018-05-06T09:16:41Z</time>
      </trkpt>
      <trkpt lat="45.883122179657221" lon="8.321180809289217">
        <ele>1335.8900000000001</ele>
        <time>2018-05-06T09:16:53Z</time>
      </trkpt>
      <trkpt lat="45.883163334801793" lon="8.321130098775029">
        <ele>1337.8099999999999</ele>
        <time>2018-05-06T09:17:06Z</time>
      </trkpt>
      <trkpt lat="45.883184541016817" lon="8.321085423231125">
        <ele>1338.77</ele>
        <time>2018-05-06T09:17:18Z</time>
      </trkpt>
      <trkpt lat="45.883236592635512" lon="8.321066396310926">
        <ele>1340.22</ele>
        <time>2018-05-06T09:17:29Z</time>
      </trkpt>
      <trkpt lat="45.883233826607466" lon="8.321044771000743">
        <ele>1340.22</ele>
        <time>2018-05-06T09:17:40Z</time>
      </trkpt>
      <trkpt lat="45.88322619907558" lon="8.321043681353331">
        <ele>1340.22</ele>
        <time>2018-05-06T09:17:59Z</time>
      </trkpt>
      <trkpt lat="45.883165178820491" lon="8.321066815406084">
        <ele>1342.1400000000001</ele>
        <time>2018-05-06T09:18:10Z</time>
      </trkpt>
      <trkpt lat="45.883117988705635" lon="8.321086009964347">
        <ele>1344.54</ele>
        <time>2018-05-06T09:18:23Z</time>
      </trkpt>
      <trkpt lat="45.883104158565402" lon="8.321097157895565">
        <ele>1345.5</ele>
        <time>2018-05-06T09:18:35Z</time>
      </trkpt>
      <trkpt lat="45.883035929873586" lon="8.321115681901574">
        <ele>1346.9400000000001</ele>
        <time>2018-05-06T09:18:47Z</time>
      </trkpt>
      <trkpt lat="45.88298630900681" lon="8.321101684123278">
        <ele>1348.8699999999999</ele>
        <time>2018-05-06T09:18:56Z</time>
      </trkpt>
      <trkpt lat="45.882927803322673" lon="8.321110233664513">
        <ele>1349.8299999999999</ele>
        <time>2018-05-06T09:19:06Z</time>
      </trkpt>
      <trkpt lat="45.882870219647884" lon="8.321031695231795">
        <ele>1351.27</ele>
        <time>2018-05-06T09:19:17Z</time>
      </trkpt>
      <trkpt lat="45.882894694805145" lon="8.320911834016442">
        <ele>1352.23</ele>
        <time>2018-05-06T09:19:28Z</time>
      </trkpt>
      <trkpt lat="45.882908022031188" lon="8.320836564525962">
        <ele>1353.1900000000001</ele>
        <time>2018-05-06T09:19:38Z</time>
      </trkpt>
      <trkpt lat="45.882915481925011" lon="8.320804964751005">
        <ele>1353.6700000000001</ele>
        <time>2018-05-06T09:19:46Z</time>
      </trkpt>
      <trkpt lat="45.882925540208817" lon="8.320763474330306">
        <ele>1355.1199999999999</ele>
        <time>2018-05-06T09:19:58Z</time>
      </trkpt>
      <trkpt lat="45.882955715060234" lon="8.320717122405767">
        <ele>1356.0799999999999</ele>
        <time>2018-05-06T09:20:06Z</time>
      </trkpt>
      <trkpt lat="45.883007096126676" lon="8.320672195404768">
        <ele>1358</ele>
        <time>2018-05-06T09:20:17Z</time>
      </trkpt>
      <trkpt lat="45.883011789992452" lon="8.320638332515955">
        <ele>1359.4400000000001</ele>
        <time>2018-05-06T09:20:26Z</time>
      </trkpt>
      <trkpt lat="45.883010951802135" lon="8.320606984198093">
        <ele>1360.4000000000001</ele>
        <time>2018-05-06T09:20:35Z</time>
      </trkpt>
      <trkpt lat="45.883034002035856" lon="8.320557111874223">
        <ele>1362.3299999999999</ele>
        <time>2018-05-06T09:20:45Z</time>
      </trkpt>
      <trkpt lat="45.88305227458477" lon="8.320537498220801">
        <ele>1363.29</ele>
        <time>2018-05-06T09:20:53Z</time>
      </trkpt>
      <trkpt lat="45.883100973442197" lon="8.320507574826479">
        <ele>1363.29</ele>
        <time>2018-05-06T09:21:02Z</time>
      </trkpt>
      <trkpt lat="45.88315193541348" lon="8.320458205416799">
        <ele>1364.25</ele>
        <time>2018-05-06T09:21:13Z</time>
      </trkpt>
      <trkpt lat="45.883158557116985" lon="8.320442363619804">
        <ele>1365.21</ele>
        <time>2018-05-06T09:21:15Z</time>
      </trkpt>
      <trkpt lat="45.8831802662462" lon="8.320397101342678">
        <ele>1366.1700000000001</ele>
        <time>2018-05-06T09:21:28Z</time>
      </trkpt>
      <trkpt lat="45.883177667856216" lon="8.320371117442846">
        <ele>1366.1700000000001</ele>
        <time>2018-05-06T09:21:37Z</time>
      </trkpt>
      <trkpt lat="45.883163250982761" lon="8.320330465212464">
        <ele>1367.6099999999999</ele>
        <time>2018-05-06T09:21:50Z</time>
      </trkpt>
      <trkpt lat="45.883182361721992" lon="8.320262990891933">
        <ele>1369.54</ele>
        <time>2018-05-06T09:22:01Z</time>
      </trkpt>
      <trkpt lat="45.883172554895282" lon="8.320232396945357">
        <ele>1370.98</ele>
        <time>2018-05-06T09:22:13Z</time>
      </trkpt>
      <trkpt lat="45.883168950676918" lon="8.320245053619146">
        <ele>1371.46</ele>
        <time>2018-05-06T09:22:22Z</time>
      </trkpt>
      <trkpt lat="45.883141793310642" lon="8.320253267884255">
        <ele>1372.4200000000001</ele>
        <time>2018-05-06T09:22:32Z</time>
      </trkpt>
      <trkpt lat="45.883111618459225" lon="8.320242622867227">
        <ele>1374.3399999999999</ele>
        <time>2018-05-06T09:22:41Z</time>
      </trkpt>
      <trkpt lat="45.883078845217824" lon="8.320220075547695">
        <ele>1376.26</ele>
        <time>2018-05-06T09:22:49Z</time>
      </trkpt>
      <trkpt lat="45.883042635396123" lon="8.320213789120317">
        <ele>1377.23</ele>
        <time>2018-05-06T09:23:00Z</time>
      </trkpt>
      <trkpt lat="45.883023189380765" lon="8.3201973605901">
        <ele>1377.71</ele>
        <time>2018-05-06T09:23:11Z</time>
      </trkpt>
      <trkpt lat="45.883010113611817" lon="8.320175400003791">
        <ele>1377.71</ele>
        <time>2018-05-06T09:23:29Z</time>
      </trkpt>
      <trkpt lat="45.883012292906642" lon="8.32017975859344">
        <ele>1377.71</ele>
        <time>2018-05-06T09:23:47Z</time>
      </trkpt>
      <trkpt lat="45.883018663153052" lon="8.320149499922991">
        <ele>1378.6700000000001</ele>
        <time>2018-05-06T09:24:03Z</time>
      </trkpt>
      <trkpt lat="45.883016483858228" lon="8.320103902369738">
        <ele>1379.6300000000001</ele>
        <time>2018-05-06T09:24:13Z</time>
      </trkpt>
      <trkpt lat="45.88302930817008" lon="8.320086719468236">
        <ele>1380.5899999999999</ele>
        <time>2018-05-06T09:24:20Z</time>
      </trkpt>
      <trkpt lat="45.883051352575421" lon="8.320099292322993">
        <ele>1381.55</ele>
        <time>2018-05-06T09:24:31Z</time>
      </trkpt>
      <trkpt lat="45.883051687851548" lon="8.320089904591441">
        <ele>1382.03</ele>
        <time>2018-05-06T09:24:39Z</time>
      </trkpt>
      <trkpt lat="45.883064512163401" lon="8.320084121078253">
        <ele>1382.51</ele>
        <time>2018-05-06T09:24:54Z</time>
      </trkpt>
      <trkpt lat="45.883073229342699" lon="8.320043301209807">
        <ele>1384.4400000000001</ele>
        <time>2018-05-06T09:25:06Z</time>
      </trkpt>
      <trkpt lat="45.883062584325671" lon="8.320039948448539">
        <ele>1384.9200000000001</ele>
        <time>2018-05-06T09:25:24Z</time>
      </trkpt>
      <trkpt lat="45.883074067533016" lon="8.320023184642196">
        <ele>1385.4000000000001</ele>
        <time>2018-05-06T09:25:39Z</time>
      </trkpt>
      <trkpt lat="45.883072139695287" lon="8.320007175207138">
        <ele>1385.4000000000001</ele>
        <time>2018-05-06T09:25:51Z</time>
      </trkpt>
      <trkpt lat="45.883079012855887" lon="8.320008181035519">
        <ele>1385.4000000000001</ele>
        <time>2018-05-06T09:26:04Z</time>
      </trkpt>
      <trkpt lat="45.883082617074251" lon="8.320017317309976">
        <ele>1385.8800000000001</ele>
        <time>2018-05-06T09:26:20Z</time>
      </trkpt>
      <trkpt lat="45.883074486628175" lon="8.320011114701629">
        <ele>1385.8800000000001</ele>
        <time>2018-05-06T09:26:36Z</time>
      </trkpt>
      <trkpt lat="45.883075576275587" lon="8.319997116923332">
        <ele>1385.4000000000001</ele>
        <time>2018-05-06T09:26:53Z</time>
      </trkpt>
      <trkpt lat="45.883080270141363" lon="8.320015473291278">
        <ele>1385.8800000000001</ele>
        <time>2018-05-06T09:27:09Z</time>
      </trkpt>
      <trkpt lat="45.883079767227173" lon="8.320016730576754">
        <ele>1385.8800000000001</ele>
        <time>2018-05-06T09:27:19Z</time>
      </trkpt>
      <trkpt lat="45.883076665922999" lon="8.319991081953049">
        <ele>1384.9200000000001</ele>
        <time>2018-05-06T09:27:29Z</time>
      </trkpt>
      <trkpt lat="45.883092591539025" lon="8.319900222122669">
        <ele>1386.3599999999999</ele>
        <time>2018-05-06T09:27:38Z</time>
      </trkpt>
      <trkpt lat="45.8830869756639" lon="8.319810116663575">
        <ele>1388.76</ele>
        <time>2018-05-06T09:27:48Z</time>
      </trkpt>
      <trkpt lat="45.883085634559393" lon="8.319756137207151">
        <ele>1390.2</ele>
        <time>2018-05-06T09:27:54Z</time>
      </trkpt>
      <trkpt lat="45.883101308718324" lon="8.319641053676605">
        <ele>1390.6800000000001</ele>
        <time>2018-05-06T09:28:04Z</time>
      </trkpt>
      <trkpt lat="45.883112708106637" lon="8.319616913795471">
        <ele>1390.6800000000001</ele>
        <time>2018-05-06T09:28:06Z</time>
      </trkpt>
      <trkpt lat="45.883150845766068" lon="8.319550277665258">
        <ele>1392.1300000000001</ele>
        <time>2018-05-06T09:28:17Z</time>
      </trkpt>
      <trkpt lat="45.883142044767737" lon="8.319507529959083">
        <ele>1392.6099999999999</ele>
        <time>2018-05-06T09:28:21Z</time>
      </trkpt>
      <trkpt lat="45.883136680349708" lon="8.319388087838888">
        <ele>1393.5699999999999</ele>
        <time>2018-05-06T09:28:30Z</time>
      </trkpt>
      <trkpt lat="45.883157467469573" lon="8.319294629618526">
        <ele>1395.01</ele>
        <time>2018-05-06T09:28:40Z</time>
      </trkpt>
      <trkpt lat="45.883165514096618" lon="8.319223634898663">
        <ele>1396.45</ele>
        <time>2018-05-06T09:28:51Z</time>
      </trkpt>
      <trkpt lat="45.883173309266567" lon="8.319145180284977">
        <ele>1396.9300000000001</ele>
        <time>2018-05-06T09:29:00Z</time>
      </trkpt>
      <trkpt lat="45.883184792473912" lon="8.319062953814864">
        <ele>1398.3699999999999</ele>
        <time>2018-05-06T09:29:09Z</time>
      </trkpt>
      <trkpt lat="45.883188480511308" lon="8.319014254957438">
        <ele>1398.8599999999999</ele>
        <time>2018-05-06T09:29:13Z</time>
      </trkpt>
      <trkpt lat="45.883185882121325" lon="8.318913085386157">
        <ele>1400.78</ele>
        <time>2018-05-06T09:29:23Z</time>
      </trkpt>
      <trkpt lat="45.883185798302293" lon="8.318895986303687">
        <ele>1401.74</ele>
        <time>2018-05-06T09:29:25Z</time>
      </trkpt>
      <trkpt lat="45.883226785808802" lon="8.318821052089334">
        <ele>1403.6600000000001</ele>
        <time>2018-05-06T09:29:34Z</time>
      </trkpt>
      <trkpt lat="45.88323500007391" lon="8.318764306604862">
        <ele>1404.1400000000001</ele>
        <time>2018-05-06T09:29:39Z</time>
      </trkpt>
      <trkpt lat="45.883254865184426" lon="8.318712254986167">
        <ele>1405.5799999999999</ele>
        <time>2018-05-06T09:29:45Z</time>
      </trkpt>
      <trkpt lat="45.883282357826829" lon="8.318680403754115">
        <ele>1406.55</ele>
        <time>2018-05-06T09:29:56Z</time>
      </trkpt>
      <trkpt lat="45.883309012278914" lon="8.318625502288342">
        <ele>1408.47</ele>
        <time>2018-05-06T09:30:04Z</time>
      </trkpt>
      <trkpt lat="45.883348323404789" lon="8.318625502288342">
        <ele>1409.9100000000001</ele>
        <time>2018-05-06T09:30:14Z</time>
      </trkpt>
      <trkpt lat="45.883353184908628" lon="8.31860639154911">
        <ele>1411.3499999999999</ele>
        <time>2018-05-06T09:30:25Z</time>
      </trkpt>
      <trkpt lat="45.883359387516975" lon="8.318565068766475">
        <ele>1412.79</ele>
        <time>2018-05-06T09:30:34Z</time>
      </trkpt>
      <trkpt lat="45.883363746106625" lon="8.318557105958462">
        <ele>1412.79</ele>
        <time>2018-05-06T09:30:43Z</time>
      </trkpt>
      <trkpt lat="45.883379252627492" lon="8.318514274433255">
        <ele>1413.76</ele>
        <time>2018-05-06T09:30:56Z</time>
      </trkpt>
      <trkpt lat="45.88340406306088" lon="8.318496504798532">
        <ele>1415.2</ele>
        <time>2018-05-06T09:31:03Z</time>
      </trkpt>
      <trkpt lat="45.883423089981079" lon="8.31848225556314">
        <ele>1416.6400000000001</ele>
        <time>2018-05-06T09:31:12Z</time>
      </trkpt>
      <trkpt lat="45.883457707241178" lon="8.318451158702374">
        <ele>1418.0799999999999</ele>
        <time>2018-05-06T09:31:22Z</time>
      </trkpt>
      <trkpt lat="45.88345586322248" lon="8.318462641909719">
        <ele>1418.0799999999999</ele>
        <time>2018-05-06T09:31:36Z</time>
      </trkpt>
      <trkpt lat="45.883450331166387" lon="8.3184221573174">
        <ele>1419.52</ele>
        <time>2018-05-06T09:31:46Z</time>
      </trkpt>
      <trkpt lat="45.883461898192763" lon="8.318397011607885">
        <ele>1420.49</ele>
        <time>2018-05-06T09:32:02Z</time>
      </trkpt>
      <trkpt lat="45.88349643163383" lon="8.318393575027585">
        <ele>1422.4100000000001</ele>
        <time>2018-05-06T09:32:13Z</time>
      </trkpt>
      <trkpt lat="45.883492324501276" lon="8.318366082385182">
        <ele>1424.3299999999999</ele>
        <time>2018-05-06T09:32:25Z</time>
      </trkpt>
      <trkpt lat="45.883517889305949" lon="8.318342361599207">
        <ele>1425.77</ele>
        <time>2018-05-06T09:32:34Z</time>
      </trkpt>
      <trkpt lat="45.883525684475899" lon="8.318349653854966">
        <ele>1426.25</ele>
        <time>2018-05-06T09:32:43Z</time>
      </trkpt>
      <trkpt lat="45.883534234017134" lon="8.318331465125084">
        <ele>1426.25</ele>
        <time>2018-05-06T09:32:52Z</time>
      </trkpt>
      <trkpt lat="45.883526606485248" lon="8.318314617499709">
        <ele>1427.7</ele>
        <time>2018-05-06T09:33:01Z</time>
      </trkpt>
      <trkpt lat="45.883516045287251" lon="8.318240437656641">
        <ele>1427.7</ele>
        <time>2018-05-06T09:33:11Z</time>
      </trkpt>
      <trkpt lat="45.883498275652528" lon="8.318199617788196">
        <ele>1430.0999999999999</ele>
        <time>2018-05-06T09:33:19Z</time>
      </trkpt>
      <trkpt lat="45.883532809093595" lon="8.318214286118746">
        <ele>1430.5799999999999</ele>
        <time>2018-05-06T09:33:29Z</time>
      </trkpt>
      <trkpt lat="45.883565749973059" lon="8.318226523697376">
        <ele>1431.54</ele>
        <time>2018-05-06T09:33:40Z</time>
      </trkpt>
      <trkpt lat="45.88355066254735" lon="8.318187464028597">
        <ele>1432.98</ele>
        <time>2018-05-06T09:33:50Z</time>
      </trkpt>
      <trkpt lat="45.883587626740336" lon="8.318161312490702">
        <ele>1433.9400000000001</ele>
        <time>2018-05-06T09:33:58Z</time>
      </trkpt>
      <trkpt lat="45.883587375283241" lon="8.31814999692142">
        <ele>1435.8699999999999</ele>
        <time>2018-05-06T09:34:08Z</time>
      </trkpt>
      <trkpt lat="45.883604139089584" lon="8.318137088790536">
        <ele>1437.3099999999999</ele>
        <time>2018-05-06T09:34:17Z</time>
      </trkpt>
      <trkpt lat="45.883618555963039" lon="8.318189727142453">
        <ele>1436.3499999999999</ele>
        <time>2018-05-06T09:34:24Z</time>
      </trkpt>
      <trkpt lat="45.883619897067547" lon="8.3181734662503">
        <ele>1436.3499999999999</ele>
        <time>2018-05-06T09:34:35Z</time>
      </trkpt>
      <trkpt lat="45.883618220686913" lon="8.318130550906062">
        <ele>1437.79</ele>
        <time>2018-05-06T09:34:46Z</time>
      </trkpt>
      <trkpt lat="45.883637079969049" lon="8.318052515387535">
        <ele>1439.71</ele>
        <time>2018-05-06T09:34:55Z</time>
      </trkpt>
      <trkpt lat="45.883676391094923" lon="8.31794966943562">
        <ele>1441.1500000000001</ele>
        <time>2018-05-06T09:35:04Z</time>
      </trkpt>
      <trkpt lat="45.883692232891917" lon="8.317902814596891">
        <ele>1442.5999999999999</ele>
        <time>2018-05-06T09:35:09Z</time>
      </trkpt>
      <trkpt lat="45.883696926757693" lon="8.317812625318766">
        <ele>1444.52</ele>
        <time>2018-05-06T09:35:18Z</time>
      </trkpt>
      <trkpt lat="45.883681084960699" lon="8.317790664732456">
        <ele>1445.48</ele>
        <time>2018-05-06T09:35:27Z</time>
      </trkpt>
      <trkpt lat="45.883669266477227" lon="8.317754622548819">
        <ele>1446.4400000000001</ele>
        <time>2018-05-06T09:35:36Z</time>
      </trkpt>
      <trkpt lat="45.88367479853332" lon="8.317707264795899">
        <ele>1447.8800000000001</ele>
        <time>2018-05-06T09:35:44Z</time>
      </trkpt>
      <trkpt lat="45.883675217628479" lon="8.31767164170742">
        <ele>1448.8399999999999</ele>
        <time>2018-05-06T09:35:54Z</time>
      </trkpt>
      <trkpt lat="45.88366792537272" lon="8.317623026669025">
        <ele>1450.29</ele>
        <time>2018-05-06T09:36:05Z</time>
      </trkpt>
      <trkpt lat="45.883677564561367" lon="8.317609028890729">
        <ele>1450.29</ele>
        <time>2018-05-06T09:36:15Z</time>
      </trkpt>
      <trkpt lat="45.883675133809447" lon="8.317579859867692">
        <ele>1451.73</ele>
        <time>2018-05-06T09:36:29Z</time>
      </trkpt>
      <trkpt lat="45.883686617016792" lon="8.317559994757175">
        <ele>1453.1700000000001</ele>
        <time>2018-05-06T09:36:37Z</time>
      </trkpt>
      <trkpt lat="45.883712433278561" lon="8.317551948130131">
        <ele>1454.6099999999999</ele>
        <time>2018-05-06T09:36:48Z</time>
      </trkpt>
      <trkpt lat="45.883712098002434" lon="8.317515067756176">
        <ele>1456.05</ele>
        <time>2018-05-06T09:36:59Z</time>
      </trkpt>
      <trkpt lat="45.883694915100932" lon="8.317497130483389">
        <ele>1457.5</ele>
        <time>2018-05-06T09:37:08Z</time>
      </trkpt>
      <trkpt lat="45.883687036111951" lon="8.317474750801921">
        <ele>1457.98</ele>
        <time>2018-05-06T09:37:20Z</time>
      </trkpt>
      <trkpt lat="45.883690388873219" lon="8.317465111613274">
        <ele>1458.46</ele>
        <time>2018-05-06T09:37:35Z</time>
      </trkpt>
      <trkpt lat="45.883692484349012" lon="8.317406103014946">
        <ele>1460.3800000000001</ele>
        <time>2018-05-06T09:37:44Z</time>
      </trkpt>
      <trkpt lat="45.88370212353766" lon="8.31737550906837">
        <ele>1462.3</ele>
        <time>2018-05-06T09:37:53Z</time>
      </trkpt>
      <trkpt lat="45.883701117709279" lon="8.317338544875383">
        <ele>1464.71</ele>
        <time>2018-05-06T09:38:01Z</time>
      </trkpt>
      <trkpt lat="45.883704554289579" lon="8.317325888201594">
        <ele>1464.71</ele>
        <time>2018-05-06T09:38:10Z</time>
      </trkpt>
      <trkpt lat="45.883692065253854" lon="8.317319434136152">
        <ele>1465.1900000000001</ele>
        <time>2018-05-06T09:38:19Z</time>
      </trkpt>
      <trkpt lat="45.883675385266542" lon="8.317314153537154">
        <ele>1465.1900000000001</ele>
        <time>2018-05-06T09:38:29Z</time>
      </trkpt>
      <trkpt lat="45.883656442165375" lon="8.317271489650011">
        <ele>1467.5899999999999</ele>
        <time>2018-05-06T09:38:37Z</time>
      </trkpt>
      <trkpt lat="45.883670272305608" lon="8.317254139110446">
        <ele>1468.55</ele>
        <time>2018-05-06T09:38:46Z</time>
      </trkpt>
      <trkpt lat="45.883687790483236" lon="8.317221282050014">
        <ele>1469.51</ele>
        <time>2018-05-06T09:38:55Z</time>
      </trkpt>
      <trkpt lat="45.88369675911963" lon="8.317192867398262">
        <ele>1470.95</ele>
        <time>2018-05-06T09:39:05Z</time>
      </trkpt>
      <trkpt lat="45.883691729977727" lon="8.317184736952186">
        <ele>1471.4400000000001</ele>
        <time>2018-05-06T09:39:07Z</time>
      </trkpt>
      <trkpt lat="45.883683431893587" lon="8.317137714475393">
        <ele>1472.4000000000001</ele>
        <time>2018-05-06T09:39:16Z</time>
      </trkpt>
      <trkpt lat="45.883672954514623" lon="8.317115418612957">
        <ele>1474.3199999999999</ele>
        <time>2018-05-06T09:39:23Z</time>
      </trkpt>
      <trkpt lat="45.883664237335324" lon="8.31709454767406">
        <ele>1474.8</ele>
        <time>2018-05-06T09:39:30Z</time>
      </trkpt>
      <trkpt lat="45.883657950907946" lon="8.317056158557534">
        <ele>1475.76</ele>
        <time>2018-05-06T09:39:38Z</time>
      </trkpt>
      <trkpt lat="45.883644288405776" lon="8.317035371437669">
        <ele>1477.2</ele>
        <time>2018-05-06T09:39:50Z</time>
      </trkpt>
      <trkpt lat="45.883643701672554" lon="8.316978039219976">
        <ele>1478.6500000000001</ele>
        <time>2018-05-06T09:39:59Z</time>
      </trkpt>
      <trkpt lat="45.883636241778731" lon="8.316944260150194">
        <ele>1480.5699999999999</ele>
        <time>2018-05-06T09:40:09Z</time>
      </trkpt>
      <trkpt lat="45.883637750521302" lon="8.316911654546857">
        <ele>1481.05</ele>
        <time>2018-05-06T09:40:16Z</time>
      </trkpt>
      <trkpt lat="45.883655101060867" lon="8.316898075863719">
        <ele>1482.01</ele>
        <time>2018-05-06T09:40:26Z</time>
      </trkpt>
      <trkpt lat="45.883660716935992" lon="8.316879468038678">
        <ele>1482.49</ele>
        <time>2018-05-06T09:40:34Z</time>
      </trkpt>
      <trkpt lat="45.883670020848513" lon="8.316850047558546">
        <ele>1484.4100000000001</ele>
        <time>2018-05-06T09:40:43Z</time>
      </trkpt>
      <trkpt lat="45.883669350296259" lon="8.316811490803957">
        <ele>1485.3699999999999</ele>
        <time>2018-05-06T09:40:51Z</time>
      </trkpt>
      <trkpt lat="45.883665326982737" lon="8.316759523004293">
        <ele>1488.26</ele>
        <time>2018-05-06T09:41:02Z</time>
      </trkpt>
      <trkpt lat="45.883693071082234" lon="8.316758684813976">
        <ele>1488.26</ele>
        <time>2018-05-06T09:41:16Z</time>
      </trkpt>
      <trkpt lat="45.883715283125639" lon="8.316725827753544">
        <ele>1489.7</ele>
        <time>2018-05-06T09:41:25Z</time>
      </trkpt>
      <trkpt lat="45.883693071082234" lon="8.316712835803628">
        <ele>1491.6199999999999</ele>
        <time>2018-05-06T09:41:37Z</time>
      </trkpt>
      <trkpt lat="45.883679743856192" lon="8.316659862175584">
        <ele>1491.6199999999999</ele>
        <time>2018-05-06T09:41:47Z</time>
      </trkpt>
      <trkpt lat="45.883672451600432" lon="8.316635554656386">
        <ele>1493.55</ele>
        <time>2018-05-06T09:41:54Z</time>
      </trkpt>
      <trkpt lat="45.883684437721968" lon="8.316615102812648">
        <ele>1494.51</ele>
        <time>2018-05-06T09:42:05Z</time>
      </trkpt>
      <trkpt lat="45.883693657815456" lon="8.316583586856723">
        <ele>1496.4300000000001</ele>
        <time>2018-05-06T09:42:14Z</time>
      </trkpt>
      <trkpt lat="45.883703213185072" lon="8.316549556329846">
        <ele>1497.3900000000001</ele>
        <time>2018-05-06T09:42:25Z</time>
      </trkpt>
      <trkpt lat="45.883723078295588" lon="8.316528517752886">
        <ele>1498.3499999999999</ele>
        <time>2018-05-06T09:42:37Z</time>
      </trkpt>
      <trkpt lat="45.883723497390747" lon="8.316512508317828">
        <ele>1497.8699999999999</ele>
        <time>2018-05-06T09:42:46Z</time>
      </trkpt>
      <trkpt lat="45.883732466027141" lon="8.316463809460402">
        <ele>1499.79</ele>
        <time>2018-05-06T09:42:57Z</time>
      </trkpt>
      <trkpt lat="45.88374369777739" lon="8.316419133916497">
        <ele>1502.2</ele>
        <time>2018-05-06T09:43:07Z</time>
      </trkpt>
      <trkpt lat="45.883764149621129" lon="8.316427767276764">
        <ele>1502.2</ele>
        <time>2018-05-06T09:43:17Z</time>
      </trkpt>
      <trkpt lat="45.883757192641497" lon="8.316393736749888">
        <ele>1504.1199999999999</ele>
        <time>2018-05-06T09:43:28Z</time>
      </trkpt>
      <trkpt lat="45.883757695555687" lon="8.316368674859405">
        <ele>1504.5999999999999</ele>
        <time>2018-05-06T09:43:39Z</time>
      </trkpt>
      <trkpt lat="45.883754761889577" lon="8.316342607140541">
        <ele>1506.04</ele>
        <time>2018-05-06T09:43:50Z</time>
      </trkpt>
      <trkpt lat="45.883759874850512" lon="8.316304469481111">
        <ele>1507.48</ele>
        <time>2018-05-06T09:44:00Z</time>
      </trkpt>
      <trkpt lat="45.88377445936203" lon="8.31625510007143">
        <ele>1508.9300000000001</ele>
        <time>2018-05-06T09:44:10Z</time>
      </trkpt>
      <trkpt lat="45.883777644485235" lon="8.316221991553903">
        <ele>1509.8900000000001</ele>
        <time>2018-05-06T09:44:22Z</time>
      </trkpt>
      <trkpt lat="45.883772447705269" lon="8.316189553588629">
        <ele>1510.8499999999999</ele>
        <time>2018-05-06T09:44:32Z</time>
      </trkpt>
      <trkpt lat="45.88378326036036" lon="8.316167760640383">
        <ele>1511.8099999999999</ele>
        <time>2018-05-06T09:44:42Z</time>
      </trkpt>
      <trkpt lat="45.883791642263532" lon="8.316154517233372">
        <ele>1512.29</ele>
        <time>2018-05-06T09:44:51Z</time>
      </trkpt>
      <trkpt lat="45.883810920640826" lon="8.316142447292805">
        <ele>1512.77</ele>
        <time>2018-05-06T09:45:03Z</time>
      </trkpt>
      <trkpt lat="45.88382282294333" lon="8.316135322675109">
        <ele>1513.73</ele>
        <time>2018-05-06T09:45:06Z</time>
      </trkpt>
      <trkpt lat="45.88382676243782" lon="8.31610506400466">
        <ele>1514.6900000000001</ele>
        <time>2018-05-06T09:45:14Z</time>
      </trkpt>
      <trkpt lat="45.883848890662193" lon="8.316076816990972">
        <ele>1515.6600000000001</ele>
        <time>2018-05-06T09:45:27Z</time>
      </trkpt>
      <trkpt lat="45.883860038593411" lon="8.316061310470104">
        <ele>1517.0999999999999</ele>
        <time>2018-05-06T09:45:36Z</time>
      </trkpt>
      <trkpt lat="45.883868923410773" lon="8.316043708473444">
        <ele>1518.0599999999999</ele>
        <time>2018-05-06T09:45:46Z</time>
      </trkpt>
      <trkpt lat="45.883869007229805" lon="8.316007414832711">
        <ele>1519.02</ele>
        <time>2018-05-06T09:45:54Z</time>
      </trkpt>
      <trkpt lat="45.883888117969036" lon="8.315976317971945">
        <ele>1520.46</ele>
        <time>2018-05-06T09:46:03Z</time>
      </trkpt>
      <trkpt lat="45.883894488215446" lon="8.315953016281128">
        <ele>1520.9400000000001</ele>
        <time>2018-05-06T09:46:14Z</time>
      </trkpt>
      <trkpt lat="45.88390295393765" lon="8.315892163664103">
        <ele>1522.8699999999999</ele>
        <time>2018-05-06T09:46:22Z</time>
      </trkpt>
      <trkpt lat="45.883925333619118" lon="8.315835082903504">
        <ele>1524.3099999999999</ele>
        <time>2018-05-06T09:46:31Z</time>
      </trkpt>
      <trkpt lat="45.883921477943659" lon="8.315783785656095">
        <ele>1526.23</ele>
        <time>2018-05-06T09:46:42Z</time>
      </trkpt>
      <trkpt lat="45.883940169587731" lon="8.315791161730886">
        <ele>1525.27</ele>
        <time>2018-05-06T09:46:51Z</time>
      </trkpt>
      <trkpt lat="45.883933631703258" lon="8.315793173387647">
        <ele>1525.27</ele>
        <time>2018-05-06T09:47:07Z</time>
      </trkpt>
      <trkpt lat="45.883933631703258" lon="8.315808260813355">
        <ele>1525.27</ele>
        <time>2018-05-06T09:47:30Z</time>
      </trkpt>
      <trkpt lat="45.883936062455177" lon="8.315813038498163">
        <ele>1524.79</ele>
        <time>2018-05-06T09:47:57Z</time>
      </trkpt>
      <trkpt lat="45.883928937837481" lon="8.315822258591652">
        <ele>1524.79</ele>
        <time>2018-05-06T09:48:23Z</time>
      </trkpt>
      <trkpt lat="45.883927345275879" lon="8.315829634666443">
        <ele>1525.27</ele>
        <time>2018-05-06T09:48:49Z</time>
      </trkpt>
      <trkpt lat="45.883927429094911" lon="8.315823515877128">
        <ele>1525.75</ele>
        <time>2018-05-06T09:49:16Z</time>
      </trkpt>
      <trkpt lat="45.883930698037148" lon="8.315821420401335">
        <ele>1525.75</ele>
        <time>2018-05-06T09:49:49Z</time>
      </trkpt>
      <trkpt lat="45.88392642326653" lon="8.315818989649415">
        <ele>1525.75</ele>
        <time>2018-05-06T09:50:20Z</time>
      </trkpt>
      <trkpt lat="45.883927848190069" lon="8.315822426229715">
        <ele>1525.75</ele>
        <time>2018-05-06T09:50:50Z</time>
      </trkpt>
      <trkpt lat="45.883928015828133" lon="8.315818570554256">
        <ele>1526.23</ele>
        <time>2018-05-06T09:51:19Z</time>
      </trkpt>
      <trkpt lat="45.883934050798416" lon="8.315817061811686">
        <ele>1525.75</ele>
        <time>2018-05-06T09:51:44Z</time>
      </trkpt>
      <trkpt lat="45.883935140445828" lon="8.315817480906844">
        <ele>1526.23</ele>
        <time>2018-05-06T09:52:06Z</time>
      </trkpt>
      <trkpt lat="45.883938493207097" lon="8.315804237499833">
        <ele>1526.23</ele>
        <time>2018-05-06T09:52:26Z</time>
      </trkpt>
      <trkpt lat="45.883946875110269" lon="8.315801555290818">
        <ele>1526.23</ele>
        <time>2018-05-06T09:52:58Z</time>
      </trkpt>
      <trkpt lat="45.883925165981054" lon="8.315823096781969">
        <ele>1526.23</ele>
        <time>2018-05-06T09:53:25Z</time>
      </trkpt>
      <trkpt lat="45.88392005302012" lon="8.315812284126878">
        <ele>1527.6700000000001</ele>
        <time>2018-05-06T09:53:52Z</time>
      </trkpt>
      <trkpt lat="45.883916197344661" lon="8.315794179216027">
        <ele>1527.1900000000001</ele>
        <time>2018-05-06T09:54:04Z</time>
      </trkpt>
      <trkpt lat="45.883913598954678" lon="8.315784204751253">
        <ele>1527.6700000000001</ele>
        <time>2018-05-06T09:54:21Z</time>
      </trkpt>
      <trkpt lat="45.883951066061854" lon="8.315774230286479">
        <ele>1528.6300000000001</ele>
        <time>2018-05-06T09:54:33Z</time>
      </trkpt>
      <trkpt lat="45.883955676108599" lon="8.315742798149586">
        <ele>1529.5899999999999</ele>
        <time>2018-05-06T09:54:40Z</time>
      </trkpt>
      <trkpt lat="45.884001022204757" lon="8.315722933039069">
        <ele>1530.5599999999999</ele>
        <time>2018-05-06T09:54:48Z</time>
      </trkpt>
      <trkpt lat="45.884029436856508" lon="8.315640706568956">
        <ele>1532</ele>
        <time>2018-05-06T09:54:59Z</time>
      </trkpt>
      <trkpt lat="45.884053409099579" lon="8.315574154257774">
        <ele>1534.4000000000001</ele>
        <time>2018-05-06T09:55:09Z</time>
      </trkpt>
      <trkpt lat="45.884065814316273" lon="8.315509362146258">
        <ele>1536.3199999999999</ele>
        <time>2018-05-06T09:55:18Z</time>
      </trkpt>
      <trkpt lat="45.884115938097239" lon="8.315480863675475">
        <ele>1537.77</ele>
        <time>2018-05-06T09:55:27Z</time>
      </trkpt>
      <trkpt lat="45.884112836793065" lon="8.315437193959951">
        <ele>1538.25</ele>
        <time>2018-05-06T09:55:34Z</time>
      </trkpt>
      <trkpt lat="45.884116441011429" lon="8.315359996631742">
        <ele>1541.1300000000001</ele>
        <time>2018-05-06T09:55:46Z</time>
      </trkpt>
      <trkpt lat="45.884130019694567" lon="8.315304424613714">
        <ele>1542.0899999999999</ele>
        <time>2018-05-06T09:55:54Z</time>
      </trkpt>
      <trkpt lat="45.884136892855167" lon="8.315308364108205">
        <ele>1543.05</ele>
        <time>2018-05-06T09:56:06Z</time>
      </trkpt>
      <trkpt lat="45.884135887026787" lon="8.315258072689176">
        <ele>1544.01</ele>
        <time>2018-05-06T09:56:15Z</time>
      </trkpt>
      <trkpt lat="45.884133037179708" lon="8.31519185565412">
        <ele>1546.4200000000001</ele>
        <time>2018-05-06T09:56:25Z</time>
      </trkpt>
      <trkpt lat="45.884158099070191" lon="8.315145000815392">
        <ele>1547.3800000000001</ele>
        <time>2018-05-06T09:56:33Z</time>
      </trkpt>
      <trkpt lat="45.88416488841176" lon="8.315115747973323">
        <ele>1548.8199999999999</ele>
        <time>2018-05-06T09:56:44Z</time>
      </trkpt>
      <trkpt lat="45.884199421852827" lon="8.315107533708215">
        <ele>1550.26</ele>
        <time>2018-05-06T09:56:52Z</time>
      </trkpt>
      <trkpt lat="45.884227333590388" lon="8.315086327493191">
        <ele>1551.22</ele>
        <time>2018-05-06T09:56:58Z</time>
      </trkpt>
      <trkpt lat="45.884262286126614" lon="8.315056655555964">
        <ele>1552.6700000000001</ele>
        <time>2018-05-06T09:57:07Z</time>
      </trkpt>
      <trkpt lat="45.884268488734961" lon="8.315014913678169">
        <ele>1553.6300000000001</ele>
        <time>2018-05-06T09:57:15Z</time>
      </trkpt>
      <trkpt lat="45.88425382040441" lon="8.314939644187689">
        <ele>1556.51</ele>
        <time>2018-05-06T09:57:25Z</time>
      </trkpt>
      <trkpt lat="45.884238230064511" lon="8.314868565648794">
        <ele>1558.9200000000001</ele>
        <time>2018-05-06T09:57:34Z</time>
      </trkpt>
      <trkpt lat="45.884257843717933" lon="8.314819196239114">
        <ele>1559.4000000000001</ele>
        <time>2018-05-06T09:57:45Z</time>
      </trkpt>
      <trkpt lat="45.884259939193726" lon="8.3147266600281">
        <ele>1561.8</ele>
        <time>2018-05-06T09:57:54Z</time>
      </trkpt>
      <trkpt lat="45.884252227842808" lon="8.31463186070323">
        <ele>1563.72</ele>
        <time>2018-05-06T09:58:03Z</time>
      </trkpt>
      <trkpt lat="45.884244684129953" lon="8.314595986157656">
        <ele>1564.2</ele>
        <time>2018-05-06T09:58:06Z</time>
      </trkpt>
      <trkpt lat="45.884230183437467" lon="8.314578887075186">
        <ele>1564.2</ele>
        <time>2018-05-06T09:58:08Z</time>
      </trkpt>
      <trkpt lat="45.884230099618435" lon="8.314510239288211">
        <ele>1566.6099999999999</ele>
        <time>2018-05-06T09:58:15Z</time>
      </trkpt>
      <trkpt lat="45.884184585884213" lon="8.314431952312589">
        <ele>1567.5699999999999</ele>
        <time>2018-05-06T09:58:24Z</time>
      </trkpt>
      <trkpt lat="45.884145274758339" lon="8.314338494092226">
        <ele>1568.53</ele>
        <time>2018-05-06T09:58:34Z</time>
      </trkpt>
      <trkpt lat="45.884135970845819" lon="8.314246544614434">
        <ele>1570.9300000000001</ele>
        <time>2018-05-06T09:58:44Z</time>
      </trkpt>
      <trkpt lat="45.884107807651162" lon="8.314188374206424">
        <ele>1571.4100000000001</ele>
        <time>2018-05-06T09:58:51Z</time>
      </trkpt>
      <trkpt lat="45.88408718816936" lon="8.314106650650501">
        <ele>1573.3299999999999</ele>
        <time>2018-05-06T09:58:59Z</time>
      </trkpt>
      <trkpt lat="45.884069250896573" lon="8.314022580161691">
        <ele>1575.26</ele>
        <time>2018-05-06T09:59:09Z</time>
      </trkpt>
      <trkpt lat="45.88406179100275" lon="8.313930965960026">
        <ele>1577.1800000000001</ele>
        <time>2018-05-06T09:59:18Z</time>
      </trkpt>
      <trkpt lat="45.884062293916941" lon="8.313919650390744">
        <ele>1577.1800000000001</ele>
        <time>2018-05-06T09:59:19Z</time>
      </trkpt>
      <trkpt lat="45.884061623364687" lon="8.31390867009759">
        <ele>1577.1800000000001</ele>
        <time>2018-05-06T09:59:20Z</time>
      </trkpt>
      <trkpt lat="45.884056007489562" lon="8.313769111409783">
        <ele>1579.5799999999999</ele>
        <time>2018-05-06T09:59:31Z</time>
      </trkpt>
      <trkpt lat="45.884072938933969" lon="8.313651932403445">
        <ele>1580.0599999999999</ele>
        <time>2018-05-06T09:59:40Z</time>
      </trkpt>
      <trkpt lat="45.884099425747991" lon="8.313550092279911">
        <ele>1580.54</ele>
        <time>2018-05-06T09:59:49Z</time>
      </trkpt>
      <trkpt lat="45.884096911177039" lon="8.313539950177074">
        <ele>1580.54</ele>
        <time>2018-05-06T09:59:50Z</time>
      </trkpt>
      <trkpt lat="45.884096240624785" lon="8.313400559127331">
        <ele>1583.9100000000001</ele>
        <time>2018-05-06T10:00:02Z</time>
      </trkpt>
      <trkpt lat="45.884091798216105" lon="8.313280949369073">
        <ele>1585.3499999999999</ele>
        <time>2018-05-06T10:00:12Z</time>
      </trkpt>
      <trkpt lat="45.884074028581381" lon="8.313178941607475">
        <ele>1587.27</ele>
        <time>2018-05-06T10:00:20Z</time>
      </trkpt>
      <trkpt lat="45.884056510403752" lon="8.313048351556063">
        <ele>1589.2</ele>
        <time>2018-05-06T10:00:32Z</time>
      </trkpt>
      <trkpt lat="45.884031029418111" lon="8.312938967719674">
        <ele>1591.1199999999999</ele>
        <time>2018-05-06T10:00:42Z</time>
      </trkpt>
      <trkpt lat="45.884004374966025" lon="8.312841653823853">
        <ele>1593.04</ele>
        <time>2018-05-06T10:00:52Z</time>
      </trkpt>
      <trkpt lat="45.88400412350893" lon="8.312777616083622">
        <ele>1593.52</ele>
        <time>2018-05-06T10:01:00Z</time>
      </trkpt>
      <trkpt lat="45.884023234248161" lon="8.31277116201818">
        <ele>1593.52</ele>
        <time>2018-05-06T10:01:15Z</time>
      </trkpt>
      <trkpt lat="45.883996915072203" lon="8.312759008258581">
        <ele>1593.52</ele>
        <time>2018-05-06T10:01:28Z</time>
      </trkpt>
      <trkpt lat="45.88398409076035" lon="8.312739059329033">
        <ele>1593.52</ele>
        <time>2018-05-06T10:01:30Z</time>
      </trkpt>
      <trkpt lat="45.883971098810434" lon="8.312714416533709">
        <ele>1594</ele>
        <time>2018-05-06T10:01:32Z</time>
      </trkpt>
      <trkpt lat="45.883924495428801" lon="8.312559854239225">
        <ele>1594</ele>
        <time>2018-05-06T10:01:42Z</time>
      </trkpt>
      <trkpt lat="45.88391468860209" lon="8.312480812892318">
        <ele>1594.96</ele>
        <time>2018-05-06T10:01:47Z</time>
      </trkpt>
      <trkpt lat="45.883911335840821" lon="8.312454912811518">
        <ele>1595.9300000000001</ele>
        <time>2018-05-06T10:01:49Z</time>
      </trkpt>
      <trkpt lat="45.883906474336982" lon="8.312351228669286">
        <ele>1595.45</ele>
        <time>2018-05-06T10:01:55Z</time>
      </trkpt>
      <trkpt lat="45.883865067735314" lon="8.312164647504687">
        <ele>1597.3699999999999</ele>
        <time>2018-05-06T10:02:07Z</time>
      </trkpt>
      <trkpt lat="45.883824666962028" lon="8.312086360529065">
        <ele>1596.8900000000001</ele>
        <time>2018-05-06T10:02:13Z</time>
      </trkpt>
      <trkpt lat="45.883757947012782" lon="8.311981586739421">
        <ele>1600.25</ele>
        <time>2018-05-06T10:02:24Z</time>
      </trkpt>
      <trkpt lat="45.883739925920963" lon="8.311951914802194">
        <ele>1600.73</ele>
        <time>2018-05-06T10:02:28Z</time>
      </trkpt>
      <trkpt lat="45.88373732753098" lon="8.31183884292841">
        <ele>1603.6199999999999</ele>
        <time>2018-05-06T10:02:37Z</time>
      </trkpt>
      <trkpt lat="45.883711175993085" lon="8.311744797974825">
        <ele>1606.02</ele>
        <time>2018-05-06T10:02:47Z</time>
      </trkpt>
      <trkpt lat="45.883705979213119" lon="8.311679000034928">
        <ele>1607.46</ele>
        <time>2018-05-06T10:02:54Z</time>
      </trkpt>
      <trkpt lat="45.883687622845173" lon="8.311593672260642">
        <ele>1608.4200000000001</ele>
        <time>2018-05-06T10:03:04Z</time>
      </trkpt>
      <trkpt lat="45.883686281740665" lon="8.311589313670993">
        <ele>1608.9000000000001</ele>
        <time>2018-05-06T10:03:05Z</time>
      </trkpt>
      <trkpt lat="45.883682342246175" lon="8.311512200161815">
        <ele>1610.8299999999999</ele>
        <time>2018-05-06T10:03:13Z</time>
      </trkpt>
      <trkpt lat="45.883694244548678" lon="8.31141471862793">
        <ele>1613.23</ele>
        <time>2018-05-06T10:03:23Z</time>
      </trkpt>
      <trkpt lat="45.883676642552018" lon="8.311349507421255">
        <ele>1615.1500000000001</ele>
        <time>2018-05-06T10:03:32Z</time>
      </trkpt>
      <trkpt lat="45.883647724986076" lon="8.311296449974179">
        <ele>1615.6300000000001</ele>
        <time>2018-05-06T10:03:39Z</time>
      </trkpt>
      <trkpt lat="45.88363179937005" lon="8.311230149120092">
        <ele>1617.0699999999999</ele>
        <time>2018-05-06T10:03:48Z</time>
      </trkpt>
      <trkpt lat="45.883615706115961" lon="8.311147503554821">
        <ele>1618.04</ele>
        <time>2018-05-06T10:03:57Z</time>
      </trkpt>
      <trkpt lat="45.883600618690252" lon="8.311084639281035">
        <ele>1619</ele>
        <time>2018-05-06T10:04:04Z</time>
      </trkpt>
      <trkpt lat="45.883605312556028" lon="8.310981290414929">
        <ele>1622.3599999999999</ele>
        <time>2018-05-06T10:04:14Z</time>
      </trkpt>
      <trkpt lat="45.883624339476228" lon="8.31088850274682">
        <ele>1623.3199999999999</ele>
        <time>2018-05-06T10:04:23Z</time>
      </trkpt>
      <trkpt lat="45.883614113554358" lon="8.310795966535807">
        <ele>1624.28</ele>
        <time>2018-05-06T10:04:33Z</time>
      </trkpt>
      <trkpt lat="45.883609838783741" lon="8.310788171365857">
        <ele>1624.28</ele>
        <time>2018-05-06T10:04:34Z</time>
      </trkpt>
      <trkpt lat="45.883606402203441" lon="8.310677781701088">
        <ele>1626.21</ele>
        <time>2018-05-06T10:04:43Z</time>
      </trkpt>
      <trkpt lat="45.883604558184743" lon="8.310655653476715">
        <ele>1626.6900000000001</ele>
        <time>2018-05-06T10:04:45Z</time>
      </trkpt>
      <trkpt lat="45.883607659488916" lon="8.310630172491074">
        <ele>1627.1700000000001</ele>
        <time>2018-05-06T10:04:47Z</time>
      </trkpt>
      <trkpt lat="45.883600115776062" lon="8.310510981827974">
        <ele>1628.1300000000001</ele>
        <time>2018-05-06T10:04:57Z</time>
      </trkpt>
      <trkpt lat="45.883600953966379" lon="8.310396317392588">
        <ele>1630.05</ele>
        <time>2018-05-06T10:05:08Z</time>
      </trkpt>
      <trkpt lat="45.883606318384409" lon="8.310292381793261">
        <ele>1631.49</ele>
        <time>2018-05-06T10:05:18Z</time>
      </trkpt>
      <trkpt lat="45.883609335869551" lon="8.310263883322477">
        <ele>1631.98</ele>
        <time>2018-05-06T10:05:20Z</time>
      </trkpt>
      <trkpt lat="45.883607659488916" lon="8.310147626325488">
        <ele>1632.9400000000001</ele>
        <time>2018-05-06T10:05:30Z</time>
      </trkpt>
      <trkpt lat="45.883607072755694" lon="8.310135137289763">
        <ele>1633.9000000000001</ele>
        <time>2018-05-06T10:05:31Z</time>
      </trkpt>
      <trkpt lat="45.883599109947681" lon="8.310016617178917">
        <ele>1635.8199999999999</ele>
        <time>2018-05-06T10:05:41Z</time>
      </trkpt>
      <trkpt lat="45.883602714166045" lon="8.309933133423328">
        <ele>1637.26</ele>
        <time>2018-05-06T10:05:49Z</time>
      </trkpt>
      <trkpt lat="45.883583184331656" lon="8.309856941923499">
        <ele>1638.7</ele>
        <time>2018-05-06T10:05:58Z</time>
      </trkpt>
      <trkpt lat="45.883560050278902" lon="8.309812601655722">
        <ele>1639.6700000000001</ele>
        <time>2018-05-06T10:06:07Z</time>
      </trkpt>
      <trkpt lat="45.883528366684914" lon="8.309736913070083">
        <ele>1641.5899999999999</ele>
        <time>2018-05-06T10:06:17Z</time>
      </trkpt>
      <trkpt lat="45.883522080257535" lon="8.309702211990953">
        <ele>1642.55</ele>
        <time>2018-05-06T10:06:32Z</time>
      </trkpt>
      <trkpt lat="45.883521242067218" lon="8.309643873944879">
        <ele>1642.55</ele>
        <time>2018-05-06T10:06:43Z</time>
      </trkpt>
      <trkpt lat="45.883526606485248" lon="8.309645298868418">
        <ele>1642.55</ele>
        <time>2018-05-06T10:06:55Z</time>
      </trkpt>
      <trkpt lat="45.883536832407117" lon="8.309638006612659">
        <ele>1643.03</ele>
        <time>2018-05-06T10:07:05Z</time>
      </trkpt>
      <trkpt lat="45.883524008095264" lon="8.30960288643837">
        <ele>1642.55</ele>
        <time>2018-05-06T10:07:14Z</time>
      </trkpt>
      <trkpt lat="45.883526606485248" lon="8.309603054076433">
        <ele>1643.51</ele>
        <time>2018-05-06T10:07:27Z</time>
      </trkpt>
      <trkpt lat="45.883592655882239" lon="8.309583021327853">
        <ele>1643.51</ele>
        <time>2018-05-06T10:07:37Z</time>
      </trkpt>
      <trkpt lat="45.883601289242506" lon="8.309612022712827">
        <ele>1643.03</ele>
        <time>2018-05-06T10:07:46Z</time>
      </trkpt>
      <trkpt lat="45.883582681417465" lon="8.309652172029018">
        <ele>1643.03</ele>
        <time>2018-05-06T10:08:00Z</time>
      </trkpt>
      <trkpt lat="45.883575892075896" lon="8.309664661064744">
        <ele>1643.51</ele>
        <time>2018-05-06T10:08:17Z</time>
      </trkpt>
      <trkpt lat="45.883576311171055" lon="8.309659631922841">
        <ele>1642.0699999999999</ele>
        <time>2018-05-06T10:08:19Z</time>
      </trkpt>
      <trkpt lat="45.88358192704618" lon="8.30963708460331">
        <ele>1643.99</ele>
        <time>2018-05-06T10:08:25Z</time>
      </trkpt>
      <trkpt lat="45.883587542921305" lon="8.309600790962577">
        <ele>1643.03</ele>
        <time>2018-05-06T10:08:37Z</time>
      </trkpt>
      <trkpt lat="45.883590476587415" lon="8.309620236977935">
        <ele>1643.03</ele>
        <time>2018-05-06T10:08:55Z</time>
      </trkpt>
      <trkpt lat="45.883584441617131" lon="8.309638928622007">
        <ele>1643.99</ele>
        <time>2018-05-06T10:09:14Z</time>
      </trkpt>
      <trkpt lat="45.883605815470219" lon="8.309636665508151">
        <ele>1642.55</ele>
        <time>2018-05-06T10:09:23Z</time>
      </trkpt>
      <trkpt lat="45.883602881804109" lon="8.309673126786947">
        <ele>1642.55</ele>
        <time>2018-05-06T10:09:42Z</time>
      </trkpt>
      <trkpt lat="45.883595673367381" lon="8.309673964977264">
        <ele>1642.55</ele>
        <time>2018-05-06T10:10:09Z</time>
      </trkpt>
      <trkpt lat="45.883598355576396" lon="8.309677317738533">
        <ele>1642.55</ele>
        <time>2018-05-06T10:10:41Z</time>
      </trkpt>
      <trkpt lat="45.883599361404777" lon="8.309679413214326">
        <ele>1642.55</ele>
        <time>2018-05-06T10:11:06Z</time>
      </trkpt>
      <trkpt lat="45.88360003195703" lon="8.309682765975595">
        <ele>1643.03</ele>
        <time>2018-05-06T10:11:22Z</time>
      </trkpt>
      <trkpt lat="45.88359952904284" lon="8.309678072109819">
        <ele>1642.55</ele>
        <time>2018-05-06T10:11:48Z</time>
      </trkpt>
      <trkpt lat="45.88360489346087" lon="8.309663152322173">
        <ele>1642.55</ele>
        <time>2018-05-06T10:12:19Z</time>
      </trkpt>
      <trkpt lat="45.883606234565377" lon="8.309661727398634">
        <ele>1643.03</ele>
        <time>2018-05-06T10:12:53Z</time>
      </trkpt>
      <trkpt lat="45.883598271757364" lon="8.309671115130186">
        <ele>1643.03</ele>
        <time>2018-05-06T10:13:18Z</time>
      </trkpt>
      <trkpt lat="45.883600870147347" lon="8.309667594730854">
        <ele>1643.03</ele>
        <time>2018-05-06T10:13:41Z</time>
      </trkpt>
      <trkpt lat="45.883606653660536" lon="8.30966399051249">
        <ele>1643.03</ele>
        <time>2018-05-06T10:14:17Z</time>
      </trkpt>
      <trkpt lat="45.883607072755694" lon="8.309669438749552">
        <ele>1643.03</ele>
        <time>2018-05-06T10:14:58Z</time>
      </trkpt>
      <trkpt lat="45.883603803813457" lon="8.309669606387615">
        <ele>1643.03</ele>
        <time>2018-05-06T10:15:26Z</time>
      </trkpt>
      <trkpt lat="45.883602797985077" lon="8.309670360758901">
        <ele>1643.51</ele>
        <time>2018-05-06T10:16:00Z</time>
      </trkpt>
      <trkpt lat="45.883603636175394" lon="8.309667091816664">
        <ele>1643.51</ele>
        <time>2018-05-06T10:16:30Z</time>
      </trkpt>
      <trkpt lat="45.883603887632489" lon="8.30966399051249">
        <ele>1643.51</ele>
        <time>2018-05-06T10:17:07Z</time>
      </trkpt>
      <trkpt lat="45.883604306727648" lon="8.309657452628017">
        <ele>1643.51</ele>
        <time>2018-05-06T10:17:50Z</time>
      </trkpt>
      <trkpt lat="45.883609168231487" lon="8.30965569242835">
        <ele>1643.51</ele>
        <time>2018-05-06T10:18:27Z</time>
      </trkpt>
      <trkpt lat="45.883605144917965" lon="8.309659045189619">
        <ele>1643.51</ele>
        <time>2018-05-06T10:18:56Z</time>
      </trkpt>
      <trkpt lat="45.883603887632489" lon="8.309661392122507">
        <ele>1643.51</ele>
        <time>2018-05-06T10:19:31Z</time>
      </trkpt>
      <trkpt lat="45.883602881804109" lon="8.309655776247382">
        <ele>1643.51</ele>
        <time>2018-05-06T10:19:58Z</time>
      </trkpt>
      <trkpt lat="45.883611934259534" lon="8.309659129008651">
        <ele>1643.51</ele>
        <time>2018-05-06T10:20:32Z</time>
      </trkpt>
      <trkpt lat="45.883611347526312" lon="8.30966105684638">
        <ele>1643.51</ele>
        <time>2018-05-06T10:21:03Z</time>
      </trkpt>
      <trkpt lat="45.883612018078566" lon="8.309658542275429">
        <ele>1643.51</ele>
        <time>2018-05-06T10:21:41Z</time>
      </trkpt>
      <trkpt lat="45.883608916774392" lon="8.309658793732524">
        <ele>1643.51</ele>
        <time>2018-05-06T10:22:02Z</time>
      </trkpt>
      <trkpt lat="45.88361612521112" lon="8.309653261676431">
        <ele>1643.99</ele>
        <time>2018-05-06T10:22:33Z</time>
      </trkpt>
      <trkpt lat="45.883610593155026" lon="8.30965418368578">
        <ele>1643.99</ele>
        <time>2018-05-06T10:23:06Z</time>
      </trkpt>
      <trkpt lat="45.883615035563707" lon="8.309656195342541">
        <ele>1643.99</ele>
        <time>2018-05-06T10:23:41Z</time>
      </trkpt>
      <trkpt lat="45.883616209030151" lon="8.309659129008651">
        <ele>1643.99</ele>
        <time>2018-05-06T10:24:06Z</time>
      </trkpt>
      <trkpt lat="45.883613443002105" lon="8.309652423486114">
        <ele>1644.47</ele>
        <time>2018-05-06T10:24:33Z</time>
      </trkpt>
      <trkpt lat="45.883616041392088" lon="8.309659883379936">
        <ele>1644.47</ele>
        <time>2018-05-06T10:25:00Z</time>
      </trkpt>
      <trkpt lat="45.883610593155026" lon="8.309656865894795">
        <ele>1644.47</ele>
        <time>2018-05-06T10:25:28Z</time>
      </trkpt>
      <trkpt lat="45.883612185716629" lon="8.309657033532858">
        <ele>1644.47</ele>
        <time>2018-05-06T10:25:52Z</time>
      </trkpt>
      <trkpt lat="45.883611850440502" lon="8.309652591124177">
        <ele>1644.47</ele>
        <time>2018-05-06T10:26:34Z</time>
      </trkpt>
      <trkpt lat="45.88360883295536" lon="8.309657284989953">
        <ele>1644.47</ele>
        <time>2018-05-06T10:27:09Z</time>
      </trkpt>
      <trkpt lat="45.883612688630819" lon="8.309659296646714">
        <ele>1644.47</ele>
        <time>2018-05-06T10:27:38Z</time>
      </trkpt>
      <trkpt lat="45.88360589928925" lon="8.309662230312824">
        <ele>1644.95</ele>
        <time>2018-05-06T10:28:13Z</time>
      </trkpt>
      <trkpt lat="45.883605983108282" lon="8.309661978855729">
        <ele>1644.95</ele>
        <time>2018-05-06T10:28:47Z</time>
      </trkpt>
      <trkpt lat="45.883608581498265" lon="8.309666672721505">
        <ele>1644.95</ele>
        <time>2018-05-06T10:29:32Z</time>
      </trkpt>
      <trkpt lat="45.883609838783741" lon="8.309659967198968">
        <ele>1644.95</ele>
        <time>2018-05-06T10:30:16Z</time>
      </trkpt>
      <trkpt lat="45.883610928431153" lon="8.309664325788617">
        <ele>1644.95</ele>
        <time>2018-05-06T10:30:47Z</time>
      </trkpt>
      <trkpt lat="45.883608497679234" lon="8.309634989127517">
        <ele>1644.95</ele>
        <time>2018-05-06T10:31:04Z</time>
      </trkpt>
      <trkpt lat="45.883606486022472" lon="8.309636414051056">
        <ele>1644.95</ele>
        <time>2018-05-06T10:31:33Z</time>
      </trkpt>
      <trkpt lat="45.883604809641838" lon="8.309635324403644">
        <ele>1645.4300000000001</ele>
        <time>2018-05-06T10:32:06Z</time>
      </trkpt>
      <trkpt lat="45.883608581498265" lon="8.309633983299136">
        <ele>1644.95</ele>
        <time>2018-05-06T10:32:38Z</time>
      </trkpt>
      <trkpt lat="45.883604390546679" lon="8.309630379080772">
        <ele>1644.95</ele>
        <time>2018-05-06T10:33:11Z</time>
      </trkpt>
      <trkpt lat="45.883608413860202" lon="8.309633983299136">
        <ele>1644.95</ele>
        <time>2018-05-06T10:33:42Z</time>
      </trkpt>
      <trkpt lat="45.883610676974058" lon="8.309637671336532">
        <ele>1645.4300000000001</ele>
        <time>2018-05-06T10:34:12Z</time>
      </trkpt>
      <trkpt lat="45.883605480194092" lon="8.30961998552084">
        <ele>1645.4300000000001</ele>
        <time>2018-05-06T10:34:43Z</time>
      </trkpt>
      <trkpt lat="45.883597852662206" lon="8.309653010219336">
        <ele>1645.9100000000001</ele>
        <time>2018-05-06T10:35:00Z</time>
      </trkpt>
      <trkpt lat="45.88359709829092" lon="8.309681341052055">
        <ele>1645.4300000000001</ele>
        <time>2018-05-06T10:35:16Z</time>
      </trkpt>
      <trkpt lat="45.883600534871221" lon="8.309682346880436">
        <ele>1645.4300000000001</ele>
        <time>2018-05-06T10:35:40Z</time>
      </trkpt>
      <trkpt lat="45.883599780499935" lon="8.309688214212656">
        <ele>1645.9100000000001</ele>
        <time>2018-05-06T10:36:01Z</time>
      </trkpt>
      <trkpt lat="45.883595170453191" lon="8.309700870886445">
        <ele>1645.4300000000001</ele>
        <time>2018-05-06T10:36:29Z</time>
      </trkpt>
      <trkpt lat="45.883597182109952" lon="8.309704810380936">
        <ele>1645.9100000000001</ele>
        <time>2018-05-06T10:36:33Z</time>
      </trkpt>
      <trkpt lat="45.883607072755694" lon="8.309774715453386">
        <ele>1644.47</ele>
        <time>2018-05-06T10:36:43Z</time>
      </trkpt>
      <trkpt lat="45.88361126370728" lon="8.309776056557894">
        <ele>1644.47</ele>
        <time>2018-05-06T10:37:02Z</time>
      </trkpt>
      <trkpt lat="45.883607575669885" lon="8.309769770130515">
        <ele>1643.99</ele>
        <time>2018-05-06T10:37:28Z</time>
      </trkpt>
      <trkpt lat="45.883605480194092" lon="8.309764657169581">
        <ele>1644.47</ele>
        <time>2018-05-06T10:37:45Z</time>
      </trkpt>
      <trkpt lat="45.883607408031821" lon="8.309759208932519">
        <ele>1644.47</ele>
        <time>2018-05-06T10:38:15Z</time>
      </trkpt>
      <trkpt lat="45.883604474365711" lon="8.309737667441368">
        <ele>1645.4300000000001</ele>
        <time>2018-05-06T10:38:32Z</time>
      </trkpt>
      <trkpt lat="45.883595170453191" lon="8.309686286374927">
        <ele>1645.9100000000001</ele>
        <time>2018-05-06T10:38:42Z</time>
      </trkpt>
      <trkpt lat="45.883610928431153" lon="8.309644125401974">
        <ele>1646.4000000000001</ele>
        <time>2018-05-06T10:38:51Z</time>
      </trkpt>
      <trkpt lat="45.883676139637828" lon="8.309656782075763">
        <ele>1645.4300000000001</ele>
        <time>2018-05-06T10:38:57Z</time>
      </trkpt>
      <trkpt lat="45.883672870695591" lon="8.309696596115828">
        <ele>1643.99</ele>
        <time>2018-05-06T10:39:05Z</time>
      </trkpt>
      <trkpt lat="45.883662225678563" lon="8.309702798724175">
        <ele>1643.99</ele>
        <time>2018-05-06T10:39:18Z</time>
      </trkpt>
      <trkpt lat="45.88367186486721" lon="8.309696093201637">
        <ele>1643.99</ele>
        <time>2018-05-06T10:39:29Z</time>
      </trkpt>
      <trkpt lat="45.883665746077895" lon="8.309706067666411">
        <ele>1643.99</ele>
        <time>2018-05-06T10:39:38Z</time>
      </trkpt>
      <trkpt lat="45.883664237335324" lon="8.309702211990953">
        <ele>1644.47</ele>
        <time>2018-05-06T10:39:53Z</time>
      </trkpt>
      <trkpt lat="45.883664572611451" lon="8.309700367972255">
        <ele>1644.47</ele>
        <time>2018-05-06T10:40:01Z</time>
      </trkpt>
      <trkpt lat="45.883663147687912" lon="8.309715706855059">
        <ele>1644.47</ele>
        <time>2018-05-06T10:40:13Z</time>
      </trkpt>
      <trkpt lat="45.883675385266542" lon="8.309681927785277">
        <ele>1644.95</ele>
        <time>2018-05-06T10:40:22Z</time>
      </trkpt>
      <trkpt lat="45.883683683350682" lon="8.309680251404643">
        <ele>1644.95</ele>
        <time>2018-05-06T10:40:44Z</time>
      </trkpt>
      <trkpt lat="45.883677983656526" lon="8.309680502861738">
        <ele>1644.95</ele>
        <time>2018-05-06T10:41:01Z</time>
      </trkpt>
      <trkpt lat="45.883627021685243" lon="8.309736829251051">
        <ele>1644.95</ele>
        <time>2018-05-06T10:41:10Z</time>
      </trkpt>
      <trkpt lat="45.883624423295259" lon="8.30973825417459">
        <ele>1644.47</ele>
        <time>2018-05-06T10:41:18Z</time>
      </trkpt>
      <trkpt lat="45.883622076362371" lon="8.309742612764239">
        <ele>1644.95</ele>
        <time>2018-05-06T10:41:35Z</time>
      </trkpt>
      <trkpt lat="45.883625848218799" lon="8.309742445126176">
        <ele>1644.95</ele>
        <time>2018-05-06T10:41:48Z</time>
      </trkpt>
      <trkpt lat="45.883626602590084" lon="8.309742026031017">
        <ele>1644.95</ele>
        <time>2018-05-06T10:42:09Z</time>
      </trkpt>
      <trkpt lat="45.883622160181403" lon="8.309747809544206">
        <ele>1644.47</ele>
        <time>2018-05-06T10:42:26Z</time>
      </trkpt>
      <trkpt lat="45.883616711944342" lon="8.309725848957896">
        <ele>1645.4300000000001</ele>
        <time>2018-05-06T10:42:36Z</time>
      </trkpt>
      <trkpt lat="45.8836171310395" lon="8.309642616659403">
        <ele>1645.9100000000001</ele>
        <time>2018-05-06T10:42:47Z</time>
      </trkpt>
      <trkpt lat="45.883611096069217" lon="8.309636330232024">
        <ele>1646.4000000000001</ele>
        <time>2018-05-06T10:43:04Z</time>
      </trkpt>
      <trkpt lat="45.883606737479568" lon="8.30963121727109">
        <ele>1645.9100000000001</ele>
        <time>2018-05-06T10:43:31Z</time>
      </trkpt>
      <trkpt lat="45.883612604811788" lon="8.309629457071424">
        <ele>1646.4000000000001</ele>
        <time>2018-05-06T10:43:56Z</time>
      </trkpt>
      <trkpt lat="45.883612185716629" lon="8.309624763205648">
        <ele>1646.4000000000001</ele>
        <time>2018-05-06T10:44:17Z</time>
      </trkpt>
      <trkpt lat="45.883612772449851" lon="8.309631301090121">
        <ele>1645.9100000000001</ele>
        <time>2018-05-06T10:44:43Z</time>
      </trkpt>
      <trkpt lat="45.883614281192422" lon="8.309626523405314">
        <ele>1645.9100000000001</ele>
        <time>2018-05-06T10:45:12Z</time>
      </trkpt>
      <trkpt lat="45.883607072755694" lon="8.309631301090121">
        <ele>1646.4000000000001</ele>
        <time>2018-05-06T10:45:43Z</time>
      </trkpt>
      <trkpt lat="45.883613862097263" lon="8.309629959985614">
        <ele>1645.9100000000001</ele>
        <time>2018-05-06T10:46:08Z</time>
      </trkpt>
      <trkpt lat="45.88360782712698" lon="8.309632474556565">
        <ele>1645.9100000000001</ele>
        <time>2018-05-06T10:46:41Z</time>
      </trkpt>
      <trkpt lat="45.883610006421804" lon="8.309633145108819">
        <ele>1646.4000000000001</ele>
        <time>2018-05-06T10:47:08Z</time>
      </trkpt>
      <trkpt lat="45.883616711944342" lon="8.309633564203978">
        <ele>1646.4000000000001</ele>
        <time>2018-05-06T10:47:36Z</time>
      </trkpt>
      <trkpt lat="45.883619477972388" lon="8.309633396565914">
        <ele>1646.4000000000001</ele>
        <time>2018-05-06T10:47:57Z</time>
      </trkpt>
      <trkpt lat="45.883618136867881" lon="8.309635659679771">
        <ele>1646.4000000000001</ele>
        <time>2018-05-06T10:48:26Z</time>
      </trkpt>
      <trkpt lat="45.883620148524642" lon="8.309635575860739">
        <ele>1646.4000000000001</ele>
        <time>2018-05-06T10:48:53Z</time>
      </trkpt>
      <trkpt lat="45.883615789934993" lon="8.309635324403644">
        <ele>1646.4000000000001</ele>
        <time>2018-05-06T10:49:14Z</time>
      </trkpt>
      <trkpt lat="45.883613862097263" lon="8.309631971642375">
        <ele>1646.4000000000001</ele>
        <time>2018-05-06T10:49:45Z</time>
      </trkpt>
      <trkpt lat="45.883616292849183" lon="8.30963121727109">
        <ele>1646.4000000000001</ele>
        <time>2018-05-06T10:50:07Z</time>
      </trkpt>
      <trkpt lat="45.883616544306278" lon="8.30963172018528">
        <ele>1646.8800000000001</ele>
        <time>2018-05-06T10:50:32Z</time>
      </trkpt>
      <trkpt lat="45.883613862097263" lon="8.309631804004312">
        <ele>1646.4000000000001</ele>
        <time>2018-05-06T10:50:58Z</time>
      </trkpt>
      <trkpt lat="45.883616795763373" lon="8.309634486213327">
        <ele>1646.8800000000001</ele>
        <time>2018-05-06T10:51:24Z</time>
      </trkpt>
      <trkpt lat="45.883622411638498" lon="8.309631468728185">
        <ele>1646.8800000000001</ele>
        <time>2018-05-06T10:51:46Z</time>
      </trkpt>
      <trkpt lat="45.883612940087914" lon="8.309632893651724">
        <ele>1646.8800000000001</ele>
        <time>2018-05-06T10:52:14Z</time>
      </trkpt>
      <trkpt lat="45.883611682802439" lon="8.309631468728185">
        <ele>1646.8800000000001</ele>
        <time>2018-05-06T10:52:37Z</time>
      </trkpt>
      <trkpt lat="45.88361905887723" lon="8.309632306918502">
        <ele>1646.8800000000001</ele>
        <time>2018-05-06T10:53:00Z</time>
      </trkpt>
      <trkpt lat="45.883620399981737" lon="8.309638006612659">
        <ele>1646.8800000000001</ele>
        <time>2018-05-06T10:53:21Z</time>
      </trkpt>
      <trkpt lat="45.883613443002105" lon="8.309639263898134">
        <ele>1646.8800000000001</ele>
        <time>2018-05-06T10:53:43Z</time>
      </trkpt>
      <trkpt lat="45.88360732421279" lon="8.309642532840371">
        <ele>1646.8800000000001</ele>
        <time>2018-05-06T10:54:05Z</time>
      </trkpt>
      <trkpt lat="45.883611850440502" lon="8.309637252241373">
        <ele>1647.3599999999999</ele>
        <time>2018-05-06T10:54:25Z</time>
      </trkpt>
      <trkpt lat="45.883623585104942" lon="8.309626691043377">
        <ele>1646.8800000000001</ele>
        <time>2018-05-06T10:54:53Z</time>
      </trkpt>
      <trkpt lat="45.883612269535661" lon="8.309624595567584">
        <ele>1646.8800000000001</ele>
        <time>2018-05-06T10:55:06Z</time>
      </trkpt>
      <trkpt lat="45.883623836562037" lon="8.309633312746882">
        <ele>1647.3599999999999</ele>
        <time>2018-05-06T10:55:32Z</time>
      </trkpt>
      <trkpt lat="45.883626183494925" lon="8.30962928943336">
        <ele>1647.3599999999999</ele>
        <time>2018-05-06T10:55:52Z</time>
      </trkpt>
      <trkpt lat="45.883616376668215" lon="8.309626691043377">
        <ele>1647.3599999999999</ele>
        <time>2018-05-06T10:56:13Z</time>
      </trkpt>
      <trkpt lat="45.883618220686913" lon="8.309636078774929">
        <ele>1647.3599999999999</ele>
        <time>2018-05-06T10:56:24Z</time>
      </trkpt>
      <trkpt lat="45.883612018078566" lon="8.309638677164912">
        <ele>1646.8800000000001</ele>
        <time>2018-05-06T10:56:36Z</time>
      </trkpt>
      <trkpt lat="45.88361905887723" lon="8.309645717963576">
        <ele>1647.3599999999999</ele>
        <time>2018-05-06T10:56:54Z</time>
      </trkpt>
      <trkpt lat="45.883610174059868" lon="8.309655776247382">
        <ele>1647.3599999999999</ele>
        <time>2018-05-06T10:57:18Z</time>
      </trkpt>
      <trkpt lat="45.883604306727648" lon="8.309652674943209">
        <ele>1647.3599999999999</ele>
        <time>2018-05-06T10:57:41Z</time>
      </trkpt>
      <trkpt lat="45.883602797985077" lon="8.309641778469086">
        <ele>1646.8800000000001</ele>
        <time>2018-05-06T10:58:10Z</time>
      </trkpt>
      <trkpt lat="45.883608665317297" lon="8.309644460678101">
        <ele>1646.8800000000001</ele>
        <time>2018-05-06T10:58:36Z</time>
      </trkpt>
      <trkpt lat="45.883606066927314" lon="8.30964052118361">
        <ele>1647.3599999999999</ele>
        <time>2018-05-06T10:59:01Z</time>
      </trkpt>
      <trkpt lat="45.883613023906946" lon="8.309633815661073">
        <ele>1647.3599999999999</ele>
        <time>2018-05-06T10:59:24Z</time>
      </trkpt>
      <trkpt lat="45.883605647832155" lon="8.309646723791957">
        <ele>1647.3599999999999</ele>
        <time>2018-05-06T10:59:55Z</time>
      </trkpt>
      <trkpt lat="45.883602211251855" lon="8.309638593345881">
        <ele>1647.3599999999999</ele>
        <time>2018-05-06T11:00:29Z</time>
      </trkpt>
      <trkpt lat="45.883605144917965" lon="8.309641946107149">
        <ele>1647.3599999999999</ele>
        <time>2018-05-06T11:00:57Z</time>
      </trkpt>
      <trkpt lat="45.883622579276562" lon="8.309633396565914">
        <ele>1647.3599999999999</ele>
        <time>2018-05-06T11:01:21Z</time>
      </trkpt>
      <trkpt lat="45.883617550134659" lon="8.309636916965246">
        <ele>1647.8399999999999</ele>
        <time>2018-05-06T11:01:45Z</time>
      </trkpt>
      <trkpt lat="45.883614784106612" lon="8.309629708528519">
        <ele>1647.8399999999999</ele>
        <time>2018-05-06T11:02:14Z</time>
      </trkpt>
      <trkpt lat="45.883621238172054" lon="8.309635240584612">
        <ele>1647.8399999999999</ele>
        <time>2018-05-06T11:02:31Z</time>
      </trkpt>
      <trkpt lat="45.883615287020802" lon="8.309636330232024">
        <ele>1647.8399999999999</ele>
        <time>2018-05-06T11:02:56Z</time>
      </trkpt>
      <trkpt lat="45.883619142696261" lon="8.309636749327183">
        <ele>1647.8399999999999</ele>
        <time>2018-05-06T11:03:22Z</time>
      </trkpt>
      <trkpt lat="45.883609671145678" lon="8.309655105695128">
        <ele>1649.28</ele>
        <time>2018-05-06T11:03:35Z</time>
      </trkpt>
      <trkpt lat="45.883616879582405" lon="8.309639431536198">
        <ele>1647.8399999999999</ele>
        <time>2018-05-06T11:03:51Z</time>
      </trkpt>
      <trkpt lat="45.883617298677564" lon="8.309644460678101">
        <ele>1647.8399999999999</ele>
        <time>2018-05-06T11:04:17Z</time>
      </trkpt>
      <trkpt lat="45.883617298677564" lon="8.309642700478435">
        <ele>1647.8399999999999</ele>
        <time>2018-05-06T11:04:36Z</time>
      </trkpt>
      <trkpt lat="45.883609000593424" lon="8.309634402394295">
        <ele>1647.8399999999999</ele>
        <time>2018-05-06T11:04:58Z</time>
      </trkpt>
      <trkpt lat="45.883619477972388" lon="8.309639263898134">
        <ele>1647.8399999999999</ele>
        <time>2018-05-06T11:05:26Z</time>
      </trkpt>
      <trkpt lat="45.883621070533991" lon="8.30964638851583">
        <ele>1647.8399999999999</ele>
        <time>2018-05-06T11:05:41Z</time>
      </trkpt>
      <trkpt lat="45.883625261485577" lon="8.309649741277099">
        <ele>1647.8399999999999</ele>
        <time>2018-05-06T11:06:07Z</time>
      </trkpt>
      <trkpt lat="45.883622663095593" lon="8.309649992734194">
        <ele>1647.8399999999999</ele>
        <time>2018-05-06T11:06:24Z</time>
      </trkpt>
      <trkpt lat="45.883625093847513" lon="8.309643873944879">
        <ele>1647.8399999999999</ele>
        <time>2018-05-06T11:06:44Z</time>
      </trkpt>
      <trkpt lat="45.883617633953691" lon="8.309645466506481">
        <ele>1647.3599999999999</ele>
        <time>2018-05-06T11:07:10Z</time>
      </trkpt>
      <trkpt lat="45.883613610640168" lon="8.309640688821673">
        <ele>1647.8399999999999</ele>
        <time>2018-05-06T11:07:34Z</time>
      </trkpt>
      <trkpt lat="45.883609587326646" lon="8.309644460678101">
        <ele>1647.8399999999999</ele>
        <time>2018-05-06T11:07:56Z</time>
      </trkpt>
      <trkpt lat="45.883614532649517" lon="8.309641778469086">
        <ele>1647.8399999999999</ele>
        <time>2018-05-06T11:08:22Z</time>
      </trkpt>
      <trkpt lat="45.883613107725978" lon="8.309633228927851">
        <ele>1647.8399999999999</ele>
        <time>2018-05-06T11:08:47Z</time>
      </trkpt>
      <trkpt lat="45.883616376668215" lon="8.309632055461407">
        <ele>1647.3599999999999</ele>
        <time>2018-05-06T11:09:14Z</time>
      </trkpt>
      <trkpt lat="45.883609838783741" lon="8.309638425707817">
        <ele>1647.3599999999999</ele>
        <time>2018-05-06T11:09:38Z</time>
      </trkpt>
      <trkpt lat="45.883616544306278" lon="8.309638928622007">
        <ele>1647.3599999999999</ele>
        <time>2018-05-06T11:09:58Z</time>
      </trkpt>
      <trkpt lat="45.883617466315627" lon="8.309634402394295">
        <ele>1647.3599999999999</ele>
        <time>2018-05-06T11:10:26Z</time>
      </trkpt>
      <trkpt lat="45.883610593155026" lon="8.309637419879437">
        <ele>1647.3599999999999</ele>
        <time>2018-05-06T11:10:55Z</time>
      </trkpt>
      <trkpt lat="45.883614029735327" lon="8.309636665508151">
        <ele>1647.3599999999999</ele>
        <time>2018-05-06T11:11:18Z</time>
      </trkpt>
      <trkpt lat="45.88361076079309" lon="8.309633396565914">
        <ele>1647.3599999999999</ele>
        <time>2018-05-06T11:11:43Z</time>
      </trkpt>
      <trkpt lat="45.883613359183073" lon="8.309635911136866">
        <ele>1647.3599999999999</ele>
        <time>2018-05-06T11:12:09Z</time>
      </trkpt>
      <trkpt lat="45.883612940087914" lon="8.30963809043169">
        <ele>1647.3599999999999</ele>
        <time>2018-05-06T11:12:25Z</time>
      </trkpt>
      <trkpt lat="45.883616460487247" lon="8.30963809043169">
        <ele>1647.3599999999999</ele>
        <time>2018-05-06T11:12:50Z</time>
      </trkpt>
      <trkpt lat="45.883615454658866" lon="8.309643790125847">
        <ele>1647.8399999999999</ele>
        <time>2018-05-06T11:13:08Z</time>
      </trkpt>
      <trkpt lat="45.883616544306278" lon="8.309644125401974">
        <ele>1647.3599999999999</ele>
        <time>2018-05-06T11:13:28Z</time>
      </trkpt>
      <trkpt lat="45.883621154353023" lon="8.309642868116498">
        <ele>1647.3599999999999</ele>
        <time>2018-05-06T11:13:47Z</time>
      </trkpt>
      <trkpt lat="45.883620819076896" lon="8.309641778469086">
        <ele>1647.3599999999999</ele>
        <time>2018-05-06T11:14:15Z</time>
      </trkpt>
      <trkpt lat="45.88361905887723" lon="8.309636833146215">
        <ele>1646.8800000000001</ele>
        <time>2018-05-06T11:14:36Z</time>
      </trkpt>
      <trkpt lat="45.883620483800769" lon="8.309640269726515">
        <ele>1646.8800000000001</ele>
        <time>2018-05-06T11:14:58Z</time>
      </trkpt>
      <trkpt lat="45.883617298677564" lon="8.309647059068084">
        <ele>1647.3599999999999</ele>
        <time>2018-05-06T11:15:26Z</time>
      </trkpt>
      <trkpt lat="45.883618220686913" lon="8.309645466506481">
        <ele>1647.3599999999999</ele>
        <time>2018-05-06T11:15:51Z</time>
      </trkpt>
      <trkpt lat="45.883613443002105" lon="8.309642365202308">
        <ele>1647.3599999999999</ele>
        <time>2018-05-06T11:16:22Z</time>
      </trkpt>
      <trkpt lat="45.883611012250185" lon="8.309639347717166">
        <ele>1647.3599999999999</ele>
        <time>2018-05-06T11:16:43Z</time>
      </trkpt>
      <trkpt lat="45.883618053048849" lon="8.309645550325513">
        <ele>1647.3599999999999</ele>
        <time>2018-05-06T11:17:09Z</time>
      </trkpt>
      <trkpt lat="45.883613359183073" lon="8.309640772640705">
        <ele>1647.3599999999999</ele>
        <time>2018-05-06T11:17:34Z</time>
      </trkpt>
      <trkpt lat="45.883614113554358" lon="8.30964001826942">
        <ele>1647.3599999999999</ele>
        <time>2018-05-06T11:18:00Z</time>
      </trkpt>
      <trkpt lat="45.883617550134659" lon="8.309638928622007">
        <ele>1647.8399999999999</ele>
        <time>2018-05-06T11:18:24Z</time>
      </trkpt>
      <trkpt lat="45.883614616468549" lon="8.309657368808985">
        <ele>1648.8</ele>
        <time>2018-05-06T11:18:30Z</time>
      </trkpt>
      <trkpt lat="45.883585028350353" lon="8.309648148715496">
        <ele>1649.28</ele>
        <time>2018-05-06T11:18:39Z</time>
      </trkpt>
      <trkpt lat="45.883556446060538" lon="8.309667007997632">
        <ele>1649.28</ele>
        <time>2018-05-06T11:18:47Z</time>
      </trkpt>
      <trkpt lat="45.883515290915966" lon="8.309665750712156">
        <ele>1648.8</ele>
        <time>2018-05-06T11:18:51Z</time>
      </trkpt>
      <trkpt lat="45.883485870435834" lon="8.309697099030018">
        <ele>1647.3599999999999</ele>
        <time>2018-05-06T11:19:01Z</time>
      </trkpt>
      <trkpt lat="45.883535156026483" lon="8.309672623872757">
        <ele>1648.3199999999999</ele>
        <time>2018-05-06T11:19:13Z</time>
      </trkpt>
      <trkpt lat="45.883586956188083" lon="8.309687459841371">
        <ele>1648.8</ele>
        <time>2018-05-06T11:19:24Z</time>
      </trkpt>
      <trkpt lat="45.883598607033491" lon="8.309714701026678">
        <ele>1648.3199999999999</ele>
        <time>2018-05-06T11:19:31Z</time>
      </trkpt>
      <trkpt lat="45.883597265928984" lon="8.309705900028348">
        <ele>1647.8399999999999</ele>
        <time>2018-05-06T11:19:41Z</time>
      </trkpt>
      <trkpt lat="45.88358829729259" lon="8.309715539216995">
        <ele>1647.8399999999999</ele>
        <time>2018-05-06T11:20:06Z</time>
      </trkpt>
      <trkpt lat="45.883597265928984" lon="8.309715120121837">
        <ele>1647.3599999999999</ele>
        <time>2018-05-06T11:20:28Z</time>
      </trkpt>
      <trkpt lat="45.883602043613791" lon="8.30969869159162">
        <ele>1647.3599999999999</ele>
        <time>2018-05-06T11:20:37Z</time>
      </trkpt>
      <trkpt lat="45.88359315879643" lon="8.309698523953557">
        <ele>1647.8399999999999</ele>
        <time>2018-05-06T11:20:55Z</time>
      </trkpt>
      <trkpt lat="45.883598607033491" lon="8.309698440134525">
        <ele>1646.8800000000001</ele>
        <time>2018-05-06T11:21:08Z</time>
      </trkpt>
      <trkpt lat="45.883604474365711" lon="8.309704642742872">
        <ele>1647.3599999999999</ele>
        <time>2018-05-06T11:21:26Z</time>
      </trkpt>
      <trkpt lat="45.883618472144008" lon="8.309708330780268">
        <ele>1647.3599999999999</ele>
        <time>2018-05-06T11:21:55Z</time>
      </trkpt>
      <trkpt lat="45.883614448830485" lon="8.309709588065743">
        <ele>1647.3599999999999</ele>
        <time>2018-05-06T11:22:24Z</time>
      </trkpt>
      <trkpt lat="45.883611431345344" lon="8.309704307466745">
        <ele>1647.3599999999999</ele>
        <time>2018-05-06T11:22:55Z</time>
      </trkpt>
      <trkpt lat="45.883612101897597" lon="8.309700200334191">
        <ele>1647.3599999999999</ele>
        <time>2018-05-06T11:22:58Z</time>
      </trkpt>
      <trkpt lat="45.883606402203441" lon="8.309698859229684">
        <ele>1648.3199999999999</ele>
        <time>2018-05-06T11:23:08Z</time>
      </trkpt>
      <trkpt lat="45.883611934259534" lon="8.309704894199967">
        <ele>1648.3199999999999</ele>
        <time>2018-05-06T11:23:18Z</time>
      </trkpt>
      <trkpt lat="45.883603468537331" lon="8.309707073494792">
        <ele>1648.3199999999999</ele>
        <time>2018-05-06T11:23:28Z</time>
      </trkpt>
      <trkpt lat="45.883605228736997" lon="8.309697350487113">
        <ele>1648.8</ele>
        <time>2018-05-06T11:23:43Z</time>
      </trkpt>
      <trkpt lat="45.883608162403107" lon="8.309698523953557">
        <ele>1648.3199999999999</ele>
        <time>2018-05-06T11:24:04Z</time>
      </trkpt>
      <trkpt lat="45.883611598983407" lon="8.309739595279098">
        <ele>1648.3199999999999</ele>
        <time>2018-05-06T11:24:14Z</time>
      </trkpt>
      <trkpt lat="45.883607994765043" lon="8.309738086536527">
        <ele>1648.3199999999999</ele>
        <time>2018-05-06T11:24:39Z</time>
      </trkpt>
      <trkpt lat="45.883611934259534" lon="8.309744289144874">
        <ele>1647.8399999999999</ele>
        <time>2018-05-06T11:25:01Z</time>
      </trkpt>
      <trkpt lat="45.883611598983407" lon="8.309742948040366">
        <ele>1647.8399999999999</ele>
        <time>2018-05-06T11:25:22Z</time>
      </trkpt>
      <trkpt lat="45.883579663932323" lon="8.309749150648713">
        <ele>1647.8399999999999</ele>
        <time>2018-05-06T11:25:30Z</time>
      </trkpt>
      <trkpt lat="45.883585195988417" lon="8.309744456782937">
        <ele>1647.8399999999999</ele>
        <time>2018-05-06T11:25:42Z</time>
      </trkpt>
      <trkpt lat="45.8835618942976" lon="8.3097377512604">
        <ele>1648.3199999999999</ele>
        <time>2018-05-06T11:25:54Z</time>
      </trkpt>
      <trkpt lat="45.883566923439503" lon="8.309730459004641">
        <ele>1648.3199999999999</ele>
        <time>2018-05-06T11:26:09Z</time>
      </trkpt>
      <trkpt lat="45.883576311171055" lon="8.309736074879766">
        <ele>1648.3199999999999</ele>
        <time>2018-05-06T11:26:19Z</time>
      </trkpt>
      <trkpt lat="45.883585279807448" lon="8.309736996889114">
        <ele>1648.8</ele>
        <time>2018-05-06T11:26:33Z</time>
      </trkpt>
      <trkpt lat="45.883573042228818" lon="8.30972945317626">
        <ele>1648.8</ele>
        <time>2018-05-06T11:26:43Z</time>
      </trkpt>
      <trkpt lat="45.883569689467549" lon="8.309728363528848">
        <ele>1648.3199999999999</ele>
        <time>2018-05-06T11:26:57Z</time>
      </trkpt>
      <trkpt lat="45.883578406646848" lon="8.309763399884105">
        <ele>1648.3199999999999</ele>
        <time>2018-05-06T11:27:07Z</time>
      </trkpt>
      <trkpt lat="45.883580753579736" lon="8.309772703796625">
        <ele>1648.3199999999999</ele>
        <time>2018-05-06T11:27:15Z</time>
      </trkpt>
      <trkpt lat="45.883568599820137" lon="8.309764070436359">
        <ele>1647.8399999999999</ele>
        <time>2018-05-06T11:27:28Z</time>
      </trkpt>
      <trkpt lat="45.883569940924644" lon="8.309760550037026">
        <ele>1647.8399999999999</ele>
        <time>2018-05-06T11:27:43Z</time>
      </trkpt>
      <trkpt lat="45.883573377504945" lon="8.309768093749881">
        <ele>1647.8399999999999</ele>
        <time>2018-05-06T11:27:56Z</time>
      </trkpt>
      <trkpt lat="45.8835653308779" lon="8.309761052951217">
        <ele>1647.3599999999999</ele>
        <time>2018-05-06T11:28:16Z</time>
      </trkpt>
      <trkpt lat="45.883613275364041" lon="8.309856355190277">
        <ele>1645.9100000000001</ele>
        <time>2018-05-06T11:28:25Z</time>
      </trkpt>
      <trkpt lat="45.883628781884909" lon="8.309969678521156">
        <ele>1643.99</ele>
        <time>2018-05-06T11:28:35Z</time>
      </trkpt>
      <trkpt lat="45.883628781884909" lon="8.309982167556882">
        <ele>1643.99</ele>
        <time>2018-05-06T11:28:36Z</time>
      </trkpt>
      <trkpt lat="45.883631967008114" lon="8.310131533071399">
        <ele>1641.1099999999999</ele>
        <time>2018-05-06T11:28:47Z</time>
      </trkpt>
      <trkpt lat="45.883642360568047" lon="8.310281066223979">
        <ele>1638.7</ele>
        <time>2018-05-06T11:28:59Z</time>
      </trkpt>
      <trkpt lat="45.883634984493256" lon="8.310441160574555">
        <ele>1636.3</ele>
        <time>2018-05-06T11:29:11Z</time>
      </trkpt>
      <trkpt lat="45.883641187101603" lon="8.310655821114779">
        <ele>1633.9000000000001</ele>
        <time>2018-05-06T11:29:24Z</time>
      </trkpt>
      <trkpt lat="45.883658705279231" lon="8.310847179964185">
        <ele>1631.01</ele>
        <time>2018-05-06T11:29:37Z</time>
      </trkpt>
      <trkpt lat="45.883663566783071" lon="8.310861010104418">
        <ele>1631.01</ele>
        <time>2018-05-06T11:29:38Z</time>
      </trkpt>
      <trkpt lat="45.88365619070828" lon="8.310980871319771">
        <ele>1628.6099999999999</ele>
        <time>2018-05-06T11:29:46Z</time>
      </trkpt>
      <trkpt lat="45.883635906502604" lon="8.311044657602906">
        <ele>1627.6500000000001</ele>
        <time>2018-05-06T11:29:51Z</time>
      </trkpt>
      <trkpt lat="45.883657531812787" lon="8.311157980933785">
        <ele>1625.73</ele>
        <time>2018-05-06T11:30:01Z</time>
      </trkpt>
      <trkpt lat="45.883681336417794" lon="8.311306675896049">
        <ele>1622.8399999999999</ele>
        <time>2018-05-06T11:30:13Z</time>
      </trkpt>
      <trkpt lat="45.883683515712619" lon="8.311339365318418">
        <ele>1621.4000000000001</ele>
        <time>2018-05-06T11:30:16Z</time>
      </trkpt>
      <trkpt lat="45.8837138582021" lon="8.311389656737447">
        <ele>1620.4400000000001</ele>
        <time>2018-05-06T11:30:22Z</time>
      </trkpt>
      <trkpt lat="45.883720312267542" lon="8.311548912897706">
        <ele>1617.5599999999999</ele>
        <time>2018-05-06T11:30:35Z</time>
      </trkpt>
      <trkpt lat="45.883730538189411" lon="8.311661649495363">
        <ele>1614.1900000000001</ele>
        <time>2018-05-06T11:30:45Z</time>
      </trkpt>
      <trkpt lat="45.883746212348342" lon="8.311830712482333">
        <ele>1610.8299999999999</ele>
        <time>2018-05-06T11:30:58Z</time>
      </trkpt>
      <trkpt lat="45.883764065802097" lon="8.311958787962794">
        <ele>1607.9400000000001</ele>
        <time>2018-05-06T11:31:10Z</time>
      </trkpt>
      <trkpt lat="45.883826427161694" lon="8.312090216204524">
        <ele>1604.5799999999999</ele>
        <time>2018-05-06T11:31:22Z</time>
      </trkpt>
      <trkpt lat="45.88390831835568" lon="8.312262631952763">
        <ele>1603.1400000000001</ele>
        <time>2018-05-06T11:31:34Z</time>
      </trkpt>
      <trkpt lat="45.883935643360019" lon="8.312442926689982">
        <ele>1602.6600000000001</ele>
        <time>2018-05-06T11:31:45Z</time>
      </trkpt>
      <trkpt lat="45.883946288377047" lon="8.312530601397157">
        <ele>1602.1700000000001</ele>
        <time>2018-05-06T11:31:55Z</time>
      </trkpt>
      <trkpt lat="45.883977636694908" lon="8.312688935548067">
        <ele>1601.21</ele>
        <time>2018-05-06T11:32:09Z</time>
      </trkpt>
      <trkpt lat="45.884020887315273" lon="8.312821201980114">
        <ele>1600.25</ele>
        <time>2018-05-06T11:32:22Z</time>
      </trkpt>
      <trkpt lat="45.884045446291566" lon="8.312908709049225">
        <ele>1599.29</ele>
        <time>2018-05-06T11:32:32Z</time>
      </trkpt>
      <trkpt lat="45.884058522060513" lon="8.312982302159071">
        <ele>1597.3699999999999</ele>
        <time>2018-05-06T11:32:43Z</time>
      </trkpt>
      <trkpt lat="45.884073441848159" lon="8.31307165324688">
        <ele>1595.45</ele>
        <time>2018-05-06T11:32:56Z</time>
      </trkpt>
      <trkpt lat="45.88407838717103" lon="8.313148766756058">
        <ele>1594</ele>
        <time>2018-05-06T11:33:06Z</time>
      </trkpt>
      <trkpt lat="45.884090038016438" lon="8.313224539160729">
        <ele>1592.5599999999999</ele>
        <time>2018-05-06T11:33:18Z</time>
      </trkpt>
      <trkpt lat="45.884090960025787" lon="8.31323778256774">
        <ele>1592.5599999999999</ele>
        <time>2018-05-06T11:33:19Z</time>
      </trkpt>
      <trkpt lat="45.884113674983382" lon="8.31338681280613">
        <ele>1590.6400000000001</ele>
        <time>2018-05-06T11:33:33Z</time>
      </trkpt>
      <trkpt lat="45.884119793772697" lon="8.313519498333335">
        <ele>1588.72</ele>
        <time>2018-05-06T11:33:46Z</time>
      </trkpt>
      <trkpt lat="45.884127505123615" lon="8.313593175262213">
        <ele>1587.75</ele>
        <time>2018-05-06T11:33:55Z</time>
      </trkpt>
      <trkpt lat="45.884101605042815" lon="8.313718317076564">
        <ele>1586.3099999999999</ele>
        <time>2018-05-06T11:34:06Z</time>
      </trkpt>
      <trkpt lat="45.884091882035136" lon="8.313846308737993">
        <ele>1584.8699999999999</ele>
        <time>2018-05-06T11:34:18Z</time>
      </trkpt>
      <trkpt lat="45.884092887863517" lon="8.313950495794416">
        <ele>1583.4300000000001</ele>
        <time>2018-05-06T11:34:28Z</time>
      </trkpt>
      <trkpt lat="45.884106634184718" lon="8.314048480242491">
        <ele>1581.99</ele>
        <time>2018-05-06T11:34:38Z</time>
      </trkpt>
      <trkpt lat="45.884130103513598" lon="8.314139675348997">
        <ele>1580.0599999999999</ele>
        <time>2018-05-06T11:34:48Z</time>
      </trkpt>
      <trkpt lat="45.884170671924949" lon="8.314221566542983">
        <ele>1578.1400000000001</ele>
        <time>2018-05-06T11:34:57Z</time>
      </trkpt>
      <trkpt lat="45.884184502065182" lon="8.314328519627452">
        <ele>1576.22</ele>
        <time>2018-05-06T11:35:07Z</time>
      </trkpt>
      <trkpt lat="45.884186765179038" lon="8.314339835196734">
        <ele>1576.22</ele>
        <time>2018-05-06T11:35:08Z</time>
      </trkpt>
      <trkpt lat="45.884225154295564" lon="8.314463384449482">
        <ele>1574.78</ele>
        <time>2018-05-06T11:35:19Z</time>
      </trkpt>
      <trkpt lat="45.884180143475533" lon="8.31451459787786">
        <ele>1573.3299999999999</ele>
        <time>2018-05-06T11:35:29Z</time>
      </trkpt>
      <trkpt lat="45.884190537035465" lon="8.314507557079196">
        <ele>1573.8199999999999</ele>
        <time>2018-05-06T11:35:36Z</time>
      </trkpt>
      <trkpt lat="45.88427972048521" lon="8.314691623672843">
        <ele>1569.49</ele>
        <time>2018-05-06T11:35:51Z</time>
      </trkpt>
      <trkpt lat="45.884299082681537" lon="8.314817771315575">
        <ele>1567.5699999999999</ele>
        <time>2018-05-06T11:36:02Z</time>
      </trkpt>
      <trkpt lat="45.884297322481871" lon="8.314902428537607">
        <ele>1565.1600000000001</ele>
        <time>2018-05-06T11:36:11Z</time>
      </trkpt>
      <trkpt lat="45.88429288007319" lon="8.314955150708556">
        <ele>1563.72</ele>
        <time>2018-05-06T11:36:22Z</time>
      </trkpt>
      <trkpt lat="45.884304363280535" lon="8.31500762142241">
        <ele>1562.76</ele>
        <time>2018-05-06T11:36:31Z</time>
      </trkpt>
      <trkpt lat="45.884295227006078" lon="8.315025977790356">
        <ele>1561.8</ele>
        <time>2018-05-06T11:36:34Z</time>
      </trkpt>
      <trkpt lat="45.88423378765583" lon="8.315103175118566">
        <ele>1557.95</ele>
        <time>2018-05-06T11:36:42Z</time>
      </trkpt>
      <trkpt lat="45.884227333590388" lon="8.315099738538265">
        <ele>1556.99</ele>
        <time>2018-05-06T11:36:44Z</time>
      </trkpt>
      <trkpt lat="45.884203109890223" lon="8.315152712166309">
        <ele>1555.55</ele>
        <time>2018-05-06T11:36:55Z</time>
      </trkpt>
      <trkpt lat="45.884202690795064" lon="8.315160591155291">
        <ele>1555.0699999999999</ele>
        <time>2018-05-06T11:36:56Z</time>
      </trkpt>
      <trkpt lat="45.884204031899571" lon="8.315186323598027">
        <ele>1554.1099999999999</ele>
        <time>2018-05-06T11:36:58Z</time>
      </trkpt>
      <trkpt lat="45.884188944473863" lon="8.315313309431076">
        <ele>1550.74</ele>
        <time>2018-05-06T11:37:07Z</time>
      </trkpt>
      <trkpt lat="45.884187603369355" lon="8.315328061580658">
        <ele>1550.26</ele>
        <time>2018-05-06T11:37:08Z</time>
      </trkpt>
      <trkpt lat="45.884171929210424" lon="8.315383214503527">
        <ele>1548.3399999999999</ele>
        <time>2018-05-06T11:37:12Z</time>
      </trkpt>
      <trkpt lat="45.884160865098238" lon="8.315496370196343">
        <ele>1544.98</ele>
        <time>2018-05-06T11:37:22Z</time>
      </trkpt>
      <trkpt lat="45.884127421304584" lon="8.315534507855773">
        <ele>1543.05</ele>
        <time>2018-05-06T11:37:27Z</time>
      </trkpt>
      <trkpt lat="45.884092971682549" lon="8.315570130944252">
        <ele>1541.6099999999999</ele>
        <time>2018-05-06T11:37:32Z</time>
      </trkpt>
      <trkpt lat="45.884053995832801" lon="8.315684795379639">
        <ele>1538.25</ele>
        <time>2018-05-06T11:37:41Z</time>
      </trkpt>
      <trkpt lat="45.88403245434165" lon="8.315744809806347">
        <ele>1536.8</ele>
        <time>2018-05-06T11:37:45Z</time>
      </trkpt>
      <trkpt lat="45.884005716070533" lon="8.315802561119199">
        <ele>1535.3599999999999</ele>
        <time>2018-05-06T11:37:49Z</time>
      </trkpt>
      <trkpt lat="45.883967075496912" lon="8.315910520032048">
        <ele>1532.48</ele>
        <time>2018-05-06T11:37:55Z</time>
      </trkpt>
      <trkpt lat="45.883911000564694" lon="8.316013114526868">
        <ele>1528.6300000000001</ele>
        <time>2018-05-06T11:38:03Z</time>
      </trkpt>
      <trkpt lat="45.883898008614779" lon="8.316036583855748">
        <ele>1528.1500000000001</ele>
        <time>2018-05-06T11:38:05Z</time>
      </trkpt>
      <trkpt lat="45.883880658075213" lon="8.316097520291805">
        <ele>1524.79</ele>
        <time>2018-05-06T11:38:10Z</time>
      </trkpt>
      <trkpt lat="45.883866073563695" lon="8.316122246906161">
        <ele>1523.3499999999999</ele>
        <time>2018-05-06T11:38:13Z</time>
      </trkpt>
      <trkpt lat="45.883863558992743" lon="8.31613146699965">
        <ele>1522.8699999999999</ele>
        <time>2018-05-06T11:38:14Z</time>
      </trkpt>
      <trkpt lat="45.883853249251842" lon="8.316190224140883">
        <ele>1520.9400000000001</ele>
        <time>2018-05-06T11:38:19Z</time>
      </trkpt>
      <trkpt lat="45.883825840428472" lon="8.316252250224352">
        <ele>1517.5799999999999</ele>
        <time>2018-05-06T11:38:27Z</time>
      </trkpt>
      <trkpt lat="45.883821900933981" lon="8.316287705674768">
        <ele>1516.1400000000001</ele>
        <time>2018-05-06T11:38:31Z</time>
      </trkpt>
      <trkpt lat="45.883802874013782" lon="8.316360460594297">
        <ele>1512.77</ele>
        <time>2018-05-06T11:38:39Z</time>
      </trkpt>
      <trkpt lat="45.883763814345002" lon="8.316452410072088">
        <ele>1509.4100000000001</ele>
        <time>2018-05-06T11:38:49Z</time>
      </trkpt>
      <trkpt lat="45.88375442661345" lon="8.316540839150548">
        <ele>1506.04</ele>
        <time>2018-05-06T11:38:56Z</time>
      </trkpt>
      <trkpt lat="45.883750319480896" lon="8.316580150276423">
        <ele>1504.5999999999999</ele>
        <time>2018-05-06T11:38:59Z</time>
      </trkpt>
      <trkpt lat="45.883743278682232" lon="8.316676458343864">
        <ele>1501.24</ele>
        <time>2018-05-06T11:39:07Z</time>
      </trkpt>
      <trkpt lat="45.883725676685572" lon="8.316741921007633">
        <ele>1498.3499999999999</ele>
        <time>2018-05-06T11:39:11Z</time>
      </trkpt>
      <trkpt lat="45.883716121315956" lon="8.316833451390266">
        <ele>1494.99</ele>
        <time>2018-05-06T11:39:17Z</time>
      </trkpt>
      <trkpt lat="45.883708577603102" lon="8.316919868811965">
        <ele>1491.1400000000001</ele>
        <time>2018-05-06T11:39:23Z</time>
      </trkpt>
      <trkpt lat="45.883711762726307" lon="8.316944260150194">
        <ele>1490.1800000000001</ele>
        <time>2018-05-06T11:39:25Z</time>
      </trkpt>
      <trkpt lat="45.883713690564036" lon="8.316953731700778">
        <ele>1489.7</ele>
        <time>2018-05-06T11:39:26Z</time>
      </trkpt>
      <trkpt lat="45.883721653372049" lon="8.317044256255031">
        <ele>1486.3399999999999</ele>
        <time>2018-05-06T11:39:34Z</time>
      </trkpt>
      <trkpt lat="45.883736405521631" lon="8.317094463855028">
        <ele>1484.8900000000001</ele>
        <time>2018-05-06T11:39:39Z</time>
      </trkpt>
      <trkpt lat="45.883738333359361" lon="8.317145258188248">
        <ele>1481.05</ele>
        <time>2018-05-06T11:39:47Z</time>
      </trkpt>
      <trkpt lat="45.883749900385737" lon="8.317174259573221">
        <ele>1481.05</ele>
        <time>2018-05-06T11:40:03Z</time>
      </trkpt>
      <trkpt lat="45.88375099003315" lon="8.317236537113786">
        <ele>1478.6500000000001</ele>
        <time>2018-05-06T11:40:13Z</time>
      </trkpt>
      <trkpt lat="45.883711846545339" lon="8.317257575690746">
        <ele>1477.2</ele>
        <time>2018-05-06T11:40:22Z</time>
      </trkpt>
      <trkpt lat="45.883735483512282" lon="8.317278949543834">
        <ele>1475.76</ele>
        <time>2018-05-06T11:40:31Z</time>
      </trkpt>
      <trkpt lat="45.883753504604101" lon="8.31734474748373">
        <ele>1473.3599999999999</ele>
        <time>2018-05-06T11:40:39Z</time>
      </trkpt>
      <trkpt lat="45.883753253147006" lon="8.317408198490739">
        <ele>1469.99</ele>
        <time>2018-05-06T11:40:49Z</time>
      </trkpt>
      <trkpt lat="45.883749397471547" lon="8.31745614297688">
        <ele>1468.0699999999999</ele>
        <time>2018-05-06T11:40:57Z</time>
      </trkpt>
      <trkpt lat="45.883764652535319" lon="8.317507607862353">
        <ele>1466.1500000000001</ele>
        <time>2018-05-06T11:41:05Z</time>
      </trkpt>
      <trkpt lat="45.88376616127789" lon="8.317563431337476">
        <ele>1464.23</ele>
        <time>2018-05-06T11:41:14Z</time>
      </trkpt>
      <trkpt lat="45.883716708049178" lon="8.317583044990897">
        <ele>1462.3</ele>
        <time>2018-05-06T11:41:24Z</time>
      </trkpt>
      <trkpt lat="45.883722994476557" lon="8.317643227055669">
        <ele>1459.9000000000001</ele>
        <time>2018-05-06T11:41:33Z</time>
      </trkpt>
      <trkpt lat="45.883724084123969" lon="8.317666361108422">
        <ele>1459.4200000000001</ele>
        <time>2018-05-06T11:41:36Z</time>
      </trkpt>
      <trkpt lat="45.88372559286654" lon="8.317737272009254">
        <ele>1457.02</ele>
        <time>2018-05-06T11:41:44Z</time>
      </trkpt>
      <trkpt lat="45.883724670857191" lon="8.31774590536952">
        <ele>1457.02</ele>
        <time>2018-05-06T11:41:45Z</time>
      </trkpt>
      <trkpt lat="45.883749648928642" lon="8.317853445187211">
        <ele>1454.1300000000001</ele>
        <time>2018-05-06T11:41:56Z</time>
      </trkpt>
      <trkpt lat="45.883727017790079" lon="8.317899880930781">
        <ele>1452.6900000000001</ele>
        <time>2018-05-06T11:42:04Z</time>
      </trkpt>
      <trkpt lat="45.883707655593753" lon="8.317900970578194">
        <ele>1451.73</ele>
        <time>2018-05-06T11:42:10Z</time>
      </trkpt>
      <trkpt lat="45.88368502445519" lon="8.317900970578194">
        <ele>1451.25</ele>
        <time>2018-05-06T11:42:12Z</time>
      </trkpt>
      <trkpt lat="45.883668009191751" lon="8.317877249792218">
        <ele>1450.77</ele>
        <time>2018-05-06T11:42:22Z</time>
      </trkpt>
      <trkpt lat="45.883704302832484" lon="8.317905077710748">
        <ele>1451.73</ele>
        <time>2018-05-06T11:42:35Z</time>
      </trkpt>
      <trkpt lat="45.883720815181732" lon="8.317908011376858">
        <ele>1451.73</ele>
        <time>2018-05-06T11:42:43Z</time>
      </trkpt>
      <trkpt lat="45.883725928142667" lon="8.317891331389546">
        <ele>1451.73</ele>
        <time>2018-05-06T11:42:57Z</time>
      </trkpt>
      <trkpt lat="45.883733555674553" lon="8.317849421873689">
        <ele>1452.6900000000001</ele>
        <time>2018-05-06T11:43:06Z</time>
      </trkpt>
      <trkpt lat="45.883737411350012" lon="8.317856295034289">
        <ele>1452.6900000000001</ele>
        <time>2018-05-06T11:43:18Z</time>
      </trkpt>
      <trkpt lat="45.883741099387407" lon="8.317863419651985">
        <ele>1452.6900000000001</ele>
        <time>2018-05-06T11:43:31Z</time>
      </trkpt>
      <trkpt lat="45.883740177378058" lon="8.317874651402235">
        <ele>1452.6900000000001</ele>
        <time>2018-05-06T11:43:53Z</time>
      </trkpt>
      <trkpt lat="45.883736489340663" lon="8.317870711907744">
        <ele>1452.6900000000001</ele>
        <time>2018-05-06T11:44:14Z</time>
      </trkpt>
      <trkpt lat="45.883744116872549" lon="8.317870041355491">
        <ele>1452.6900000000001</ele>
        <time>2018-05-06T11:44:33Z</time>
      </trkpt>
      <trkpt lat="45.883733974769711" lon="8.317868364974856">
        <ele>1451.73</ele>
        <time>2018-05-06T11:44:58Z</time>
      </trkpt>
      <trkpt lat="45.883729783818126" lon="8.317877249792218">
        <ele>1452.6900000000001</ele>
        <time>2018-05-06T11:45:28Z</time>
      </trkpt>
      <trkpt lat="45.883739590644836" lon="8.317875908687711">
        <ele>1452.6900000000001</ele>
        <time>2018-05-06T11:45:52Z</time>
      </trkpt>
      <trkpt lat="45.883742859587073" lon="8.317861491814256">
        <ele>1452.21</ele>
        <time>2018-05-06T11:46:19Z</time>
      </trkpt>
      <trkpt lat="45.883743781596422" lon="8.317854451015592">
        <ele>1453.1700000000001</ele>
        <time>2018-05-06T11:46:30Z</time>
      </trkpt>
      <trkpt lat="45.883738081902266" lon="8.317870041355491">
        <ele>1452.6900000000001</ele>
        <time>2018-05-06T11:46:46Z</time>
      </trkpt>
      <trkpt lat="45.883726598694921" lon="8.31788663752377">
        <ele>1452.21</ele>
        <time>2018-05-06T11:46:55Z</time>
      </trkpt>
      <trkpt lat="45.883736070245504" lon="8.31789493560791">
        <ele>1452.21</ele>
        <time>2018-05-06T11:47:10Z</time>
      </trkpt>
      <trkpt lat="45.883733974769711" lon="8.317957716062665">
        <ele>1450.77</ele>
        <time>2018-05-06T11:47:19Z</time>
      </trkpt>
      <trkpt lat="45.883714193478227" lon="8.318028124049306">
        <ele>1449.8099999999999</ele>
        <time>2018-05-06T11:47:28Z</time>
      </trkpt>
      <trkpt lat="45.883684856817126" lon="8.318085791543126">
        <ele>1448.8399999999999</ele>
        <time>2018-05-06T11:47:38Z</time>
      </trkpt>
      <trkpt lat="45.883666584268212" lon="8.31814999692142">
        <ele>1446.9200000000001</ele>
        <time>2018-05-06T11:47:47Z</time>
      </trkpt>
      <trkpt lat="45.883646048605442" lon="8.318172879517078">
        <ele>1445.48</ele>
        <time>2018-05-06T11:47:55Z</time>
      </trkpt>
      <trkpt lat="45.883615538477898" lon="8.318166509270668">
        <ele>1444.52</ele>
        <time>2018-05-06T11:48:05Z</time>
      </trkpt>
      <trkpt lat="45.883599109947681" lon="8.318223087117076">
        <ele>1442.1099999999999</ele>
        <time>2018-05-06T11:48:16Z</time>
      </trkpt>
      <trkpt lat="45.883581340312958" lon="8.318245885893703">
        <ele>1440.6700000000001</ele>
        <time>2018-05-06T11:48:25Z</time>
      </trkpt>
      <trkpt lat="45.883536832407117" lon="8.318196013569832">
        <ele>1439.23</ele>
        <time>2018-05-06T11:48:36Z</time>
      </trkpt>
      <trkpt lat="45.883530713617802" lon="8.318209843710065">
        <ele>1438.75</ele>
        <time>2018-05-06T11:48:40Z</time>
      </trkpt>
      <trkpt lat="45.883561307564378" lon="8.318289807066321">
        <ele>1437.79</ele>
        <time>2018-05-06T11:48:49Z</time>
      </trkpt>
      <trkpt lat="45.88358586654067" lon="8.318349067121744">
        <ele>1436.3499999999999</ele>
        <time>2018-05-06T11:48:58Z</time>
      </trkpt>
      <trkpt lat="45.883532892912626" lon="8.318368932232261">
        <ele>1434.4200000000001</ele>
        <time>2018-05-06T11:49:08Z</time>
      </trkpt>
      <trkpt lat="45.883518643677235" lon="8.318427773192525">
        <ele>1432.02</ele>
        <time>2018-05-06T11:49:19Z</time>
      </trkpt>
      <trkpt lat="45.883471118286252" lon="8.318422911688685">
        <ele>1429.6199999999999</ele>
        <time>2018-05-06T11:49:30Z</time>
      </trkpt>
      <trkpt lat="45.883460054174066" lon="8.318490218371153">
        <ele>1427.7</ele>
        <time>2018-05-06T11:49:41Z</time>
      </trkpt>
      <trkpt lat="45.883451588451862" lon="8.318525087088347">
        <ele>1426.25</ele>
        <time>2018-05-06T11:49:48Z</time>
      </trkpt>
      <trkpt lat="45.883431052789092" lon="8.318521231412888">
        <ele>1425.77</ele>
        <time>2018-05-06T11:49:56Z</time>
      </trkpt>
      <trkpt lat="45.88339232839644" lon="8.31855651922524">
        <ele>1423.3699999999999</ele>
        <time>2018-05-06T11:50:05Z</time>
      </trkpt>
      <trkpt lat="45.883394759148359" lon="8.318611169233918">
        <ele>1421.9300000000001</ele>
        <time>2018-05-06T11:50:17Z</time>
      </trkpt>
      <trkpt lat="45.883370786905289" lon="8.318670261651278">
        <ele>1419.52</ele>
        <time>2018-05-06T11:50:26Z</time>
      </trkpt>
      <trkpt lat="45.883336085826159" lon="8.318676128983498">
        <ele>1418.0799999999999</ele>
        <time>2018-05-06T11:50:36Z</time>
      </trkpt>
      <trkpt lat="45.883292332291603" lon="8.318743100389838">
        <ele>1415.6800000000001</ele>
        <time>2018-05-06T11:50:47Z</time>
      </trkpt>
      <trkpt lat="45.883270958438516" lon="8.318771263584495">
        <ele>1414.72</ele>
        <time>2018-05-06T11:50:51Z</time>
      </trkpt>
      <trkpt lat="45.883248159661889" lon="8.318882323801518">
        <ele>1412.79</ele>
        <time>2018-05-06T11:51:03Z</time>
      </trkpt>
      <trkpt lat="45.883213626220822" lon="8.318933118134737">
        <ele>1411.3499999999999</ele>
        <time>2018-05-06T11:51:10Z</time>
      </trkpt>
      <trkpt lat="45.883226450532675" lon="8.319070665165782">
        <ele>1408.47</ele>
        <time>2018-05-06T11:51:23Z</time>
      </trkpt>
      <trkpt lat="45.883208094164729" lon="8.319161105901003">
        <ele>1407.03</ele>
        <time>2018-05-06T11:51:33Z</time>
      </trkpt>
      <trkpt lat="45.883203400298953" lon="8.319242745637894">
        <ele>1406.0699999999999</ele>
        <time>2018-05-06T11:51:42Z</time>
      </trkpt>
      <trkpt lat="45.883201640099287" lon="8.3193114772439">
        <ele>1405.0999999999999</ele>
        <time>2018-05-06T11:51:52Z</time>
      </trkpt>
      <trkpt lat="45.883178757503629" lon="8.319424381479621">
        <ele>1403.1800000000001</ele>
        <time>2018-05-06T11:52:02Z</time>
      </trkpt>
      <trkpt lat="45.883177919313312" lon="8.319512223824859">
        <ele>1402.7</ele>
        <time>2018-05-06T11:52:11Z</time>
      </trkpt>
      <trkpt lat="45.883199293166399" lon="8.319566203281283">
        <ele>1401.74</ele>
        <time>2018-05-06T11:52:21Z</time>
      </trkpt>
      <trkpt lat="45.883174231275916" lon="8.319658488035202">
        <ele>1400.78</ele>
        <time>2018-05-06T11:52:32Z</time>
      </trkpt>
      <trkpt lat="45.883128298446536" lon="8.319682376459241">
        <ele>1399.8199999999999</ele>
        <time>2018-05-06T11:52:42Z</time>
      </trkpt>
      <trkpt lat="45.883117653429508" lon="8.319758484140039">
        <ele>1399.3399999999999</ele>
        <time>2018-05-06T11:52:51Z</time>
      </trkpt>
      <trkpt lat="45.883134417235851" lon="8.319829730316997">
        <ele>1397.8900000000001</ele>
        <time>2018-05-06T11:53:01Z</time>
      </trkpt>
      <trkpt lat="45.883147241547704" lon="8.319898042827845">
        <ele>1396.9300000000001</ele>
        <time>2018-05-06T11:53:12Z</time>
      </trkpt>
      <trkpt lat="45.883111618459225" lon="8.319940455257893">
        <ele>1395.97</ele>
        <time>2018-05-06T11:53:20Z</time>
      </trkpt>
      <trkpt lat="45.883105918765068" lon="8.32002243027091">
        <ele>1393.5699999999999</ele>
        <time>2018-05-06T11:53:30Z</time>
      </trkpt>
      <trkpt lat="45.883102566003799" lon="8.320087306201458">
        <ele>1392.1300000000001</ele>
        <time>2018-05-06T11:53:40Z</time>
      </trkpt>
      <trkpt lat="45.883087394759059" lon="8.320132317021489">
        <ele>1391.1700000000001</ele>
        <time>2018-05-06T11:53:50Z</time>
      </trkpt>
      <trkpt lat="45.883069122210145" lon="8.320179171860218">
        <ele>1389.24</ele>
        <time>2018-05-06T11:53:58Z</time>
      </trkpt>
      <trkpt lat="45.883080689236522" lon="8.320218315348029">
        <ele>1387.8</ele>
        <time>2018-05-06T11:54:09Z</time>
      </trkpt>
      <trkpt lat="45.883111618459225" lon="8.320218315348029">
        <ele>1386.3599999999999</ele>
        <time>2018-05-06T11:54:20Z</time>
      </trkpt>
      <trkpt lat="45.883155204355717" lon="8.32024522125721">
        <ele>1383.96</ele>
        <time>2018-05-06T11:54:34Z</time>
      </trkpt>
      <trkpt lat="45.883206333965063" lon="8.320232732221484">
        <ele>1381.55</ele>
        <time>2018-05-06T11:54:46Z</time>
      </trkpt>
      <trkpt lat="45.883220583200455" lon="8.320326525717974">
        <ele>1379.1500000000001</ele>
        <time>2018-05-06T11:54:57Z</time>
      </trkpt>
      <trkpt lat="45.883194599300623" lon="8.320422498509288">
        <ele>1376.26</ele>
        <time>2018-05-06T11:55:09Z</time>
      </trkpt>
      <trkpt lat="45.883129304274917" lon="8.320539090782404">
        <ele>1374.8199999999999</ele>
        <time>2018-05-06T11:55:22Z</time>
      </trkpt>
      <trkpt lat="45.883089993149042" lon="8.320577312260866">
        <ele>1373.8599999999999</ele>
        <time>2018-05-06T11:55:29Z</time>
      </trkpt>
      <trkpt lat="45.883031487464905" lon="8.320636907592416">
        <ele>1371.46</ele>
        <time>2018-05-06T11:55:41Z</time>
      </trkpt>
      <trkpt lat="45.883034337311983" lon="8.320695664733648">
        <ele>1369.54</ele>
        <time>2018-05-06T11:55:50Z</time>
      </trkpt>
      <trkpt lat="45.883006928488612" lon="8.320762300863862">
        <ele>1367.6099999999999</ele>
        <time>2018-05-06T11:56:01Z</time>
      </trkpt>
      <trkpt lat="45.88295211084187" lon="8.320813179016113">
        <ele>1364.73</ele>
        <time>2018-05-06T11:56:14Z</time>
      </trkpt>
      <trkpt lat="45.882942723110318" lon="8.320927508175373">
        <ele>1362.8099999999999</ele>
        <time>2018-05-06T11:56:25Z</time>
      </trkpt>
      <trkpt lat="45.882938029244542" lon="8.320951899513602">
        <ele>1362.3299999999999</ele>
        <time>2018-05-06T11:56:27Z</time>
      </trkpt>
      <trkpt lat="45.882916152477264" lon="8.32109204493463">
        <ele>1360.8800000000001</ele>
        <time>2018-05-06T11:56:41Z</time>
      </trkpt>
      <trkpt lat="45.882973903790116" lon="8.321115178987384">
        <ele>1358.48</ele>
        <time>2018-05-06T11:56:51Z</time>
      </trkpt>
      <trkpt lat="45.8830542024225" lon="8.32108760252595">
        <ele>1357.52</ele>
        <time>2018-05-06T11:57:04Z</time>
      </trkpt>
      <trkpt lat="45.883113797754049" lon="8.321070251986384">
        <ele>1355.1199999999999</ele>
        <time>2018-05-06T11:57:16Z</time>
      </trkpt>
      <trkpt lat="45.883147995918989" lon="8.321040496230125">
        <ele>1352.23</ele>
        <time>2018-05-06T11:57:28Z</time>
      </trkpt>
      <trkpt lat="45.883212620392442" lon="8.321066396310926">
        <ele>1349.3499999999999</ele>
        <time>2018-05-06T11:57:40Z</time>
      </trkpt>
      <trkpt lat="45.883206585422158" lon="8.32114040851593">
        <ele>1347.9100000000001</ele>
        <time>2018-05-06T11:57:49Z</time>
      </trkpt>
      <trkpt lat="45.883173141628504" lon="8.321192460134625">
        <ele>1346.9400000000001</ele>
        <time>2018-05-06T11:57:59Z</time>
      </trkpt>
      <trkpt lat="45.883140284568071" lon="8.32125817425549">
        <ele>1345.02</ele>
        <time>2018-05-06T11:58:09Z</time>
      </trkpt>
      <trkpt lat="45.883131064474583" lon="8.321325732395053">
        <ele>1342.6199999999999</ele>
        <time>2018-05-06T11:58:21Z</time>
      </trkpt>
      <trkpt lat="45.883134752511978" lon="8.321366887539625">
        <ele>1341.1800000000001</ele>
        <time>2018-05-06T11:58:33Z</time>
      </trkpt>
      <trkpt lat="45.883154449984431" lon="8.321412317454815">
        <ele>1338.77</ele>
        <time>2018-05-06T11:58:44Z</time>
      </trkpt>
      <trkpt lat="45.88315143249929" lon="8.321509463712573">
        <ele>1336.8499999999999</ele>
        <time>2018-05-06T11:58:56Z</time>
      </trkpt>
      <trkpt lat="45.883178170770407" lon="8.321565706282854">
        <ele>1333.97</ele>
        <time>2018-05-06T11:59:08Z</time>
      </trkpt>
      <trkpt lat="45.883173309266567" lon="8.321662601083517">
        <ele>1331.5599999999999</ele>
        <time>2018-05-06T11:59:19Z</time>
      </trkpt>
      <trkpt lat="45.883128382265568" lon="8.321760166436434">
        <ele>1329.6400000000001</ele>
        <time>2018-05-06T11:59:31Z</time>
      </trkpt>
      <trkpt lat="45.883087897673249" lon="8.321816911920905">
        <ele>1328.2</ele>
        <time>2018-05-06T11:59:40Z</time>
      </trkpt>
      <trkpt lat="45.883060740306973" lon="8.321890672668815">
        <ele>1326.28</ele>
        <time>2018-05-06T11:59:51Z</time>
      </trkpt>
      <trkpt lat="45.883061327040195" lon="8.321933588013053">
        <ele>1324.3499999999999</ele>
        <time>2018-05-06T12:00:01Z</time>
      </trkpt>
      <trkpt lat="45.88299703784287" lon="8.322022017091513">
        <ele>1321.95</ele>
        <time>2018-05-06T12:00:12Z</time>
      </trkpt>
      <trkpt lat="45.882952697575092" lon="8.322098376229405">
        <ele>1319.55</ele>
        <time>2018-05-06T12:00:23Z</time>
      </trkpt>
      <trkpt lat="45.882964180782437" lon="8.322174651548266">
        <ele>1317.1400000000001</ele>
        <time>2018-05-06T12:00:33Z</time>
      </trkpt>
      <trkpt lat="45.882940208539367" lon="8.32225251942873">
        <ele>1314.74</ele>
        <time>2018-05-06T12:00:45Z</time>
      </trkpt>
      <trkpt lat="45.882929312065244" lon="8.322331225499511">
        <ele>1312.8199999999999</ele>
        <time>2018-05-06T12:00:55Z</time>
      </trkpt>
      <trkpt lat="45.88289980776608" lon="8.322391742840409">
        <ele>1311.8599999999999</ele>
        <time>2018-05-06T12:01:01Z</time>
      </trkpt>
      <trkpt lat="45.882856892421842" lon="8.322441698983312">
        <ele>1310.4100000000001</ele>
        <time>2018-05-06T12:01:11Z</time>
      </trkpt>
      <trkpt lat="45.882806684821844" lon="8.322533145546913">
        <ele>1308.49</ele>
        <time>2018-05-06T12:01:21Z</time>
      </trkpt>
      <trkpt lat="45.882745245471597" lon="8.32261017523706">
        <ele>1306.0899999999999</ele>
        <time>2018-05-06T12:01:33Z</time>
      </trkpt>
      <trkpt lat="45.882736863568425" lon="8.322655437514186">
        <ele>1305.1300000000001</ele>
        <time>2018-05-06T12:01:38Z</time>
      </trkpt>
      <trkpt lat="45.882725547999144" lon="8.322781668975949">
        <ele>1302.24</ele>
        <time>2018-05-06T12:01:50Z</time>
      </trkpt>
      <trkpt lat="45.882692942395806" lon="8.322923155501485">
        <ele>1299.3599999999999</ele>
        <time>2018-05-06T12:02:02Z</time>
      </trkpt>
      <trkpt lat="45.88265891186893" lon="8.323013344779611">
        <ele>1297.9200000000001</ele>
        <time>2018-05-06T12:02:12Z</time>
      </trkpt>
      <trkpt lat="45.88259881362319" lon="8.323120214045048">
        <ele>1295.03</ele>
        <time>2018-05-06T12:02:25Z</time>
      </trkpt>
      <trkpt lat="45.882583893835545" lon="8.323255330324173">
        <ele>1292.6300000000001</ele>
        <time>2018-05-06T12:02:38Z</time>
      </trkpt>
      <trkpt lat="45.882596215233207" lon="8.323309058323503">
        <ele>1292.1500000000001</ele>
        <time>2018-05-06T12:02:43Z</time>
      </trkpt>
      <trkpt lat="45.882609207183123" lon="8.323462028056383">
        <ele>1292.6300000000001</ele>
        <time>2018-05-06T12:02:54Z</time>
      </trkpt>
      <trkpt lat="45.882574506103992" lon="8.323647854849696">
        <ele>1293.5899999999999</ele>
        <time>2018-05-06T12:03:07Z</time>
      </trkpt>
      <trkpt lat="45.882515078410506" lon="8.323734942823649">
        <ele>1292.6300000000001</ele>
        <time>2018-05-06T12:03:18Z</time>
      </trkpt>
      <trkpt lat="45.882465457543731" lon="8.323835525661707">
        <ele>1291.6700000000001</ele>
        <time>2018-05-06T12:03:26Z</time>
      </trkpt>
      <trkpt lat="45.882426649332047" lon="8.32396762445569">
        <ele>1291.1900000000001</ele>
        <time>2018-05-06T12:03:35Z</time>
      </trkpt>
      <trkpt lat="45.882431427016854" lon="8.324142470955849">
        <ele>1291.6700000000001</ele>
        <time>2018-05-06T12:03:48Z</time>
      </trkpt>
      <trkpt lat="45.882421787828207" lon="8.324292926117778">
        <ele>1290.23</ele>
        <time>2018-05-06T12:03:59Z</time>
      </trkpt>
      <trkpt lat="45.882392367348075" lon="8.324349671602249">
        <ele>1290.23</ele>
        <time>2018-05-06T12:04:04Z</time>
      </trkpt>
      <trkpt lat="45.882333107292652" lon="8.324494259431958">
        <ele>1288.78</ele>
        <time>2018-05-06T12:04:17Z</time>
      </trkpt>
      <trkpt lat="45.882293041795492" lon="8.32464287057519">
        <ele>1286.8599999999999</ele>
        <time>2018-05-06T12:04:29Z</time>
      </trkpt>
      <trkpt lat="45.882229758426547" lon="8.324791062623262">
        <ele>1285.4200000000001</ele>
        <time>2018-05-06T12:04:42Z</time>
      </trkpt>
      <trkpt lat="45.882224142551422" lon="8.324789134785533">
        <ele>1283.98</ele>
        <time>2018-05-06T12:04:53Z</time>
      </trkpt>
      <trkpt lat="45.882194302976131" lon="8.324764659628272">
        <ele>1283.98</ele>
        <time>2018-05-06T12:05:19Z</time>
      </trkpt>
      <trkpt lat="45.882180808112025" lon="8.324794080108404">
        <ele>1284.9400000000001</ele>
        <time>2018-05-06T12:05:33Z</time>
      </trkpt>
      <trkpt lat="45.882174270227551" lon="8.324819393455982">
        <ele>1284.46</ele>
        <time>2018-05-06T12:05:52Z</time>
      </trkpt>
      <trkpt lat="45.882184831425548" lon="8.324827775359154">
        <ele>1283.98</ele>
        <time>2018-05-06T12:06:09Z</time>
      </trkpt>
      <trkpt lat="45.882218023762107" lon="8.324783015996218">
        <ele>1283.98</ele>
        <time>2018-05-06T12:06:36Z</time>
      </trkpt>
      <trkpt lat="45.882206289097667" lon="8.324778992682695">
        <ele>1285.4200000000001</ele>
        <time>2018-05-06T12:07:01Z</time>
      </trkpt>
      <trkpt lat="45.88218248449266" lon="8.324770694598556">
        <ele>1283.98</ele>
        <time>2018-05-06T12:07:22Z</time>
      </trkpt>
      <trkpt lat="45.882184328511357" lon="8.324776059016585">
        <ele>1283.98</ele>
        <time>2018-05-06T12:07:40Z</time>
      </trkpt>
      <trkpt lat="45.882131857797503" lon="8.32481193356216">
        <ele>1283.98</ele>
        <time>2018-05-06T12:08:00Z</time>
      </trkpt>
      <trkpt lat="45.882092965766788" lon="8.324860716238618">
        <ele>1283.98</ele>
        <time>2018-05-06T12:08:24Z</time>
      </trkpt>
      <trkpt lat="45.882058935239911" lon="8.32486373372376">
        <ele>1283.98</ele>
        <time>2018-05-06T12:08:52Z</time>
      </trkpt>
      <trkpt lat="45.882067317143083" lon="8.324851831421256">
        <ele>1283.98</ele>
        <time>2018-05-06T12:09:18Z</time>
      </trkpt>
      <trkpt lat="45.882092211395502" lon="8.324765413999558">
        <ele>1283.98</ele>
        <time>2018-05-06T12:09:46Z</time>
      </trkpt>
      <trkpt lat="45.882080895826221" lon="8.324819141998887">
        <ele>1284.46</ele>
        <time>2018-05-06T12:10:11Z</time>
      </trkpt>
      <trkpt lat="45.882086679339409" lon="8.324817884713411">
        <ele>1284.9400000000001</ele>
        <time>2018-05-06T12:10:37Z</time>
      </trkpt>
      <trkpt lat="45.882101096212864" lon="8.324799276888371">
        <ele>1285.4200000000001</ele>
        <time>2018-05-06T12:11:09Z</time>
      </trkpt>
      <trkpt lat="45.882106963545084" lon="8.324795756489039">
        <ele>1285.9000000000001</ele>
        <time>2018-05-06T12:11:37Z</time>
      </trkpt>
      <trkpt lat="45.882119033485651" lon="8.324789553880692">
        <ele>1286.8599999999999</ele>
        <time>2018-05-06T12:12:12Z</time>
      </trkpt>
      <trkpt lat="45.882124397903681" lon="8.324806988239288">
        <ele>1286.8599999999999</ele>
        <time>2018-05-06T12:12:43Z</time>
      </trkpt>
      <trkpt lat="45.88213118724525" lon="8.324796343222261">
        <ele>1287.3399999999999</ele>
        <time>2018-05-06T12:12:51Z</time>
      </trkpt>
      <trkpt lat="45.882133785635233" lon="8.324862979352474">
        <ele>1288.3</ele>
        <time>2018-05-06T12:13:07Z</time>
      </trkpt>
      <trkpt lat="45.882159937173128" lon="8.324836576357484">
        <ele>1287.8199999999999</ele>
        <time>2018-05-06T12:13:20Z</time>
      </trkpt>
      <trkpt lat="45.882160440087318" lon="8.324831044301391">
        <ele>1287.8199999999999</ele>
        <time>2018-05-06T12:13:33Z</time>
      </trkpt>
      <trkpt lat="45.882175359874964" lon="8.324810927733779">
        <ele>1287.3399999999999</ele>
        <time>2018-05-06T12:13:43Z</time>
      </trkpt>
      <trkpt lat="45.88211945258081" lon="8.324872618541122">
        <ele>1287.8199999999999</ele>
        <time>2018-05-06T12:13:55Z</time>
      </trkpt>
      <trkpt lat="45.882166475057602" lon="8.324986360967159">
        <ele>1287.3399999999999</ele>
        <time>2018-05-06T12:14:06Z</time>
      </trkpt>
      <trkpt lat="45.88221819140017" lon="8.325048973783851">
        <ele>1286.8599999999999</ele>
        <time>2018-05-06T12:14:14Z</time>
      </trkpt>
      <trkpt lat="45.882224729284644" lon="8.325128853321075">
        <ele>1287.8199999999999</ele>
        <time>2018-05-06T12:14:25Z</time>
      </trkpt>
      <trkpt lat="45.88222405873239" lon="8.325108988210559">
        <ele>1287.8199999999999</ele>
        <time>2018-05-06T12:14:40Z</time>
      </trkpt>
      <trkpt lat="45.882266219705343" lon="8.325150813907385">
        <ele>1286.3800000000001</ele>
        <time>2018-05-06T12:14:56Z</time>
      </trkpt>
      <trkpt lat="45.882339058443904" lon="8.325307806953788">
        <ele>1286.3800000000001</ele>
        <time>2018-05-06T12:15:08Z</time>
      </trkpt>
      <trkpt lat="45.882433438673615" lon="8.325458513572812">
        <ele>1285.9000000000001</ele>
        <time>2018-05-06T12:15:21Z</time>
      </trkpt>
      <trkpt lat="45.882505103945732" lon="8.325586672872305">
        <ele>1285.4200000000001</ele>
        <time>2018-05-06T12:15:34Z</time>
      </trkpt>
      <trkpt lat="45.882562268525362" lon="8.325688596814871">
        <ele>1285.4200000000001</ele>
        <time>2018-05-06T12:15:45Z</time>
      </trkpt>
      <trkpt lat="45.882569728419185" lon="8.325703851878643">
        <ele>1285.4200000000001</ele>
        <time>2018-05-06T12:15:56Z</time>
      </trkpt>
      <trkpt lat="45.88254801928997" lon="8.325715251266956">
        <ele>1285.4200000000001</ele>
        <time>2018-05-06T12:16:12Z</time>
      </trkpt>
      <trkpt lat="45.882614571601152" lon="8.325774846598506">
        <ele>1285.4200000000001</ele>
        <time>2018-05-06T12:16:22Z</time>
      </trkpt>
      <trkpt lat="45.882672155275941" lon="8.325823796913028">
        <ele>1284.9400000000001</ele>
        <time>2018-05-06T12:16:31Z</time>
      </trkpt>
      <trkpt lat="45.882690763100982" lon="8.325849361717701">
        <ele>1284.9400000000001</ele>
        <time>2018-05-06T12:16:33Z</time>
      </trkpt>
      <trkpt lat="45.882773995399475" lon="8.325971318408847">
        <ele>1285.4200000000001</ele>
        <time>2018-05-06T12:16:45Z</time>
      </trkpt>
      <trkpt lat="45.882849851623178" lon="8.326062429696322">
        <ele>1285.9000000000001</ele>
        <time>2018-05-06T12:16:56Z</time>
      </trkpt>
      <trkpt lat="45.882914140820503" lon="8.326191259548068">
        <ele>1285.4200000000001</ele>
        <time>2018-05-06T12:17:08Z</time>
      </trkpt>
      <trkpt lat="45.882932497188449" lon="8.326321262866259">
        <ele>1285.4200000000001</ele>
        <time>2018-05-06T12:17:17Z</time>
      </trkpt>
      <trkpt lat="45.882960492745042" lon="8.326455373317003">
        <ele>1285.4200000000001</ele>
        <time>2018-05-06T12:17:28Z</time>
      </trkpt>
      <trkpt lat="45.882959486916661" lon="8.326495606452227">
        <ele>1285.4200000000001</ele>
        <time>2018-05-06T12:17:31Z</time>
      </trkpt>
      <trkpt lat="45.882980860769749" lon="8.326673973351717">
        <ele>1285.9000000000001</ele>
        <time>2018-05-06T12:17:43Z</time>
      </trkpt>
      <trkpt lat="45.882987398654222" lon="8.326774472370744">
        <ele>1285.9000000000001</ele>
        <time>2018-05-06T12:17:53Z</time>
      </trkpt>
      <trkpt lat="45.882987650111318" lon="8.326790481805801">
        <ele>1285.9000000000001</ele>
        <time>2018-05-06T12:17:54Z</time>
      </trkpt>
      <trkpt lat="45.882991254329681" lon="8.326835744082928">
        <ele>1286.3800000000001</ele>
        <time>2018-05-06T12:17:57Z</time>
      </trkpt>
      <trkpt lat="45.882987482473254" lon="8.327002376317978">
        <ele>1286.3800000000001</ele>
        <time>2018-05-06T12:18:09Z</time>
      </trkpt>
      <trkpt lat="45.883008185774088" lon="8.32716565579176">
        <ele>1286.3800000000001</ele>
        <time>2018-05-06T12:18:20Z</time>
      </trkpt>
      <trkpt lat="45.883009107783437" lon="8.327291551977396">
        <ele>1286.8599999999999</ele>
        <time>2018-05-06T12:18:30Z</time>
      </trkpt>
      <trkpt lat="45.883062500506639" lon="8.327451897785068">
        <ele>1286.8599999999999</ele>
        <time>2018-05-06T12:18:40Z</time>
      </trkpt>
      <trkpt lat="45.883090076968074" lon="8.327525407075882">
        <ele>1287.3399999999999</ele>
        <time>2018-05-06T12:18:45Z</time>
      </trkpt>
      <trkpt lat="45.883113797754049" lon="8.327590534463525">
        <ele>1287.3399999999999</ele>
        <time>2018-05-06T12:18:49Z</time>
      </trkpt>
      <trkpt lat="45.88311580941081" lon="8.327625906094909">
        <ele>1287.3399999999999</ele>
        <time>2018-05-06T12:18:51Z</time>
      </trkpt>
      <trkpt lat="45.883126622065902" lon="8.327715341001749">
        <ele>1287.8199999999999</ele>
        <time>2018-05-06T12:18:56Z</time>
      </trkpt>
      <trkpt lat="45.883146319538355" lon="8.32780578173697">
        <ele>1287.8199999999999</ele>
        <time>2018-05-06T12:19:01Z</time>
      </trkpt>
      <trkpt lat="45.883181439712644" lon="8.328022286295891">
        <ele>1287.8199999999999</ele>
        <time>2018-05-06T12:19:15Z</time>
      </trkpt>
      <trkpt lat="45.883153695613146" lon="8.328191433101893">
        <ele>1287.3399999999999</ele>
        <time>2018-05-06T12:19:26Z</time>
      </trkpt>
      <trkpt lat="45.883134417235851" lon="8.328380109742284">
        <ele>1286.3800000000001</ele>
        <time>2018-05-06T12:19:38Z</time>
      </trkpt>
      <trkpt lat="45.883111450821161" lon="8.328546239063144">
        <ele>1285.9000000000001</ele>
        <time>2018-05-06T12:19:49Z</time>
      </trkpt>
      <trkpt lat="45.883110864087939" lon="8.328710272908211">
        <ele>1285.9000000000001</ele>
        <time>2018-05-06T12:19:59Z</time>
      </trkpt>
      <trkpt lat="45.88313827291131" lon="8.328853854909539">
        <ele>1285.4200000000001</ele>
        <time>2018-05-06T12:20:09Z</time>
      </trkpt>
      <trkpt lat="45.883149672299623" lon="8.328915042802692">
        <ele>1285.4200000000001</ele>
        <time>2018-05-06T12:20:13Z</time>
      </trkpt>
      <trkpt lat="45.883198203518987" lon="8.32905862480402">
        <ele>1284.46</ele>
        <time>2018-05-06T12:20:25Z</time>
      </trkpt>
      <trkpt lat="45.883264085277915" lon="8.329194495454431">
        <ele>1283.98</ele>
        <time>2018-05-06T12:20:36Z</time>
      </trkpt>
      <trkpt lat="45.883335834369063" lon="8.329344280064106">
        <ele>1283.98</ele>
        <time>2018-05-06T12:20:48Z</time>
      </trkpt>
      <trkpt lat="45.88335033506155" lon="8.329385770484805">
        <ele>1283.98</ele>
        <time>2018-05-06T12:20:52Z</time>
      </trkpt>
      <trkpt lat="45.883385455235839" lon="8.329430110752583">
        <ele>1283.98</ele>
        <time>2018-05-06T12:20:57Z</time>
      </trkpt>
      <trkpt lat="45.883454941213131" lon="8.329575536772609">
        <ele>1283.98</ele>
        <time>2018-05-06T12:21:07Z</time>
      </trkpt>
      <trkpt lat="45.883548986166716" lon="8.329707300290465">
        <ele>1284.46</ele>
        <time>2018-05-06T12:21:18Z</time>
      </trkpt>
      <trkpt lat="45.883631967008114" lon="8.329822048544884">
        <ele>1284.9400000000001</ele>
        <time>2018-05-06T12:21:28Z</time>
      </trkpt>
      <trkpt lat="45.883700363337994" lon="8.329961020499468">
        <ele>1284.9400000000001</ele>
        <time>2018-05-06T12:21:40Z</time>
      </trkpt>
      <trkpt lat="45.883747804909945" lon="8.3301199413836">
        <ele>1284.9400000000001</ele>
        <time>2018-05-06T12:21:53Z</time>
      </trkpt>
      <trkpt lat="45.883804131299257" lon="8.330254722386599">
        <ele>1285.4200000000001</ele>
        <time>2018-05-06T12:22:03Z</time>
      </trkpt>
      <trkpt lat="45.883862720802426" lon="8.330428563058376">
        <ele>1285.4200000000001</ele>
        <time>2018-05-06T12:22:17Z</time>
      </trkpt>
      <trkpt lat="45.883899601176381" lon="8.33056409843266">
        <ele>1285.4200000000001</ele>
        <time>2018-05-06T12:22:28Z</time>
      </trkpt>
      <trkpt lat="45.883945114910603" lon="8.330734334886074">
        <ele>1284.9400000000001</ele>
        <time>2018-05-06T12:22:40Z</time>
      </trkpt>
      <trkpt lat="45.883955676108599" lon="8.330776998773217">
        <ele>1284.9400000000001</ele>
        <time>2018-05-06T12:22:43Z</time>
      </trkpt>
      <trkpt lat="45.883995741605759" lon="8.330961316823959">
        <ele>1283.98</ele>
        <time>2018-05-06T12:22:56Z</time>
      </trkpt>
      <trkpt lat="45.884030191227794" lon="8.331107497215271">
        <ele>1283.02</ele>
        <time>2018-05-06T12:23:08Z</time>
      </trkpt>
      <trkpt lat="45.884071346372366" lon="8.331240518018603">
        <ele>1281.5699999999999</ele>
        <time>2018-05-06T12:23:19Z</time>
      </trkpt>
      <trkpt lat="45.884139826521277" lon="8.331436151638627">
        <ele>1279.6500000000001</ele>
        <time>2018-05-06T12:23:33Z</time>
      </trkpt>
      <trkpt lat="45.884184585884213" lon="8.331567076966167">
        <ele>1278.21</ele>
        <time>2018-05-06T12:23:44Z</time>
      </trkpt>
      <trkpt lat="45.884299920871854" lon="8.331716023385525">
        <ele>1276.77</ele>
        <time>2018-05-06T12:23:58Z</time>
      </trkpt>
      <trkpt lat="45.884407879784703" lon="8.331816354766488">
        <ele>1275.8099999999999</ele>
        <time>2018-05-06T12:24:10Z</time>
      </trkpt>
      <trkpt lat="45.88441994972527" lon="8.33182523958385">
        <ele>1276.29</ele>
        <time>2018-05-06T12:24:11Z</time>
      </trkpt>
      <trkpt lat="45.884535619989038" lon="8.331996481865645">
        <ele>1274.8499999999999</ele>
        <time>2018-05-06T12:24:26Z</time>
      </trkpt>
      <trkpt lat="45.884605357423425" lon="8.332126401364803">
        <ele>1273.8800000000001</ele>
        <time>2018-05-06T12:24:37Z</time>
      </trkpt>
      <trkpt lat="45.884612146764994" lon="8.332140566781163">
        <ele>1273.8800000000001</ele>
        <time>2018-05-06T12:24:38Z</time>
      </trkpt>
      <trkpt lat="45.88462807238102" lon="8.332206197082996">
        <ele>1273.4000000000001</ele>
        <time>2018-05-06T12:24:42Z</time>
      </trkpt>
      <trkpt lat="45.884626731276512" lon="8.332250956445932">
        <ele>1272.9200000000001</ele>
        <time>2018-05-06T12:24:45Z</time>
      </trkpt>
      <trkpt lat="45.88462807238102" lon="8.332307366654277">
        <ele>1272.4400000000001</ele>
        <time>2018-05-06T12:24:49Z</time>
      </trkpt>
      <trkpt lat="45.884663946926594" lon="8.332532336935401">
        <ele>1271</ele>
        <time>2018-05-06T12:25:04Z</time>
      </trkpt>
      <trkpt lat="45.884691188111901" lon="8.332733670249581">
        <ele>1270.52</ele>
        <time>2018-05-06T12:25:16Z</time>
      </trkpt>
      <trkpt lat="45.884700072929263" lon="8.332914803177118">
        <ele>1269.5599999999999</ele>
        <time>2018-05-06T12:25:27Z</time>
      </trkpt>
      <trkpt lat="45.884710298851132" lon="8.333130469545722">
        <ele>1269.0799999999999</ele>
        <time>2018-05-06T12:25:40Z</time>
      </trkpt>
      <trkpt lat="45.884695379063487" lon="8.333336496725678">
        <ele>1269.0799999999999</ele>
        <time>2018-05-06T12:25:52Z</time>
      </trkpt>
      <trkpt lat="45.884653218090534" lon="8.333536572754383">
        <ele>1268.5999999999999</ele>
        <time>2018-05-06T12:26:04Z</time>
      </trkpt>
      <trkpt lat="45.884635951370001" lon="8.33374846726656">
        <ele>1268.5999999999999</ele>
        <time>2018-05-06T12:26:18Z</time>
      </trkpt>
      <trkpt lat="45.884622540324926" lon="8.333935802802444">
        <ele>1268.5999999999999</ele>
        <time>2018-05-06T12:26:31Z</time>
      </trkpt>
      <trkpt lat="45.884580463171005" lon="8.334114672616124">
        <ele>1268.5999999999999</ele>
        <time>2018-05-06T12:26:44Z</time>
      </trkpt>
      <trkpt lat="45.884542912244797" lon="8.334336122497916">
        <ele>1268.1199999999999</ele>
        <time>2018-05-06T12:26:59Z</time>
      </trkpt>
      <trkpt lat="45.884508462622762" lon="8.334504766389728">
        <ele>1268.1199999999999</ele>
        <time>2018-05-06T12:27:11Z</time>
      </trkpt>
      <trkpt lat="45.884445011615753" lon="8.334684055298567">
        <ele>1267.6400000000001</ele>
        <time>2018-05-06T12:27:25Z</time>
      </trkpt>
      <trkpt lat="45.884352810680866" lon="8.334806431084871">
        <ele>1267.6400000000001</ele>
        <time>2018-05-06T12:27:37Z</time>
      </trkpt>
      <trkpt lat="45.884229177609086" lon="8.334871558472514">
        <ele>1268.1199999999999</ele>
        <time>2018-05-06T12:27:49Z</time>
      </trkpt>
      <trkpt lat="45.884087020531297" lon="8.334931824356318">
        <ele>1268.1199999999999</ele>
        <time>2018-05-06T12:28:04Z</time>
      </trkpt>
      <trkpt lat="45.884013678878546" lon="8.335026288405061">
        <ele>1268.5999999999999</ele>
        <time>2018-05-06T12:28:15Z</time>
      </trkpt>
      <trkpt lat="45.88400898501277" lon="8.335050260648131">
        <ele>1268.1199999999999</ele>
        <time>2018-05-06T12:28:17Z</time>
      </trkpt>
      <trkpt lat="45.883950479328632" lon="8.335260897874832">
        <ele>1266.6700000000001</ele>
        <time>2018-05-06T12:28:31Z</time>
      </trkpt>
      <trkpt lat="45.883865570649505" lon="8.335449323058128">
        <ele>1266.1900000000001</ele>
        <time>2018-05-06T12:28:45Z</time>
      </trkpt>
      <trkpt lat="45.883801700547338" lon="8.335616793483496">
        <ele>1266.1900000000001</ele>
        <time>2018-05-06T12:28:57Z</time>
      </trkpt>
      <trkpt lat="45.883802454918623" lon="8.335630539804697">
        <ele>1266.1900000000001</ele>
        <time>2018-05-06T12:28:58Z</time>
      </trkpt>
      <trkpt lat="45.883807903155684" lon="8.335761046037078">
        <ele>1266.1900000000001</ele>
        <time>2018-05-06T12:29:06Z</time>
      </trkpt>
      <trkpt lat="45.883838078007102" lon="8.335895743221045">
        <ele>1267.6400000000001</ele>
        <time>2018-05-06T12:29:15Z</time>
      </trkpt>
      <trkpt lat="45.883912928402424" lon="8.336083497852087">
        <ele>1266.1900000000001</ele>
        <time>2018-05-06T12:29:28Z</time>
      </trkpt>
      <trkpt lat="45.883961627259851" lon="8.336264630779624">
        <ele>1264.75</ele>
        <time>2018-05-06T12:29:40Z</time>
      </trkpt>
      <trkpt lat="45.883970512077212" lon="8.3362952247262">
        <ele>1264.75</ele>
        <time>2018-05-06T12:29:42Z</time>
      </trkpt>
      <trkpt lat="45.884017953649163" lon="8.336396561935544">
        <ele>1264.27</ele>
        <time>2018-05-06T12:29:50Z</time>
      </trkpt>
      <trkpt lat="45.884070675820112" lon="8.336526565253735">
        <ele>1264.27</ele>
        <time>2018-05-06T12:30:01Z</time>
      </trkpt>
      <trkpt lat="45.884133540093899" lon="8.336629159748554">
        <ele>1264.27</ele>
        <time>2018-05-06T12:30:12Z</time>
      </trkpt>
      <trkpt lat="45.88417368941009" lon="8.336724461987615">
        <ele>1263.79</ele>
        <time>2018-05-06T12:30:18Z</time>
      </trkpt>
      <trkpt lat="45.884206462651491" lon="8.336930992081761">
        <ele>1263.3099999999999</ele>
        <time>2018-05-06T12:30:31Z</time>
      </trkpt>
      <trkpt lat="45.884223226457834" lon="8.337110029533505">
        <ele>1262.8299999999999</ele>
        <time>2018-05-06T12:30:45Z</time>
      </trkpt>
      <trkpt lat="45.884249629452825" lon="8.337264591827989">
        <ele>1261.8699999999999</ele>
        <time>2018-05-06T12:30:57Z</time>
      </trkpt>
      <trkpt lat="45.884259101003408" lon="8.33737313747406">
        <ele>1260.9100000000001</ele>
        <time>2018-05-06T12:31:04Z</time>
      </trkpt>
      <trkpt lat="45.884287599474192" lon="8.337572542950511">
        <ele>1259.46</ele>
        <time>2018-05-06T12:31:17Z</time>
      </trkpt>
      <trkpt lat="45.884289611130953" lon="8.337677316740155">
        <ele>1258.5</ele>
        <time>2018-05-06T12:31:24Z</time>
      </trkpt>
      <trkpt lat="45.884324815124273" lon="8.337820814922452">
        <ele>1258.02</ele>
        <time>2018-05-06T12:31:36Z</time>
      </trkpt>
      <trkpt lat="45.884355409070849" lon="8.337961547076702">
        <ele>1256.0999999999999</ele>
        <time>2018-05-06T12:31:48Z</time>
      </trkpt>
      <trkpt lat="45.884398659691215" lon="8.338099345564842">
        <ele>1255.1400000000001</ele>
        <time>2018-05-06T12:31:58Z</time>
      </trkpt>
      <trkpt lat="45.884435120970011" lon="8.338279891759157">
        <ele>1253.7</ele>
        <time>2018-05-06T12:32:10Z</time>
      </trkpt>
      <trkpt lat="45.884438389912248" lon="8.3384710829705">
        <ele>1252.25</ele>
        <time>2018-05-06T12:32:22Z</time>
      </trkpt>
      <trkpt lat="45.884413998574018" lon="8.338701417669654">
        <ele>1251.29</ele>
        <time>2018-05-06T12:32:36Z</time>
      </trkpt>
      <trkpt lat="45.884426068514585" lon="8.338911551982164">
        <ele>1250.3299999999999</ele>
        <time>2018-05-06T12:32:50Z</time>
      </trkpt>
      <trkpt lat="45.884439898654819" lon="8.339064437896013">
        <ele>1249.8499999999999</ele>
        <time>2018-05-06T12:33:01Z</time>
      </trkpt>
      <trkpt lat="45.884440569207072" lon="8.339239452034235">
        <ele>1248.8900000000001</ele>
        <time>2018-05-06T12:33:13Z</time>
      </trkpt>
      <trkpt lat="45.88444534689188" lon="8.339301478117704">
        <ele>1248.4100000000001</ele>
        <time>2018-05-06T12:33:18Z</time>
      </trkpt>
      <trkpt lat="45.884450962767005" lon="8.339408012107015">
        <ele>1246.97</ele>
        <time>2018-05-06T12:33:28Z</time>
      </trkpt>
      <trkpt lat="45.884462110698223" lon="8.339518820866942">
        <ele>1246.01</ele>
        <time>2018-05-06T12:33:37Z</time>
      </trkpt>
      <trkpt lat="45.884465547278523" lon="8.339645555242896">
        <ele>1245.04</ele>
        <time>2018-05-06T12:33:47Z</time>
      </trkpt>
      <trkpt lat="45.884470324963331" lon="8.339796848595142">
        <ele>1243.1199999999999</ele>
        <time>2018-05-06T12:33:58Z</time>
      </trkpt>
      <trkpt lat="45.884460685774684" lon="8.339944202452898">
        <ele>1241.6800000000001</ele>
        <time>2018-05-06T12:34:09Z</time>
      </trkpt>
      <trkpt lat="45.884439228102565" lon="8.340090047568083">
        <ele>1240.24</ele>
        <time>2018-05-06T12:34:20Z</time>
      </trkpt>
      <trkpt lat="45.884425230324268" lon="8.340229354798794">
        <ele>1238.8</ele>
        <time>2018-05-06T12:34:32Z</time>
      </trkpt>
      <trkpt lat="45.884429924190044" lon="8.340358268469572">
        <ele>1237.3499999999999</ele>
        <time>2018-05-06T12:34:41Z</time>
      </trkpt>
      <trkpt lat="45.884416094049811" lon="8.340490702539682">
        <ele>1236.3900000000001</ele>
        <time>2018-05-06T12:34:50Z</time>
      </trkpt>
      <trkpt lat="45.884387930855155" lon="8.340619867667556">
        <ele>1234.95</ele>
        <time>2018-05-06T12:35:00Z</time>
      </trkpt>
      <trkpt lat="45.884359516203403" lon="8.340807035565376">
        <ele>1233.03</ele>
        <time>2018-05-06T12:35:13Z</time>
      </trkpt>
      <trkpt lat="45.884345769882202" lon="8.340957406908274">
        <ele>1232.55</ele>
        <time>2018-05-06T12:35:24Z</time>
      </trkpt>
      <trkpt lat="45.884307213127613" lon="8.341134767979384">
        <ele>1231.5899999999999</ele>
        <time>2018-05-06T12:35:36Z</time>
      </trkpt>
      <trkpt lat="45.884264716878533" lon="8.341313302516937">
        <ele>1231.1099999999999</ele>
        <time>2018-05-06T12:35:49Z</time>
      </trkpt>
      <trkpt lat="45.884200008586049" lon="8.341516479849815">
        <ele>1230.1400000000001</ele>
        <time>2018-05-06T12:36:04Z</time>
      </trkpt>
      <trkpt lat="45.884185759350657" lon="8.341680597513914">
        <ele>1228.7</ele>
        <time>2018-05-06T12:36:16Z</time>
      </trkpt>
      <trkpt lat="45.884186262264848" lon="8.341732397675514">
        <ele>1228.7</ele>
        <time>2018-05-06T12:36:20Z</time>
      </trkpt>
      <trkpt lat="45.8841766230762" lon="8.341803811490536">
        <ele>1228.7</ele>
        <time>2018-05-06T12:36:26Z</time>
      </trkpt>
      <trkpt lat="45.884168660268188" lon="8.341979160904884">
        <ele>1227.74</ele>
        <time>2018-05-06T12:36:39Z</time>
      </trkpt>
      <trkpt lat="45.884173018857837" lon="8.342151157557964">
        <ele>1226.78</ele>
        <time>2018-05-06T12:36:53Z</time>
      </trkpt>
      <trkpt lat="45.884179389104247" lon="8.342294739559293">
        <ele>1225.3399999999999</ele>
        <time>2018-05-06T12:37:04Z</time>
      </trkpt>
      <trkpt lat="45.884163379669189" lon="8.342431364580989">
        <ele>1224.3800000000001</ele>
        <time>2018-05-06T12:37:16Z</time>
      </trkpt>
      <trkpt lat="45.884140245616436" lon="8.342485344037414">
        <ele>1223.9000000000001</ele>
        <time>2018-05-06T12:37:26Z</time>
      </trkpt>
      <trkpt lat="45.884135467931628" lon="8.342551812529564">
        <ele>1223.9000000000001</ele>
        <time>2018-05-06T12:37:38Z</time>
      </trkpt>
      <trkpt lat="45.884168911725283" lon="8.342718863859773">
        <ele>1222.45</ele>
        <time>2018-05-06T12:37:52Z</time>
      </trkpt>
      <trkpt lat="45.884159356355667" lon="8.342868648469448">
        <ele>1221.01</ele>
        <time>2018-05-06T12:38:04Z</time>
      </trkpt>
      <trkpt lat="45.884146196767688" lon="8.342875689268112">
        <ele>1221.01</ele>
        <time>2018-05-06T12:38:05Z</time>
      </trkpt>
      <trkpt lat="45.884122308343649" lon="8.342877617105842">
        <ele>1220.53</ele>
        <time>2018-05-06T12:38:07Z</time>
      </trkpt>
      <trkpt lat="45.884022312238812" lon="8.342756079509854">
        <ele>1219.5699999999999</ele>
        <time>2018-05-06T12:38:20Z</time>
      </trkpt>
      <trkpt lat="45.883914856240153" lon="8.342615347355604">
        <ele>1217.6500000000001</ele>
        <time>2018-05-06T12:38:36Z</time>
      </trkpt>
      <trkpt lat="45.883802874013782" lon="8.342501604929566">
        <ele>1216.21</ele>
        <time>2018-05-06T12:38:51Z</time>
      </trkpt>
      <trkpt lat="45.883679827675223" lon="8.342460449784994">
        <ele>1214.28</ele>
        <time>2018-05-06T12:39:05Z</time>
      </trkpt>
      <trkpt lat="45.883638923987746" lon="8.342454247176647">
        <ele>1213.8</ele>
        <time>2018-05-06T12:39:10Z</time>
      </trkpt>
      <trkpt lat="45.883494587615132" lon="8.342452822253108">
        <ele>1212.3599999999999</ele>
        <time>2018-05-06T12:39:26Z</time>
      </trkpt>
      <trkpt lat="45.883418479934335" lon="8.342407140880823">
        <ele>1211.4000000000001</ele>
        <time>2018-05-06T12:39:35Z</time>
      </trkpt>
      <trkpt lat="45.883387215435505" lon="8.342302618548274">
        <ele>1210.9200000000001</ele>
        <time>2018-05-06T12:39:45Z</time>
      </trkpt>
      <trkpt lat="45.883379001170397" lon="8.342256937175989">
        <ele>1210.9200000000001</ele>
        <time>2018-05-06T12:39:55Z</time>
      </trkpt>
      <trkpt lat="45.883343880996108" lon="8.342294069007039">
        <ele>1209.96</ele>
        <time>2018-05-06T12:40:08Z</time>
      </trkpt>
      <trkpt lat="45.883337007835507" lon="8.342353161424398">
        <ele>1209.96</ele>
        <time>2018-05-06T12:40:18Z</time>
      </trkpt>
      <trkpt lat="45.883325859904289" lon="8.342370260506868">
        <ele>1209.48</ele>
        <time>2018-05-06T12:40:29Z</time>
      </trkpt>
      <trkpt lat="45.883311107754707" lon="8.342395909130573">
        <ele>1208.51</ele>
        <time>2018-05-06T12:40:40Z</time>
      </trkpt>
      <trkpt lat="45.883315047249198" lon="8.342396579682827">
        <ele>1208.51</ele>
        <time>2018-05-06T12:41:09Z</time>
      </trkpt>
      <trkpt lat="45.883313957601786" lon="8.342369589954615">
        <ele>1208.51</ele>
        <time>2018-05-06T12:41:42Z</time>
      </trkpt>
      <trkpt lat="45.883309682831168" lon="8.342342851683497">
        <ele>1208.51</ele>
        <time>2018-05-06T12:41:51Z</time>
      </trkpt>
      <trkpt lat="45.883296774700284" lon="8.342344360426068">
        <ele>1209</ele>
        <time>2018-05-06T12:41:55Z</time>
      </trkpt>
      <trkpt lat="45.883310856297612" lon="8.342301193624735">
        <ele>1208.51</ele>
        <time>2018-05-06T12:42:05Z</time>
      </trkpt>
      <trkpt lat="45.883305910974741" lon="8.342294236645103">
        <ele>1208.51</ele>
        <time>2018-05-06T12:42:30Z</time>
      </trkpt>
      <trkpt lat="45.883305827155709" lon="8.34228090941906">
        <ele>1209.48</ele>
        <time>2018-05-06T12:42:49Z</time>
      </trkpt>
      <trkpt lat="45.883305910974741" lon="8.342226091772318">
        <ele>1209.48</ele>
        <time>2018-05-06T12:42:55Z</time>
      </trkpt>
      <trkpt lat="45.88321010582149" lon="8.342157360166311">
        <ele>1208.51</ele>
        <time>2018-05-06T12:43:06Z</time>
      </trkpt>
      <trkpt lat="45.883130980655551" lon="8.342073792591691">
        <ele>1208.03</ele>
        <time>2018-05-06T12:43:20Z</time>
      </trkpt>
      <trkpt lat="45.883152354508638" lon="8.342054095119238">
        <ele>1207.55</ele>
        <time>2018-05-06T12:43:33Z</time>
      </trkpt>
      <trkpt lat="45.883192839100957" lon="8.342099525034428">
        <ele>1208.03</ele>
        <time>2018-05-06T12:43:43Z</time>
      </trkpt>
      <trkpt lat="45.88319594040513" lon="8.342102793976665">
        <ele>1208.03</ele>
        <time>2018-05-06T12:43:47Z</time>
      </trkpt>
      <trkpt lat="45.883264755830169" lon="8.3421700168401">
        <ele>1209</ele>
        <time>2018-05-06T12:43:56Z</time>
      </trkpt>
      <trkpt lat="45.883280262351036" lon="8.342203963547945">
        <ele>1209</ele>
        <time>2018-05-06T12:43:59Z</time>
      </trkpt>
      <trkpt lat="45.883307000622153" lon="8.342242268845439">
        <ele>1209</ele>
        <time>2018-05-06T12:44:09Z</time>
      </trkpt>
      <trkpt lat="45.883303564041853" lon="8.342241179198027">
        <ele>1209</ele>
        <time>2018-05-06T12:44:27Z</time>
      </trkpt>
      <trkpt lat="45.883308425545692" lon="8.342205556109548">
        <ele>1209</ele>
        <time>2018-05-06T12:44:44Z</time>
      </trkpt>
      <trkpt lat="45.883308928459883" lon="8.342192312702537">
        <ele>1209</ele>
        <time>2018-05-06T12:45:06Z</time>
      </trkpt>
      <trkpt lat="45.883304318413138" lon="8.342186948284507">
        <ele>1209.96</ele>
        <time>2018-05-06T12:45:24Z</time>
      </trkpt>
      <trkpt lat="45.883328542113304" lon="8.342266492545605">
        <ele>1209.48</ele>
        <time>2018-05-06T12:45:32Z</time>
      </trkpt>
      <trkpt lat="45.883268779143691" lon="8.342337822541595">
        <ele>1209</ele>
        <time>2018-05-06T12:45:42Z</time>
      </trkpt>
      <trkpt lat="45.883243884891272" lon="8.342323489487171">
        <ele>1208.51</ele>
        <time>2018-05-06T12:45:51Z</time>
      </trkpt>
      <trkpt lat="45.883211530745029" lon="8.342345701530576">
        <ele>1207.55</ele>
        <time>2018-05-06T12:46:00Z</time>
      </trkpt>
      <trkpt lat="45.883173309266567" lon="8.342412589117885">
        <ele>1207.55</ele>
        <time>2018-05-06T12:46:35Z</time>
      </trkpt>
      <trkpt lat="45.883150845766068" lon="8.342427341267467">
        <ele>1207.55</ele>
        <time>2018-05-06T12:47:02Z</time>
      </trkpt>
      <trkpt lat="45.883129555732012" lon="8.342442763969302">
        <ele>1207.55</ele>
        <time>2018-05-06T12:47:23Z</time>
      </trkpt>
      <trkpt lat="45.883134584873915" lon="8.342493306845427">
        <ele>1207.55</ele>
        <time>2018-05-06T12:47:55Z</time>
      </trkpt>
      <trkpt lat="45.883114133030176" lon="8.342533707618713">
        <ele>1208.03</ele>
        <time>2018-05-06T12:48:21Z</time>
      </trkpt>
      <trkpt lat="45.883096111938357" lon="8.342527253553271">
        <ele>1208.03</ele>
        <time>2018-05-06T12:48:49Z</time>
      </trkpt>
      <trkpt lat="45.883081275969744" lon="8.342523565515876">
        <ele>1208.51</ele>
        <time>2018-05-06T12:49:19Z</time>
      </trkpt>
      <trkpt lat="45.883090998977423" lon="8.342505879700184">
        <ele>1209</ele>
        <time>2018-05-06T12:49:42Z</time>
      </trkpt>
      <trkpt lat="45.883108517155051" lon="8.342510741204023">
        <ele>1209.48</ele>
        <time>2018-05-06T12:49:54Z</time>
      </trkpt>
      <trkpt lat="45.883137434720993" lon="8.342480314895511">
        <ele>1209.96</ele>
        <time>2018-05-06T12:50:09Z</time>
      </trkpt>
      <trkpt lat="45.883172638714314" lon="8.342455169185996">
        <ele>1210.9200000000001</ele>
        <time>2018-05-06T12:50:22Z</time>
      </trkpt>
      <trkpt lat="45.883320579305291" lon="8.34227504208684">
        <ele>1210.9200000000001</ele>
        <time>2018-05-06T12:50:38Z</time>
      </trkpt>
      <trkpt lat="45.883368691429496" lon="8.34230781532824">
        <ele>1211.4000000000001</ele>
        <time>2018-05-06T12:50:47Z</time>
      </trkpt>
      <trkpt lat="45.883417725563049" lon="8.342373445630074">
        <ele>1211.8800000000001</ele>
        <time>2018-05-06T12:50:56Z</time>
      </trkpt>
      <trkpt lat="45.883476566523314" lon="8.342372523620725">
        <ele>1212.8399999999999</ele>
        <time>2018-05-06T12:51:06Z</time>
      </trkpt>
      <trkpt lat="45.883520990610123" lon="8.342411415651441">
        <ele>1213.3199999999999</ele>
        <time>2018-05-06T12:51:12Z</time>
      </trkpt>
      <trkpt lat="45.8836361579597" lon="8.342420216649771">
        <ele>1214.28</ele>
        <time>2018-05-06T12:51:24Z</time>
      </trkpt>
      <trkpt lat="45.883665578439832" lon="8.342435387894511">
        <ele>1214.28</ele>
        <time>2018-05-06T12:51:31Z</time>
      </trkpt>
      <trkpt lat="45.88373783044517" lon="8.342448966577649">
        <ele>1215.24</ele>
        <time>2018-05-06T12:51:41Z</time>
      </trkpt>
      <trkpt lat="45.883816620334983" lon="8.342493809759617">
        <ele>1216.6900000000001</ele>
        <time>2018-05-06T12:51:52Z</time>
      </trkpt>
      <trkpt lat="45.88388292118907" lon="8.342521972954273">
        <ele>1217.1700000000001</ele>
        <time>2018-05-06T12:52:02Z</time>
      </trkpt>
      <trkpt lat="45.883938912302256" lon="8.34258190356195">
        <ele>1218.1300000000001</ele>
        <time>2018-05-06T12:52:09Z</time>
      </trkpt>
      <trkpt lat="45.883966321125627" lon="8.342646528035402">
        <ele>1218.6099999999999</ele>
        <time>2018-05-06T12:52:17Z</time>
      </trkpt>
      <trkpt lat="45.883998004719615" lon="8.342669410631061">
        <ele>1218.6099999999999</ele>
        <time>2018-05-06T12:52:21Z</time>
      </trkpt>
      <trkpt lat="45.884060030803084" lon="8.342762868851423">
        <ele>1219.5699999999999</ele>
        <time>2018-05-06T12:52:29Z</time>
      </trkpt>
      <trkpt lat="45.8841438498348" lon="8.342874264344573">
        <ele>1221.01</ele>
        <time>2018-05-06T12:52:41Z</time>
      </trkpt>
      <trkpt lat="45.884174024686217" lon="8.342931848019362">
        <ele>1221.01</ele>
        <time>2018-05-06T12:52:46Z</time>
      </trkpt>
      <trkpt lat="45.884127505123615" lon="8.343095295131207">
        <ele>1219.5699999999999</ele>
        <time>2018-05-06T12:52:56Z</time>
      </trkpt>
      <trkpt lat="45.884062713012099" lon="8.34326108917594">
        <ele>1218.1300000000001</ele>
        <time>2018-05-06T12:53:09Z</time>
      </trkpt>
      <trkpt lat="45.884035807102919" lon="8.343349937349558">
        <ele>1216.6900000000001</ele>
        <time>2018-05-06T12:53:16Z</time>
      </trkpt>
      <trkpt lat="45.884024910628796" lon="8.343452112749219">
        <ele>1215.72</ele>
        <time>2018-05-06T12:53:23Z</time>
      </trkpt>
      <trkpt lat="45.884029101580381" lon="8.343480778858066">
        <ele>1215.72</ele>
        <time>2018-05-06T12:53:25Z</time>
      </trkpt>
      <trkpt lat="45.884010577574372" lon="8.343539871275425">
        <ele>1216.6900000000001</ele>
        <time>2018-05-06T12:53:29Z</time>
      </trkpt>
      <trkpt lat="45.883982749655843" lon="8.343661408871412">
        <ele>1214.76</ele>
        <time>2018-05-06T12:53:39Z</time>
      </trkpt>
      <trkpt lat="45.883971014991403" lon="8.343685464933515">
        <ele>1214.76</ele>
        <time>2018-05-06T12:53:41Z</time>
      </trkpt>
      <trkpt lat="45.883941845968366" lon="8.343772049993277">
        <ele>1213.8</ele>
        <time>2018-05-06T12:53:49Z</time>
      </trkpt>
      <trkpt lat="45.883909743279219" lon="8.343910770490766">
        <ele>1212.8399999999999</ele>
        <time>2018-05-06T12:54:01Z</time>
      </trkpt>
      <trkpt lat="45.883836233988404" lon="8.344036918133497">
        <ele>1212.3599999999999</ele>
        <time>2018-05-06T12:54:11Z</time>
      </trkpt>
      <trkpt lat="45.883761551231146" lon="8.344143452122808">
        <ele>1211.4000000000001</ele>
        <time>2018-05-06T12:54:22Z</time>
      </trkpt>
      <trkpt lat="45.883720479905605" lon="8.344212686643004">
        <ele>1209.48</ele>
        <time>2018-05-06T12:54:32Z</time>
      </trkpt>
      <trkpt lat="45.883678067475557" lon="8.344268342480063">
        <ele>1208.51</ele>
        <time>2018-05-06T12:54:39Z</time>
      </trkpt>
      <trkpt lat="45.883624171838164" lon="8.34435367025435">
        <ele>1206.1099999999999</ele>
        <time>2018-05-06T12:54:51Z</time>
      </trkpt>
      <trkpt lat="45.883626937866211" lon="8.34449976682663">
        <ele>1204.6700000000001</ele>
        <time>2018-05-06T12:55:03Z</time>
      </trkpt>
      <trkpt lat="45.883636996150017" lon="8.344646282494068">
        <ele>1202.75</ele>
        <time>2018-05-06T12:55:16Z</time>
      </trkpt>
      <trkpt lat="45.883643114939332" lon="8.344771843403578">
        <ele>1200.8199999999999</ele>
        <time>2018-05-06T12:55:27Z</time>
      </trkpt>
      <trkpt lat="45.883640516549349" lon="8.344907127320766">
        <ele>1198.9000000000001</ele>
        <time>2018-05-06T12:55:39Z</time>
      </trkpt>
      <trkpt lat="45.883646802976727" lon="8.345068981871009">
        <ele>1197.9400000000001</ele>
        <time>2018-05-06T12:55:51Z</time>
      </trkpt>
      <trkpt lat="45.883664824068546" lon="8.345191441476345">
        <ele>1197.46</ele>
        <time>2018-05-06T12:55:59Z</time>
      </trkpt>
      <trkpt lat="45.883671445772052" lon="8.345339633524418">
        <ele>1196.98</ele>
        <time>2018-05-06T12:56:09Z</time>
      </trkpt>
      <trkpt lat="45.883679240942001" lon="8.345441641286016">
        <ele>1196.02</ele>
        <time>2018-05-06T12:56:18Z</time>
      </trkpt>
      <trkpt lat="45.883685946464539" lon="8.345549935474992">
        <ele>1196.02</ele>
        <time>2018-05-06T12:56:30Z</time>
      </trkpt>
      <trkpt lat="45.883682761341333" lon="8.345664767548442">
        <ele>1196.5</ele>
        <time>2018-05-06T12:56:38Z</time>
      </trkpt>
      <trkpt lat="45.883666081354022" lon="8.345822095870972">
        <ele>1196.02</ele>
        <time>2018-05-06T12:56:48Z</time>
      </trkpt>
      <trkpt lat="45.883611934259534" lon="8.345950171351433">
        <ele>1195.54</ele>
        <time>2018-05-06T12:56:58Z</time>
      </trkpt>
      <trkpt lat="45.883507831022143" lon="8.346005575731397">
        <ele>1195.0599999999999</ele>
        <time>2018-05-06T12:57:09Z</time>
      </trkpt>
      <trkpt lat="45.883357794955373" lon="8.346117809414864">
        <ele>1195.0599999999999</ele>
        <time>2018-05-06T12:57:22Z</time>
      </trkpt>
      <trkpt lat="45.883316555991769" lon="8.346263822168112">
        <ele>1194.0899999999999</ele>
        <time>2018-05-06T12:57:35Z</time>
      </trkpt>
      <trkpt lat="45.88332099840045" lon="8.346371026709676">
        <ele>1194.0899999999999</ele>
        <time>2018-05-06T12:57:43Z</time>
      </trkpt>
      <trkpt lat="45.883335582911968" lon="8.346576383337379">
        <ele>1193.1300000000001</ele>
        <time>2018-05-06T12:57:57Z</time>
      </trkpt>
      <trkpt lat="45.88335033506155" lon="8.346756845712662">
        <ele>1192.1700000000001</ele>
        <time>2018-05-06T12:58:10Z</time>
      </trkpt>
      <trkpt lat="45.883371373638511" lon="8.34691065363586">
        <ele>1191.21</ele>
        <time>2018-05-06T12:58:21Z</time>
      </trkpt>
      <trkpt lat="45.883355028927326" lon="8.347099749371409">
        <ele>1190.73</ele>
        <time>2018-05-06T12:58:33Z</time>
      </trkpt>
      <trkpt lat="45.883294679224491" lon="8.347266465425491">
        <ele>1189.77</ele>
        <time>2018-05-06T12:58:45Z</time>
      </trkpt>
      <trkpt lat="45.883259307593107" lon="8.34742228500545">
        <ele>1189.29</ele>
        <time>2018-05-06T12:58:57Z</time>
      </trkpt>
      <trkpt lat="45.883256373926997" lon="8.347539966925979">
        <ele>1189.29</ele>
        <time>2018-05-06T12:59:08Z</time>
      </trkpt>
      <trkpt lat="45.883258804678917" lon="8.347560502588749">
        <ele>1189.29</ele>
        <time>2018-05-06T12:59:11Z</time>
      </trkpt>
      <trkpt lat="45.883237263187766" lon="8.347631581127644">
        <ele>1189.29</ele>
        <time>2018-05-06T12:59:19Z</time>
      </trkpt>
      <trkpt lat="45.883235586807132" lon="8.347660331055522">
        <ele>1189.29</ele>
        <time>2018-05-06T12:59:21Z</time>
      </trkpt>
      <trkpt lat="45.883145900443196" lon="8.347779773175716">
        <ele>1189.29</ele>
        <time>2018-05-06T12:59:32Z</time>
      </trkpt>
      <trkpt lat="45.883033499121666" lon="8.347834339365363">
        <ele>1188.8099999999999</ele>
        <time>2018-05-06T12:59:43Z</time>
      </trkpt>
      <trkpt lat="45.882921516895294" lon="8.347905669361353">
        <ele>1187.3699999999999</ele>
        <time>2018-05-06T12:59:55Z</time>
      </trkpt>
      <trkpt lat="45.882858904078603" lon="8.347982782870531">
        <ele>1185.9200000000001</ele>
        <time>2018-05-06T13:00:04Z</time>
      </trkpt>
      <trkpt lat="45.882784556597471" lon="8.348099123686552">
        <ele>1184.96</ele>
        <time>2018-05-06T13:00:16Z</time>
      </trkpt>
      <trkpt lat="45.882717585191131" lon="8.3482157997787">
        <ele>1184.96</ele>
        <time>2018-05-06T13:00:26Z</time>
      </trkpt>
      <trkpt lat="45.882658157497644" lon="8.348380168899894">
        <ele>1184.96</ele>
        <time>2018-05-06T13:00:38Z</time>
      </trkpt>
      <trkpt lat="45.882605854421854" lon="8.348542442545295">
        <ele>1184.48</ele>
        <time>2018-05-06T13:00:50Z</time>
      </trkpt>
      <trkpt lat="45.882592527195811" lon="8.348586950451136">
        <ele>1184.48</ele>
        <time>2018-05-06T13:00:53Z</time>
      </trkpt>
      <trkpt lat="45.882525388151407" lon="8.348765736445785">
        <ele>1184</ele>
        <time>2018-05-06T13:01:06Z</time>
      </trkpt>
      <trkpt lat="45.882492531090975" lon="8.348916862159967">
        <ele>1182.0799999999999</ele>
        <time>2018-05-06T13:01:17Z</time>
      </trkpt>
      <trkpt lat="45.882516503334045" lon="8.349078297615051">
        <ele>1181.1199999999999</ele>
        <time>2018-05-06T13:01:29Z</time>
      </trkpt>
      <trkpt lat="45.882540475577116" lon="8.349216179922223">
        <ele>1180.1600000000001</ele>
        <time>2018-05-06T13:01:39Z</time>
      </trkpt>
      <trkpt lat="45.882551707327366" lon="8.349270578473806">
        <ele>1179.6700000000001</ele>
        <time>2018-05-06T13:01:43Z</time>
      </trkpt>
      <trkpt lat="45.882612811401486" lon="8.34941491484642">
        <ele>1179.1900000000001</ele>
        <time>2018-05-06T13:01:54Z</time>
      </trkpt>
      <trkpt lat="45.882663102820516" lon="8.349546426907182">
        <ele>1178.71</ele>
        <time>2018-05-06T13:02:05Z</time>
      </trkpt>
      <trkpt lat="45.882721859961748" lon="8.349654469639063">
        <ele>1178.23</ele>
        <time>2018-05-06T13:02:14Z</time>
      </trkpt>
      <trkpt lat="45.882790004834533" lon="8.349775169044733">
        <ele>1177.75</ele>
        <time>2018-05-06T13:02:24Z</time>
      </trkpt>
      <trkpt lat="45.882798722013831" lon="8.349790005013347">
        <ele>1177.75</ele>
        <time>2018-05-06T13:02:25Z</time>
      </trkpt>
      <trkpt lat="45.882834931835532" lon="8.349831411615014">
        <ele>1177.27</ele>
        <time>2018-05-06T13:02:29Z</time>
      </trkpt>
      <trkpt lat="45.882864855229855" lon="8.349868794903159">
        <ele>1177.27</ele>
        <time>2018-05-06T13:02:33Z</time>
      </trkpt>
      <trkpt lat="45.882888240739703" lon="8.349907184019685">
        <ele>1177.27</ele>
        <time>2018-05-06T13:02:36Z</time>
      </trkpt>
      <trkpt lat="45.882962420582771" lon="8.350014975294471">
        <ele>1176.79</ele>
        <time>2018-05-06T13:02:47Z</time>
      </trkpt>
      <trkpt lat="45.883036265149713" lon="8.350148079916835">
        <ele>1176.3099999999999</ele>
        <time>2018-05-06T13:02:58Z</time>
      </trkpt>
      <trkpt lat="45.883066775277257" lon="8.350281352177262">
        <ele>1175.8299999999999</ele>
        <time>2018-05-06T13:03:07Z</time>
      </trkpt>
      <trkpt lat="45.883080689236522" lon="8.350459970533848">
        <ele>1174.3900000000001</ele>
        <time>2018-05-06T13:03:18Z</time>
      </trkpt>
      <trkpt lat="45.883121090009809" lon="8.350612185895443">
        <ele>1173.4300000000001</ele>
        <time>2018-05-06T13:03:30Z</time>
      </trkpt>
      <trkpt lat="45.883193928748369" lon="8.350712768733501">
        <ele>1171.98</ele>
        <time>2018-05-06T13:03:40Z</time>
      </trkpt>
      <trkpt lat="45.883248494938016" lon="8.350774627178907">
        <ele>1171.98</ele>
        <time>2018-05-06T13:03:46Z</time>
      </trkpt>
      <trkpt lat="45.883298283442855" lon="8.350905468687415">
        <ele>1172.47</ele>
        <time>2018-05-06T13:03:57Z</time>
      </trkpt>
      <trkpt lat="45.883275317028165" lon="8.351029185578227">
        <ele>1172.47</ele>
        <time>2018-05-06T13:04:08Z</time>
      </trkpt>
      <trkpt lat="45.883199796080589" lon="8.351169666275382">
        <ele>1171.02</ele>
        <time>2018-05-06T13:04:19Z</time>
      </trkpt>
      <trkpt lat="45.883195186033845" lon="8.351198667660356">
        <ele>1170.54</ele>
        <time>2018-05-06T13:04:21Z</time>
      </trkpt>
      <trkpt lat="45.883133076131344" lon="8.351374939084053">
        <ele>1170.54</ele>
        <time>2018-05-06T13:04:34Z</time>
      </trkpt>
      <trkpt lat="45.883123017847538" lon="8.351571159437299">
        <ele>1170.54</ele>
        <time>2018-05-06T13:04:48Z</time>
      </trkpt>
      <trkpt lat="45.88313827291131" lon="8.351634694263339">
        <ele>1170.0599999999999</ele>
        <time>2018-05-06T13:04:53Z</time>
      </trkpt>
      <trkpt lat="45.883176494389772" lon="8.351759668439627">
        <ele>1169.5799999999999</ele>
        <time>2018-05-06T13:05:03Z</time>
      </trkpt>
      <trkpt lat="45.883188312873244" lon="8.351853461936116">
        <ele>1168.6199999999999</ele>
        <time>2018-05-06T13:05:14Z</time>
      </trkpt>
      <trkpt lat="45.883181355893612" lon="8.351863352581859">
        <ele>1168.6199999999999</ele>
        <time>2018-05-06T13:05:15Z</time>
      </trkpt>
      <trkpt lat="45.883144391700625" lon="8.351975083351135">
        <ele>1170.0599999999999</ele>
        <time>2018-05-06T13:05:27Z</time>
      </trkpt>
      <trkpt lat="45.883100470528007" lon="8.352044820785523">
        <ele>1171.98</ele>
        <time>2018-05-06T13:05:36Z</time>
      </trkpt>
      <trkpt lat="45.883055878803134" lon="8.352030990645289">
        <ele>1171.5</ele>
        <time>2018-05-06T13:05:44Z</time>
      </trkpt>
      <trkpt lat="45.882969545200467" lon="8.351983465254307">
        <ele>1169.0999999999999</ele>
        <time>2018-05-06T13:05:57Z</time>
      </trkpt>
      <trkpt lat="45.882906848564744" lon="8.351987572386861">
        <ele>1167.6600000000001</ele>
        <time>2018-05-06T13:06:06Z</time>
      </trkpt>
      <trkpt lat="45.882889581844211" lon="8.351980615407229">
        <ele>1167.1800000000001</ele>
        <time>2018-05-06T13:06:08Z</time>
      </trkpt>
      <trkpt lat="45.882774665951729" lon="8.351985393092036">
        <ele>1167.1800000000001</ele>
        <time>2018-05-06T13:06:19Z</time>
      </trkpt>
      <trkpt lat="45.882701827213168" lon="8.351917499676347">
        <ele>1166.22</ele>
        <time>2018-05-06T13:06:28Z</time>
      </trkpt>
      <trkpt lat="45.882580038160086" lon="8.351949602365494">
        <ele>1166.22</ele>
        <time>2018-05-06T13:06:39Z</time>
      </trkpt>
      <trkpt lat="45.882550785318017" lon="8.351958822458983">
        <ele>1166.22</ele>
        <time>2018-05-06T13:06:42Z</time>
      </trkpt>
      <trkpt lat="45.882531758397818" lon="8.351961420848966">
        <ele>1166.22</ele>
        <time>2018-05-06T13:06:44Z</time>
      </trkpt>
      <trkpt lat="45.882434612140059" lon="8.352108774706721">
        <ele>1166.7</ele>
        <time>2018-05-06T13:06:55Z</time>
      </trkpt>
      <trkpt lat="45.882377363741398" lon="8.3522186614573">
        <ele>1167.1800000000001</ele>
        <time>2018-05-06T13:07:03Z</time>
      </trkpt>
      <trkpt lat="45.882315756753087" lon="8.352369787171483">
        <ele>1167.1800000000001</ele>
        <time>2018-05-06T13:07:14Z</time>
      </trkpt>
      <trkpt lat="45.882293209433556" lon="8.352525858208537">
        <ele>1167.1800000000001</ele>
        <time>2018-05-06T13:07:25Z</time>
      </trkpt>
      <trkpt lat="45.882280049845576" lon="8.352579921483994">
        <ele>1167.1800000000001</ele>
        <time>2018-05-06T13:07:29Z</time>
      </trkpt>
      <trkpt lat="45.882262783125043" lon="8.352664243429899">
        <ele>1168.1400000000001</ele>
        <time>2018-05-06T13:07:37Z</time>
      </trkpt>
      <trkpt lat="45.882226740941405" lon="8.352809585630894">
        <ele>1167.1800000000001</ele>
        <time>2018-05-06T13:07:49Z</time>
      </trkpt>
      <trkpt lat="45.882213078439236" lon="8.352932464331389">
        <ele>1166.22</ele>
        <time>2018-05-06T13:07:59Z</time>
      </trkpt>
      <trkpt lat="45.882180724292994" lon="8.353065317496657">
        <ele>1166.7</ele>
        <time>2018-05-06T13:08:10Z</time>
      </trkpt>
      <trkpt lat="45.882164295762777" lon="8.353158691897988">
        <ele>1167.1800000000001</ele>
        <time>2018-05-06T13:08:20Z</time>
      </trkpt>
      <trkpt lat="45.882145268842578" lon="8.353197248652577">
        <ele>1167.6600000000001</ele>
        <time>2018-05-06T13:08:24Z</time>
      </trkpt>
      <trkpt lat="45.882058180868626" lon="8.353261286392808">
        <ele>1167.6600000000001</ele>
        <time>2018-05-06T13:08:34Z</time>
      </trkpt>
      <trkpt lat="45.882006296887994" lon="8.353294311091304">
        <ele>1167.6600000000001</ele>
        <time>2018-05-06T13:08:42Z</time>
      </trkpt>
      <trkpt lat="45.881930105388165" lon="8.353353403508663">
        <ele>1168.1400000000001</ele>
        <time>2018-05-06T13:08:52Z</time>
      </trkpt>
      <trkpt lat="45.881850477308035" lon="8.35341920144856">
        <ele>1168.6199999999999</ele>
        <time>2018-05-06T13:09:04Z</time>
      </trkpt>
      <trkpt lat="45.881747044622898" lon="8.353440156206489">
        <ele>1168.6199999999999</ele>
        <time>2018-05-06T13:09:16Z</time>
      </trkpt>
      <trkpt lat="45.88163573294878" lon="8.353461027145386">
        <ele>1168.6199999999999</ele>
        <time>2018-05-06T13:09:27Z</time>
      </trkpt>
      <trkpt lat="45.881604216992855" lon="8.353448286652565">
        <ele>1168.6199999999999</ele>
        <time>2018-05-06T13:09:35Z</time>
      </trkpt>
      <trkpt lat="45.881594158709049" lon="8.353439820930362">
        <ele>1168.6199999999999</ele>
        <time>2018-05-06T13:09:36Z</time>
      </trkpt>
      <trkpt lat="45.881516793742776" lon="8.353403694927692">
        <ele>1168.6199999999999</ele>
        <time>2018-05-06T13:09:42Z</time>
      </trkpt>
      <trkpt lat="45.881434734910727" lon="8.353338902816176">
        <ele>1169.0999999999999</ele>
        <time>2018-05-06T13:09:49Z</time>
      </trkpt>
      <trkpt lat="45.881406236439943" lon="8.3533307723701">
        <ele>1169.0999999999999</ele>
        <time>2018-05-06T13:09:51Z</time>
      </trkpt>
      <trkpt lat="45.881306072697043" lon="8.353286515921354">
        <ele>1168.6199999999999</ele>
        <time>2018-05-06T13:10:02Z</time>
      </trkpt>
      <trkpt lat="45.881183948367834" lon="8.353257346898317">
        <ele>1168.6199999999999</ele>
        <time>2018-05-06T13:10:15Z</time>
      </trkpt>
      <trkpt lat="45.881055286154151" lon="8.353215521201491">
        <ele>1168.6199999999999</ele>
        <time>2018-05-06T13:10:27Z</time>
      </trkpt>
      <trkpt lat="45.880979597568512" lon="8.35320521146059">
        <ele>1169.0999999999999</ele>
        <time>2018-05-06T13:10:35Z</time>
      </trkpt>
      <trkpt lat="45.880942801013589" lon="8.353212252259255">
        <ele>1169.0999999999999</ele>
        <time>2018-05-06T13:10:39Z</time>
      </trkpt>
      <trkpt lat="45.880835009738803" lon="8.353242091834545">
        <ele>1169.0999999999999</ele>
        <time>2018-05-06T13:10:49Z</time>
      </trkpt>
      <trkpt lat="45.88075471110642" lon="8.353286096826196">
        <ele>1169.0999999999999</ele>
        <time>2018-05-06T13:10:59Z</time>
      </trkpt>
      <trkpt lat="45.880642728880048" lon="8.353316271677613">
        <ele>1168.1400000000001</ele>
        <time>2018-05-06T13:11:11Z</time>
      </trkpt>
      <trkpt lat="45.880517167970538" lon="8.353406880050898">
        <ele>1167.1800000000001</ele>
        <time>2018-05-06T13:11:24Z</time>
      </trkpt>
      <trkpt lat="45.880449609830976" lon="8.353454153984785">
        <ele>1166.22</ele>
        <time>2018-05-06T13:11:33Z</time>
      </trkpt>
      <trkpt lat="45.880380291491747" lon="8.353516599163413">
        <ele>1165.26</ele>
        <time>2018-05-06T13:11:43Z</time>
      </trkpt>
      <trkpt lat="45.880347518250346" lon="8.353578457608819">
        <ele>1164.77</ele>
        <time>2018-05-06T13:11:48Z</time>
      </trkpt>
      <trkpt lat="45.880306530743837" lon="8.353685243055224">
        <ele>1163.8099999999999</ele>
        <time>2018-05-06T13:11:57Z</time>
      </trkpt>
      <trkpt lat="45.880286078900099" lon="8.353774258866906">
        <ele>1163.3299999999999</ele>
        <time>2018-05-06T13:12:07Z</time>
      </trkpt>
      <trkpt lat="45.880275266245008" lon="8.353828741237521">
        <ele>1163.3299999999999</ele>
        <time>2018-05-06T13:12:11Z</time>
      </trkpt>
      <trkpt lat="45.880222041159868" lon="8.354017585515976">
        <ele>1162.8499999999999</ele>
        <time>2018-05-06T13:12:22Z</time>
      </trkpt>
      <trkpt lat="45.88015272282064" lon="8.354164436459541">
        <ele>1162.8499999999999</ele>
        <time>2018-05-06T13:12:33Z</time>
      </trkpt>
      <trkpt lat="45.880109388381243" lon="8.354226294904947">
        <ele>1163.3299999999999</ele>
        <time>2018-05-06T13:12:40Z</time>
      </trkpt>
      <trkpt lat="45.880049541592598" lon="8.354292931035161">
        <ele>1163.3299999999999</ele>
        <time>2018-05-06T13:12:49Z</time>
      </trkpt>
      <trkpt lat="45.879929345101118" lon="8.354455539956689">
        <ele>1163.3299999999999</ele>
        <time>2018-05-06T13:13:02Z</time>
      </trkpt>
      <trkpt lat="45.879916939884424" lon="8.354485128074884">
        <ele>1162.8499999999999</ele>
        <time>2018-05-06T13:13:05Z</time>
      </trkpt>
      <trkpt lat="45.879874611273408" lon="8.354633739218116">
        <ele>1162.8499999999999</ele>
        <time>2018-05-06T13:13:15Z</time>
      </trkpt>
      <trkpt lat="45.879868660122156" lon="8.354679001495242">
        <ele>1162.8499999999999</ele>
        <time>2018-05-06T13:13:18Z</time>
      </trkpt>
      <trkpt lat="45.879855332896113" lon="8.354739854112268">
        <ele>1162.3699999999999</ele>
        <time>2018-05-06T13:13:22Z</time>
      </trkpt>
      <trkpt lat="45.879816859960556" lon="8.354922663420439">
        <ele>1161.4100000000001</ele>
        <time>2018-05-06T13:13:34Z</time>
      </trkpt>
      <trkpt lat="45.879831528291106" lon="8.355066915974021">
        <ele>1160.9300000000001</ele>
        <time>2018-05-06T13:13:44Z</time>
      </trkpt>
      <trkpt lat="45.879766819998622" lon="8.355201277881861">
        <ele>1159.01</ele>
        <time>2018-05-06T13:13:56Z</time>
      </trkpt>
      <trkpt lat="45.879739159718156" lon="8.355270847678185">
        <ele>1157.5599999999999</ele>
        <time>2018-05-06T13:14:03Z</time>
      </trkpt>
      <trkpt lat="45.879669589921832" lon="8.355357935652137">
        <ele>1155.6400000000001</ele>
        <time>2018-05-06T13:14:13Z</time>
      </trkpt>
      <trkpt lat="45.879659280180931" lon="8.355497578158975">
        <ele>1153.72</ele>
        <time>2018-05-06T13:14:24Z</time>
      </trkpt>
      <trkpt lat="45.879671853035688" lon="8.355544013902545">
        <ele>1152.76</ele>
        <time>2018-05-06T13:14:33Z</time>
      </trkpt>
      <trkpt lat="45.879625752568245" lon="8.355594137683511">
        <ele>1151.8</ele>
        <time>2018-05-06T13:14:42Z</time>
      </trkpt>
      <trkpt lat="45.879602786153555" lon="8.35573679767549">
        <ele>1150.8399999999999</ele>
        <time>2018-05-06T13:14:51Z</time>
      </trkpt>
      <trkpt lat="45.879577975720167" lon="8.355817096307874">
        <ele>1149.8699999999999</ele>
        <time>2018-05-06T13:14:57Z</time>
      </trkpt>
      <trkpt lat="45.879523241892457" lon="8.355894712731242">
        <ele>1148.4300000000001</ele>
        <time>2018-05-06T13:15:06Z</time>
      </trkpt>
      <trkpt lat="45.879511591047049" lon="8.355932598933578">
        <ele>1147.95</ele>
        <time>2018-05-06T13:15:09Z</time>
      </trkpt>
      <trkpt lat="45.879445793107152" lon="8.356054555624723">
        <ele>1146.99</ele>
        <time>2018-05-06T13:15:20Z</time>
      </trkpt>
      <trkpt lat="45.879342360422015" lon="8.35615748539567">
        <ele>1145.55</ele>
        <time>2018-05-06T13:15:29Z</time>
      </trkpt>
      <trkpt lat="45.879234736785293" lon="8.356289668008685">
        <ele>1146.03</ele>
        <time>2018-05-06T13:15:42Z</time>
      </trkpt>
      <trkpt lat="45.87914471514523" lon="8.356367452070117">
        <ele>1142.6600000000001</ele>
        <time>2018-05-06T13:15:52Z</time>
      </trkpt>
      <trkpt lat="45.879138177260756" lon="8.356472896412015">
        <ele>1141.7</ele>
        <time>2018-05-06T13:16:00Z</time>
      </trkpt>
      <trkpt lat="45.879147564992309" lon="8.356678672134876">
        <ele>1139.78</ele>
        <time>2018-05-06T13:16:14Z</time>
      </trkpt>
      <trkpt lat="45.879165083169937" lon="8.3567448053509">
        <ele>1138.8199999999999</ele>
        <time>2018-05-06T13:16:20Z</time>
      </trkpt>
      <trkpt lat="45.879202131181955" lon="8.356869444251061">
        <ele>1137.3800000000001</ele>
        <time>2018-05-06T13:16:30Z</time>
      </trkpt>
      <trkpt lat="45.879202969372272" lon="8.35698033683002">
        <ele>1136.4200000000001</ele>
        <time>2018-05-06T13:16:42Z</time>
      </trkpt>
      <trkpt lat="45.8792067412287" lon="8.357120733708143">
        <ele>1134.97</ele>
        <time>2018-05-06T13:16:53Z</time>
      </trkpt>
      <trkpt lat="45.879219816997647" lon="8.357151579111815">
        <ele>1134.49</ele>
        <time>2018-05-06T13:16:57Z</time>
      </trkpt>
      <trkpt lat="45.879283351823688" lon="8.357202541083098">
        <ele>1133.05</ele>
        <time>2018-05-06T13:17:06Z</time>
      </trkpt>
      <trkpt lat="45.879353675991297" lon="8.357323491945863">
        <ele>1132.0899999999999</ele>
        <time>2018-05-06T13:17:19Z</time>
      </trkpt>
      <trkpt lat="45.879294415935874" lon="8.357380824163556">
        <ele>1130.6500000000001</ele>
        <time>2018-05-06T13:17:29Z</time>
      </trkpt>
      <trkpt lat="45.879273796454072" lon="8.357411418110132">
        <ele>1130.1700000000001</ele>
        <time>2018-05-06T13:17:35Z</time>
      </trkpt>
      <trkpt lat="45.879143541678786" lon="8.357591796666384">
        <ele>1129.6900000000001</ele>
        <time>2018-05-06T13:17:45Z</time>
      </trkpt>
      <trkpt lat="45.879084030166268" lon="8.357700174674392">
        <ele>1129.6900000000001</ele>
        <time>2018-05-06T13:17:53Z</time>
      </trkpt>
      <trkpt lat="45.878987303003669" lon="8.357679387554526">
        <ele>1129.21</ele>
        <time>2018-05-06T13:18:02Z</time>
      </trkpt>
      <trkpt lat="45.878912033513188" lon="8.357602944597602">
        <ele>1129.21</ele>
        <time>2018-05-06T13:18:09Z</time>
      </trkpt>
      <trkpt lat="45.878813294693828" lon="8.357529016211629">
        <ele>1127.28</ele>
        <time>2018-05-06T13:18:21Z</time>
      </trkpt>
      <trkpt lat="45.878746323287487" lon="8.357503451406956">
        <ele>1126.3199999999999</ele>
        <time>2018-05-06T13:18:28Z</time>
      </trkpt>
      <trkpt lat="45.878644231706858" lon="8.357512839138508">
        <ele>1124.8800000000001</ele>
        <time>2018-05-06T13:18:39Z</time>
      </trkpt>
      <trkpt lat="45.878591006621718" lon="8.35752859711647">
        <ele>1123.9200000000001</ele>
        <time>2018-05-06T13:18:47Z</time>
      </trkpt>
      <trkpt lat="45.878501739352942" lon="8.357551731169224">
        <ele>1122.48</ele>
        <time>2018-05-06T13:18:56Z</time>
      </trkpt>
      <trkpt lat="45.878447340801358" lon="8.357564974576235">
        <ele>1122</ele>
        <time>2018-05-06T13:19:01Z</time>
      </trkpt>
      <trkpt lat="45.878334436565638" lon="8.357595400884748">
        <ele>1121.52</ele>
        <time>2018-05-06T13:19:10Z</time>
      </trkpt>
      <trkpt lat="45.878239218145609" lon="8.357622306793928">
        <ele>1120.55</ele>
        <time>2018-05-06T13:19:18Z</time>
      </trkpt>
      <trkpt lat="45.878165457397699" lon="8.357669748365879">
        <ele>1119.5899999999999</ele>
        <time>2018-05-06T13:19:28Z</time>
      </trkpt>
      <trkpt lat="45.87814156897366" lon="8.357698079198599">
        <ele>1119.1099999999999</ele>
        <time>2018-05-06T13:19:32Z</time>
      </trkpt>
      <trkpt lat="45.87805992923677" lon="8.357767565175891">
        <ele>1118.1500000000001</ele>
        <time>2018-05-06T13:19:43Z</time>
      </trkpt>
      <trkpt lat="45.877950042486191" lon="8.357877787202597">
        <ele>1115.75</ele>
        <time>2018-05-06T13:19:55Z</time>
      </trkpt>
      <trkpt lat="45.877893045544624" lon="8.357946518808603">
        <ele>1113.8199999999999</ele>
        <time>2018-05-06T13:20:05Z</time>
      </trkpt>
      <trkpt lat="45.877885166555643" lon="8.357955235987902">
        <ele>1113.3399999999999</ele>
        <time>2018-05-06T13:20:06Z</time>
      </trkpt>
      <trkpt lat="45.877847028896213" lon="8.357987171038985">
        <ele>1111.9000000000001</ele>
        <time>2018-05-06T13:20:12Z</time>
      </trkpt>
      <trkpt lat="45.877784499898553" lon="8.358109211549163">
        <ele>1110.46</ele>
        <time>2018-05-06T13:20:26Z</time>
      </trkpt>
      <trkpt lat="45.877775950357318" lon="8.358152713626623">
        <ele>1110.46</ele>
        <time>2018-05-06T13:20:30Z</time>
      </trkpt>
      <trkpt lat="45.877761533483863" lon="8.358199987560511">
        <ele>1109.5</ele>
        <time>2018-05-06T13:20:34Z</time>
      </trkpt>
      <trkpt lat="45.877856835722923" lon="8.358283722773194">
        <ele>1107.5799999999999</ele>
        <time>2018-05-06T13:20:46Z</time>
      </trkpt>
      <trkpt lat="45.877971248701215" lon="8.358350610360503">
        <ele>1105.1700000000001</ele>
        <time>2018-05-06T13:20:58Z</time>
      </trkpt>
      <trkpt lat="45.878037298098207" lon="8.358395118266344">
        <ele>1104.6900000000001</ele>
        <time>2018-05-06T13:21:07Z</time>
      </trkpt>
      <trkpt lat="45.878138802945614" lon="8.358436021953821">
        <ele>1104.6900000000001</ele>
        <time>2018-05-06T13:21:18Z</time>
      </trkpt>
      <trkpt lat="45.878232764080167" lon="8.358508441597223">
        <ele>1103.25</ele>
        <time>2018-05-06T13:21:27Z</time>
      </trkpt>
      <trkpt lat="45.878243409097195" lon="8.358525037765503">
        <ele>1102.77</ele>
        <time>2018-05-06T13:21:29Z</time>
      </trkpt>
      <trkpt lat="45.878307111561298" lon="8.358631739392877">
        <ele>1100.8499999999999</ele>
        <time>2018-05-06T13:21:38Z</time>
      </trkpt>
      <trkpt lat="45.878340220078826" lon="8.358682869002223">
        <ele>1100.3699999999999</ele>
        <time>2018-05-06T13:21:42Z</time>
      </trkpt>
      <trkpt lat="45.878385985270143" lon="8.358796527609229">
        <ele>1098.4400000000001</ele>
        <time>2018-05-06T13:21:52Z</time>
      </trkpt>
      <trkpt lat="45.878432504832745" lon="8.358885627239943">
        <ele>1096.04</ele>
        <time>2018-05-06T13:22:05Z</time>
      </trkpt>
      <trkpt lat="45.878434265032411" lon="8.359006242826581">
        <ele>1094.5999999999999</ele>
        <time>2018-05-06T13:22:15Z</time>
      </trkpt>
      <trkpt lat="45.878458824008703" lon="8.359051505103707">
        <ele>1093.6400000000001</ele>
        <time>2018-05-06T13:22:25Z</time>
      </trkpt>
      <trkpt lat="45.878461673855782" lon="8.359098359942436">
        <ele>1092.2</ele>
        <time>2018-05-06T13:22:35Z</time>
      </trkpt>
      <trkpt lat="45.878443149849772" lon="8.359184190630913">
        <ele>1090.27</ele>
        <time>2018-05-06T13:22:43Z</time>
      </trkpt>
      <trkpt lat="45.878414148464799" lon="8.359289970248938">
        <ele>1088.8299999999999</ele>
        <time>2018-05-06T13:22:52Z</time>
      </trkpt>
      <trkpt lat="45.878412472084165" lon="8.359302207827568">
        <ele>1088.8299999999999</ele>
        <time>2018-05-06T13:22:53Z</time>
      </trkpt>
      <trkpt lat="45.878373580053449" lon="8.359439000487328">
        <ele>1087.8699999999999</ele>
        <time>2018-05-06T13:23:04Z</time>
      </trkpt>
      <trkpt lat="45.878363354131579" lon="8.359518796205521">
        <ele>1087.8699999999999</ele>
        <time>2018-05-06T13:23:14Z</time>
      </trkpt>
      <trkpt lat="45.878307530656457" lon="8.359611248597503">
        <ele>1086.4300000000001</ele>
        <time>2018-05-06T13:23:23Z</time>
      </trkpt>
      <trkpt lat="45.878270398825407" lon="8.359661791473627">
        <ele>1084.99</ele>
        <time>2018-05-06T13:23:31Z</time>
      </trkpt>
      <trkpt lat="45.878248857334256" lon="8.359681824222207">
        <ele>1084.5</ele>
        <time>2018-05-06T13:23:35Z</time>
      </trkpt>
      <trkpt lat="45.878203427419066" lon="8.359753154218197">
        <ele>1082.5799999999999</ele>
        <time>2018-05-06T13:23:44Z</time>
      </trkpt>
      <trkpt lat="45.878112483769655" lon="8.359781568869948">
        <ele>1081.1400000000001</ele>
        <time>2018-05-06T13:23:53Z</time>
      </trkpt>
      <trkpt lat="45.878065042197704" lon="8.359838062897325">
        <ele>1078.74</ele>
        <time>2018-05-06T13:24:03Z</time>
      </trkpt>
      <trkpt lat="45.878050960600376" lon="8.359878044575453">
        <ele>1077.29</ele>
        <time>2018-05-06T13:24:11Z</time>
      </trkpt>
      <trkpt lat="45.878023467957973" lon="8.359917271882296">
        <ele>1076.3299999999999</ele>
        <time>2018-05-06T13:24:20Z</time>
      </trkpt>
      <trkpt lat="45.877960100769997" lon="8.360010562464595">
        <ele>1073.9300000000001</ele>
        <time>2018-05-06T13:24:30Z</time>
      </trkpt>
      <trkpt lat="45.877930764108896" lon="8.360104858875275">
        <ele>1072.01</ele>
        <time>2018-05-06T13:24:40Z</time>
      </trkpt>
      <trkpt lat="45.877938140183687" lon="8.360218517482281">
        <ele>1070.5699999999999</ele>
        <time>2018-05-06T13:24:50Z</time>
      </trkpt>
      <trkpt lat="45.877934703603387" lon="8.360444912686944">
        <ele>1068.6400000000001</ele>
        <time>2018-05-06T13:25:02Z</time>
      </trkpt>
      <trkpt lat="45.877917017787695" lon="8.360502496361733">
        <ele>1067.2</ele>
        <time>2018-05-06T13:25:09Z</time>
      </trkpt>
      <trkpt lat="45.877919616177678" lon="8.360572652891278">
        <ele>1065.76</ele>
        <time>2018-05-06T13:25:19Z</time>
      </trkpt>
      <trkpt lat="45.877899751067162" lon="8.360610958188772">
        <ele>1064.8</ele>
        <time>2018-05-06T13:25:23Z</time>
      </trkpt>
      <trkpt lat="45.87782783433795" lon="8.360707685351372">
        <ele>1063.3599999999999</ele>
        <time>2018-05-06T13:25:34Z</time>
      </trkpt>
      <trkpt lat="45.877786343917251" lon="8.360798629000783">
        <ele>1061.9100000000001</ele>
        <time>2018-05-06T13:25:42Z</time>
      </trkpt>
      <trkpt lat="45.877722725272179" lon="8.360897116363049">
        <ele>1061.4300000000001</ele>
        <time>2018-05-06T13:25:49Z</time>
      </trkpt>
      <trkpt lat="45.877602277323604" lon="8.361152932047844">
        <ele>1059.99</ele>
        <time>2018-05-06T13:26:00Z</time>
      </trkpt>
      <trkpt lat="45.877557015046477" lon="8.361272122710943">
        <ele>1058.55</ele>
        <time>2018-05-06T13:26:11Z</time>
      </trkpt>
      <trkpt lat="45.877602025866508" lon="8.361352169886231">
        <ele>1056.6300000000001</ele>
        <time>2018-05-06T13:26:22Z</time>
      </trkpt>
      <trkpt lat="45.877621974796057" lon="8.361373795196414">
        <ele>1056.1500000000001</ele>
        <time>2018-05-06T13:26:25Z</time>
      </trkpt>
      <trkpt lat="45.877678217366338" lon="8.361464152112603">
        <ele>1054.22</ele>
        <time>2018-05-06T13:26:34Z</time>
      </trkpt>
      <trkpt lat="45.877681402489543" lon="8.361603375524283">
        <ele>1053.26</ele>
        <time>2018-05-06T13:26:42Z</time>
      </trkpt>
      <trkpt lat="45.87765047326684" lon="8.361772857606411">
        <ele>1052.3</ele>
        <time>2018-05-06T13:26:54Z</time>
      </trkpt>
      <trkpt lat="45.877637984231114" lon="8.361889449879527">
        <ele>1050.8599999999999</ele>
        <time>2018-05-06T13:27:04Z</time>
      </trkpt>
      <trkpt lat="45.877639995887876" lon="8.362018615007401">
        <ele>1049.4200000000001</ele>
        <time>2018-05-06T13:27:14Z</time>
      </trkpt>
      <trkpt lat="45.877642929553986" lon="8.36212364025414">
        <ele>1048.45</ele>
        <time>2018-05-06T13:27:21Z</time>
      </trkpt>
      <trkpt lat="45.877610994502902" lon="8.362250961363316">
        <ele>1047.01</ele>
        <time>2018-05-06T13:27:31Z</time>
      </trkpt>
      <trkpt lat="45.877590291202068" lon="8.362363195046783">
        <ele>1045.5699999999999</ele>
        <time>2018-05-06T13:27:40Z</time>
      </trkpt>
      <trkpt lat="45.877586519345641" lon="8.362376522272825">
        <ele>1045.5699999999999</ele>
        <time>2018-05-06T13:27:41Z</time>
      </trkpt>
      <trkpt lat="45.877570006996393" lon="8.362506944686174">
        <ele>1044.1300000000001</ele>
        <time>2018-05-06T13:27:51Z</time>
      </trkpt>
      <trkpt lat="45.877544609829783" lon="8.362620268017054">
        <ele>1041.73</ele>
        <time>2018-05-06T13:28:01Z</time>
      </trkpt>
      <trkpt lat="45.877503706142306" lon="8.362720599398017">
        <ele>1039.8</ele>
        <time>2018-05-06T13:28:10Z</time>
      </trkpt>
      <trkpt lat="45.877478895708919" lon="8.362863762304187">
        <ele>1038.3599999999999</ele>
        <time>2018-05-06T13:28:20Z</time>
      </trkpt>
      <trkpt lat="45.877452157437801" lon="8.362960238009691">
        <ele>1036.9200000000001</ele>
        <time>2018-05-06T13:28:28Z</time>
      </trkpt>
      <trkpt lat="45.877413516864181" lon="8.363121505826712">
        <ele>1035</ele>
        <time>2018-05-06T13:28:40Z</time>
      </trkpt>
      <trkpt lat="45.877390382811427" lon="8.363269614055753">
        <ele>1033.0699999999999</ele>
        <time>2018-05-06T13:28:50Z</time>
      </trkpt>
      <trkpt lat="45.877404883503914" lon="8.363404143601656">
        <ele>1031.6300000000001</ele>
        <time>2018-05-06T13:29:02Z</time>
      </trkpt>
      <trkpt lat="45.877413516864181" lon="8.363523501902819">
        <ele>1030.1900000000001</ele>
        <time>2018-05-06T13:29:12Z</time>
      </trkpt>
      <trkpt lat="45.877417959272861" lon="8.363566333428025">
        <ele>1029.71</ele>
        <time>2018-05-06T13:29:16Z</time>
      </trkpt>
      <trkpt lat="45.877437405288219" lon="8.363687368109822">
        <ele>1027.79</ele>
        <time>2018-05-06T13:29:25Z</time>
      </trkpt>
      <trkpt lat="45.877430951222777" lon="8.3637835085392">
        <ele>1026.3399999999999</ele>
        <time>2018-05-06T13:29:33Z</time>
      </trkpt>
      <trkpt lat="45.877407817170024" lon="8.363936394453049">
        <ele>1024.4200000000001</ele>
        <time>2018-05-06T13:29:44Z</time>
      </trkpt>
      <trkpt lat="45.877408571541309" lon="8.364058518782258">
        <ele>1022.98</ele>
        <time>2018-05-06T13:29:54Z</time>
      </trkpt>
      <trkpt lat="45.87741494178772" lon="8.364190952852368">
        <ele>1021.54</ele>
        <time>2018-05-06T13:30:04Z</time>
      </trkpt>
      <trkpt lat="45.877427430823445" lon="8.364271922037005">
        <ele>1020.1</ele>
        <time>2018-05-06T13:30:13Z</time>
      </trkpt>
      <trkpt lat="45.877463053911924" lon="8.364343671128154">
        <ele>1018.17</ele>
        <time>2018-05-06T13:30:21Z</time>
      </trkpt>
      <trkpt lat="45.877483757212758" lon="8.364408882334828">
        <ele>1016.73</ele>
        <time>2018-05-06T13:30:28Z</time>
      </trkpt>
      <trkpt lat="45.877514351159334" lon="8.364483565092087">
        <ele>1015.29</ele>
        <time>2018-05-06T13:30:35Z</time>
      </trkpt>
      <trkpt lat="45.877571515738964" lon="8.36460929363966">
        <ele>1013.37</ele>
        <time>2018-05-06T13:30:45Z</time>
      </trkpt>
      <trkpt lat="45.877603869885206" lon="8.364707948639989">
        <ele>1011.9299999999999</ele>
        <time>2018-05-06T13:30:54Z</time>
      </trkpt>
      <trkpt lat="45.877628428861499" lon="8.364821104332805">
        <ele>1010.48</ele>
        <time>2018-05-06T13:31:04Z</time>
      </trkpt>
      <trkpt lat="45.877572940662503" lon="8.365002572536469">
        <ele>1008.08</ele>
        <time>2018-05-06T13:31:15Z</time>
      </trkpt>
      <trkpt lat="45.877520386129618" lon="8.365163588896394">
        <ele>1006.64</ele>
        <time>2018-05-06T13:31:24Z</time>
      </trkpt>
      <trkpt lat="45.877610659226775" lon="8.365264758467674">
        <ele>1004.72</ele>
        <time>2018-05-06T13:31:36Z</time>
      </trkpt>
      <trkpt lat="45.877666063606739" lon="8.36527238599956">
        <ele>1003.75</ele>
        <time>2018-05-06T13:31:46Z</time>
      </trkpt>
      <trkpt lat="45.877687353640795" lon="8.365259980782867">
        <ele>1002.79</ele>
        <time>2018-05-06T13:31:50Z</time>
      </trkpt>
      <trkpt lat="45.877757677808404" lon="8.365206588059664">
        <ele>1002.3099999999999</ele>
        <time>2018-05-06T13:31:59Z</time>
      </trkpt>
      <trkpt lat="45.877833282575011" lon="8.365224106237292">
        <ele>1001.83</ele>
        <time>2018-05-06T13:32:09Z</time>
      </trkpt>
      <trkpt lat="45.877855410799384" lon="8.365271044895053">
        <ele>1001.83</ele>
        <time>2018-05-06T13:32:16Z</time>
      </trkpt>
      <trkpt lat="45.877840407192707" lon="8.365303901955485">
        <ele>1001.83</ele>
        <time>2018-05-06T13:32:30Z</time>
      </trkpt>
      <trkpt lat="45.877838479354978" lon="8.365332735702395">
        <ele>1001.83</ele>
        <time>2018-05-06T13:32:47Z</time>
      </trkpt>
      <trkpt lat="45.877835126593709" lon="8.365359473973513">
        <ele>1001.83</ele>
        <time>2018-05-06T13:32:59Z</time>
      </trkpt>
      <trkpt lat="45.877849711105227" lon="8.365370538085699">
        <ele>1001.83</ele>
        <time>2018-05-06T13:33:14Z</time>
      </trkpt>
      <trkpt lat="45.877806209027767" lon="8.365357043221593">
        <ele>1001.83</ele>
        <time>2018-05-06T13:33:28Z</time>
      </trkpt>
      <trkpt lat="45.877800174057484" lon="8.365334495902062">
        <ele>1001.83</ele>
        <time>2018-05-06T13:33:45Z</time>
      </trkpt>
      <trkpt lat="45.8778131660074" lon="8.365304153412581">
        <ele>1001.83</ele>
        <time>2018-05-06T13:34:02Z</time>
      </trkpt>
      <trkpt lat="45.87787133641541" lon="8.365285964682698">
        <ele>1001.83</ele>
        <time>2018-05-06T13:34:20Z</time>
      </trkpt>
      <trkpt lat="45.877856332808733" lon="8.365290071815252">
        <ele>1001.35</ele>
        <time>2018-05-06T13:34:38Z</time>
      </trkpt>
      <trkpt lat="45.877837892621756" lon="8.36532318033278">
        <ele>1001.35</ele>
        <time>2018-05-06T13:34:45Z</time>
      </trkpt>
      <trkpt lat="45.877832025289536" lon="8.365353774279356">
        <ele>1001.83</ele>
        <time>2018-05-06T13:34:47Z</time>
      </trkpt>
      <trkpt lat="45.877866223454475" lon="8.365456536412239">
        <ele>1001.83</ele>
        <time>2018-05-06T13:34:55Z</time>
      </trkpt>
      <trkpt lat="45.877863708883524" lon="8.365512192249298">
        <ele>1001.35</ele>
        <time>2018-05-06T13:34:59Z</time>
      </trkpt>
      <trkpt lat="45.877889860421419" lon="8.365577990189195">
        <ele>1001.35</ele>
        <time>2018-05-06T13:35:03Z</time>
      </trkpt>
      <trkpt lat="45.877891536802053" lon="8.365619732066989">
        <ele>1001.35</ele>
        <time>2018-05-06T13:35:06Z</time>
      </trkpt>
      <trkpt lat="45.877881813794374" lon="8.3656847756356">
        <ele>1000.87</ele>
        <time>2018-05-06T13:35:11Z</time>
      </trkpt>
      <trkpt lat="45.87788600474596" lon="8.365733558312058">
        <ele>1000.39</ele>
        <time>2018-05-06T13:35:14Z</time>
      </trkpt>
      <trkpt lat="45.877863876521587" lon="8.365862388163805">
        <ele>999.42999999999995</ele>
        <time>2018-05-06T13:35:22Z</time>
      </trkpt>
      <trkpt lat="45.877853650599718" lon="8.365922151133418">
        <ele>998.47000000000003</ele>
        <time>2018-05-06T13:35:27Z</time>
      </trkpt>
      <trkpt lat="45.877772094681859" lon="8.366027595475316">
        <ele>996.53999999999996</ele>
        <time>2018-05-06T13:35:37Z</time>
      </trkpt>
      <trkpt lat="45.877742087468505" lon="8.366107223555446">
        <ele>995.58000000000004</ele>
        <time>2018-05-06T13:35:43Z</time>
      </trkpt>
      <trkpt lat="45.877741333097219" lon="8.36613429710269">
        <ele>995.10000000000002</ele>
        <time>2018-05-06T13:35:45Z</time>
      </trkpt>
      <trkpt lat="45.877710990607738" lon="8.366217613220215">
        <ele>994.13999999999999</ele>
        <time>2018-05-06T13:35:53Z</time>
      </trkpt>
      <trkpt lat="45.877606132999063" lon="8.366285338997841">
        <ele>993.17999999999995</ele>
        <time>2018-05-06T13:36:03Z</time>
      </trkpt>
      <trkpt lat="45.877508735284209" lon="8.366366559639573">
        <ele>991.25999999999999</ele>
        <time>2018-05-06T13:36:13Z</time>
      </trkpt>
      <trkpt lat="45.877466490492225" lon="8.366371840238571">
        <ele>990.77999999999997</ele>
        <time>2018-05-06T13:36:18Z</time>
      </trkpt>
      <trkpt lat="45.877451486885548" lon="8.366350550204516">
        <ele>990.77999999999997</ele>
        <time>2018-05-06T13:36:20Z</time>
      </trkpt>
      <trkpt lat="45.877504460513592" lon="8.366266647353768">
        <ele>989.33000000000004</ele>
        <time>2018-05-06T13:36:26Z</time>
      </trkpt>
      <trkpt lat="45.877599846571684" lon="8.36617193184793">
        <ele>987.88999999999999</ele>
        <time>2018-05-06T13:36:36Z</time>
      </trkpt>
      <trkpt lat="45.877625830471516" lon="8.366133039817214">
        <ele>986.45000000000005</ele>
        <time>2018-05-06T13:36:48Z</time>
      </trkpt>
      <trkpt lat="45.877573024481535" lon="8.366181654855609">
        <ele>985.00999999999999</ele>
        <time>2018-05-06T13:36:56Z</time>
      </trkpt>
      <trkpt lat="45.877478728070855" lon="8.366194646805525">
        <ele>983.57000000000005</ele>
        <time>2018-05-06T13:37:05Z</time>
      </trkpt>
      <trkpt lat="45.877434806898236" lon="8.366211075335741">
        <ele>981.63999999999999</ele>
        <time>2018-05-06T13:37:12Z</time>
      </trkpt>
      <trkpt lat="45.877352077513933" lon="8.366227084770799">
        <ele>979.72000000000003</ele>
        <time>2018-05-06T13:37:21Z</time>
      </trkpt>
      <trkpt lat="45.877231126651168" lon="8.366251308470964">
        <ele>976.84000000000003</ele>
        <time>2018-05-06T13:37:33Z</time>
      </trkpt>
      <trkpt lat="45.877175470814109" lon="8.366286680102348">
        <ele>976.36000000000001</ele>
        <time>2018-05-06T13:37:37Z</time>
      </trkpt>
      <trkpt lat="45.877111181616783" lon="8.366344179958105">
        <ele>973.95000000000005</ele>
        <time>2018-05-06T13:37:47Z</time>
      </trkpt>
      <trkpt lat="45.87704068981111" lon="8.366410648450255">
        <ele>971.07000000000005</ele>
        <time>2018-05-06T13:37:59Z</time>
      </trkpt>
      <trkpt lat="45.876942537724972" lon="8.366492539644241">
        <ele>969.63</ele>
        <time>2018-05-06T13:38:06Z</time>
      </trkpt>
      <trkpt lat="45.876935329288244" lon="8.366559175774455">
        <ele>968.66999999999996</ele>
        <time>2018-05-06T13:38:13Z</time>
      </trkpt>
      <trkpt lat="45.876939268782735" lon="8.366609886288643">
        <ele>968.17999999999995</ele>
        <time>2018-05-06T13:38:17Z</time>
      </trkpt>
      <trkpt lat="45.876925271004438" lon="8.366677863523364">
        <ele>966.74000000000001</ele>
        <time>2018-05-06T13:38:24Z</time>
      </trkpt>
      <trkpt lat="45.876896437257528" lon="8.366744164377451">
        <ele>965.29999999999995</ele>
        <time>2018-05-06T13:38:30Z</time>
      </trkpt>
      <trkpt lat="45.876899706199765" lon="8.366893278434873">
        <ele>962.89999999999998</ele>
        <time>2018-05-06T13:38:40Z</time>
      </trkpt>
      <trkpt lat="45.876909680664539" lon="8.367002997547388">
        <ele>960.98000000000002</ele>
        <time>2018-05-06T13:38:49Z</time>
      </trkpt>
      <trkpt lat="45.876937424764037" lon="8.367083296179771">
        <ele>958.57000000000005</ele>
        <time>2018-05-06T13:38:58Z</time>
      </trkpt>
      <trkpt lat="45.876956032589078" lon="8.367178346961737">
        <ele>956.64999999999998</ele>
        <time>2018-05-06T13:39:06Z</time>
      </trkpt>
      <trkpt lat="45.876950835809112" lon="8.367208521813154">
        <ele>956.16999999999996</ele>
        <time>2018-05-06T13:39:08Z</time>
      </trkpt>
      <trkpt lat="45.876909093931317" lon="8.36731337942183">
        <ele>953.76999999999998</ele>
        <time>2018-05-06T13:39:17Z</time>
      </trkpt>
      <trkpt lat="45.87685938924551" lon="8.367390744388104">
        <ele>951.84000000000003</ele>
        <time>2018-05-06T13:39:27Z</time>
      </trkpt>
      <trkpt lat="45.876813707873225" lon="8.367503313347697">
        <ele>950.39999999999998</ele>
        <time>2018-05-06T13:39:37Z</time>
      </trkpt>
      <trkpt lat="45.876784203574061" lon="8.367647817358375">
        <ele>948.96000000000004</ele>
        <time>2018-05-06T13:39:47Z</time>
      </trkpt>
      <trkpt lat="45.876733157783747" lon="8.367726355791092">
        <ele>948</ele>
        <time>2018-05-06T13:39:56Z</time>
      </trkpt>
      <trkpt lat="45.876720165833831" lon="8.367836745455861">
        <ele>946.07000000000005</ele>
        <time>2018-05-06T13:40:06Z</time>
      </trkpt>
      <trkpt lat="45.876666102558374" lon="8.367951409891248">
        <ele>944.14999999999998</ele>
        <time>2018-05-06T13:40:16Z</time>
      </trkpt>
      <trkpt lat="45.876658307388425" lon="8.367976555600762">
        <ele>943.66999999999996</ele>
        <time>2018-05-06T13:40:19Z</time>
      </trkpt>
      <trkpt lat="45.876633999869227" lon="8.368068924173713">
        <ele>941.75</ele>
        <time>2018-05-06T13:40:26Z</time>
      </trkpt>
      <trkpt lat="45.876612039282918" lon="8.368086442351341">
        <ele>941.26999999999998</ele>
        <time>2018-05-06T13:40:28Z</time>
      </trkpt>
      <trkpt lat="45.876527382060885" lon="8.368212673813105">
        <ele>939.35000000000002</ele>
        <time>2018-05-06T13:40:40Z</time>
      </trkpt>
      <trkpt lat="45.876408023759723" lon="8.3682940620929">
        <ele>937.89999999999998</ele>
        <time>2018-05-06T13:40:50Z</time>
      </trkpt>
      <trkpt lat="45.876349350437522" lon="8.368396488949657">
        <ele>935.98000000000002</ele>
        <time>2018-05-06T13:41:00Z</time>
      </trkpt>
      <trkpt lat="45.876279696822166" lon="8.368495395407081">
        <ele>934.53999999999996</ele>
        <time>2018-05-06T13:41:11Z</time>
      </trkpt>
      <trkpt lat="45.876189507544041" lon="8.368613999336958">
        <ele>933.10000000000002</ele>
        <time>2018-05-06T13:41:21Z</time>
      </trkpt>
      <trkpt lat="45.876164948567748" lon="8.368677198886871">
        <ele>932.13999999999999</ele>
        <time>2018-05-06T13:41:28Z</time>
      </trkpt>
      <trkpt lat="45.876120440661907" lon="8.368759006261826">
        <ele>930.69000000000005</ele>
        <time>2018-05-06T13:41:36Z</time>
      </trkpt>
      <trkpt lat="45.876057744026184" lon="8.368812818080187">
        <ele>929.25</ele>
        <time>2018-05-06T13:41:44Z</time>
      </trkpt>
      <trkpt lat="45.875997394323349" lon="8.368867803364992">
        <ele>926.85000000000002</ele>
        <time>2018-05-06T13:41:54Z</time>
      </trkpt>
      <trkpt lat="45.875932853668928" lon="8.368945252150297">
        <ele>924.45000000000005</ele>
        <time>2018-05-06T13:42:06Z</time>
      </trkpt>
      <trkpt lat="45.875880885869265" lon="8.369019599631429">
        <ele>923</ele>
        <time>2018-05-06T13:42:15Z</time>
      </trkpt>
      <trkpt lat="45.875805532559752" lon="8.369106100872159">
        <ele>920.60000000000002</ele>
        <time>2018-05-06T13:42:25Z</time>
      </trkpt>
      <trkpt lat="45.875757252797484" lon="8.369178017601371">
        <ele>918.67999999999995</ele>
        <time>2018-05-06T13:42:36Z</time>
      </trkpt>
      <trkpt lat="45.875693801790476" lon="8.369235014542937">
        <ele>916.75</ele>
        <time>2018-05-06T13:42:44Z</time>
      </trkpt>
      <trkpt lat="45.875612832605839" lon="8.369317324832082">
        <ele>915.30999999999995</ele>
        <time>2018-05-06T13:42:52Z</time>
      </trkpt>
      <trkpt lat="45.875457599759102" lon="8.36940910667181">
        <ele>912.90999999999997</ele>
        <time>2018-05-06T13:43:05Z</time>
      </trkpt>
      <trkpt lat="45.875359866768122" lon="8.369493009522557">
        <ele>911.47000000000003</ele>
        <time>2018-05-06T13:43:16Z</time>
      </trkpt>
      <trkpt lat="45.875212429091334" lon="8.369579510763288">
        <ele>910.50999999999999</ele>
        <time>2018-05-06T13:43:27Z</time>
      </trkpt>
      <trkpt lat="45.875063231214881" lon="8.369632149115205">
        <ele>909.05999999999995</ele>
        <time>2018-05-06T13:43:40Z</time>
      </trkpt>
      <trkpt lat="45.874972874298692" lon="8.369669113308191">
        <ele>907.62</ele>
        <time>2018-05-06T13:43:50Z</time>
      </trkpt>
      <trkpt lat="45.874916799366474" lon="8.369795763865113">
        <ele>905.70000000000005</ele>
        <time>2018-05-06T13:44:02Z</time>
      </trkpt>
      <trkpt lat="45.874904813244939" lon="8.369846306741238">
        <ele>905.70000000000005</ele>
        <time>2018-05-06T13:44:06Z</time>
      </trkpt>
      <trkpt lat="45.874915206804872" lon="8.369897603988648">
        <ele>905.22000000000003</ele>
        <time>2018-05-06T13:44:09Z</time>
      </trkpt>
      <trkpt lat="45.87491269223392" lon="8.369970275089145">
        <ele>905.22000000000003</ele>
        <time>2018-05-06T13:44:13Z</time>
      </trkpt>
      <trkpt lat="45.874906405806541" lon="8.370071779936552">
        <ele>904.74000000000001</ele>
        <time>2018-05-06T13:44:20Z</time>
      </trkpt>
      <trkpt lat="45.874879918992519" lon="8.370120897889137">
        <ele>904.25999999999999</ele>
        <time>2018-05-06T13:44:23Z</time>
      </trkpt>
      <trkpt lat="45.874844882637262" lon="8.370213769376278">
        <ele>903.29999999999995</ele>
        <time>2018-05-06T13:44:29Z</time>
      </trkpt>
      <trkpt lat="45.874720830470324" lon="8.370336480438709">
        <ele>901.37</ele>
        <time>2018-05-06T13:44:40Z</time>
      </trkpt>
      <trkpt lat="45.874602645635605" lon="8.370432369410992">
        <ele>900.40999999999997</ele>
        <time>2018-05-06T13:44:50Z</time>
      </trkpt>
      <trkpt lat="45.87454623542726" lon="8.370589697733522">
        <ele>899.45000000000005</ele>
        <time>2018-05-06T13:45:01Z</time>
      </trkpt>
      <trkpt lat="45.874562999233603" lon="8.370754821226001">
        <ele>898.49000000000001</ele>
        <time>2018-05-06T13:45:11Z</time>
      </trkpt>
      <trkpt lat="45.874544642865658" lon="8.370930757373571">
        <ele>898.00999999999999</ele>
        <time>2018-05-06T13:45:22Z</time>
      </trkpt>
      <trkpt lat="45.874545564875007" lon="8.37096537463367">
        <ele>897.52999999999997</ele>
        <time>2018-05-06T13:45:24Z</time>
      </trkpt>
      <trkpt lat="45.874544391408563" lon="8.371037878096104">
        <ele>897.52999999999997</ele>
        <time>2018-05-06T13:45:28Z</time>
      </trkpt>
      <trkpt lat="45.874531650915742" lon="8.371112057939172">
        <ele>897.04999999999995</ele>
        <time>2018-05-06T13:45:33Z</time>
      </trkpt>
      <trkpt lat="45.874479850754142" lon="8.371282881125808">
        <ele>895.61000000000001</ele>
        <time>2018-05-06T13:45:46Z</time>
      </trkpt>
      <trkpt lat="45.874402318149805" lon="8.371416823938489">
        <ele>894.63999999999999</ele>
        <time>2018-05-06T13:45:55Z</time>
      </trkpt>
      <trkpt lat="45.874300813302398" lon="8.371486561372876">
        <ele>893.20000000000005</ele>
        <time>2018-05-06T13:46:06Z</time>
      </trkpt>
      <trkpt lat="45.874178437516093" lon="8.371548838913441">
        <ele>891.75999999999999</ele>
        <time>2018-05-06T13:46:16Z</time>
      </trkpt>
      <trkpt lat="45.874056816101074" lon="8.371621258556843">
        <ele>889.84000000000003</ele>
        <time>2018-05-06T13:46:27Z</time>
      </trkpt>
      <trkpt lat="45.87390267290175" lon="8.37163676507771">
        <ele>888.88</ele>
        <time>2018-05-06T13:46:40Z</time>
      </trkpt>
      <trkpt lat="45.873767053708434" lon="8.371706502512097">
        <ele>887.90999999999997</ele>
        <time>2018-05-06T13:46:53Z</time>
      </trkpt>
      <trkpt lat="45.873656831681728" lon="8.371696025133133">
        <ele>886.95000000000005</ele>
        <time>2018-05-06T13:47:04Z</time>
      </trkpt>
      <trkpt lat="45.873534791171551" lon="8.371659899130464">
        <ele>886.47000000000003</ele>
        <time>2018-05-06T13:47:14Z</time>
      </trkpt>
      <trkpt lat="45.873489361256361" lon="8.37165042757988">
        <ele>885.99000000000001</ele>
        <time>2018-05-06T13:47:18Z</time>
      </trkpt>
      <trkpt lat="45.873397327959538" lon="8.371639531105757">
        <ele>885.50999999999999</ele>
        <time>2018-05-06T13:47:29Z</time>
      </trkpt>
      <trkpt lat="45.87334661744535" lon="8.371693007647991">
        <ele>885.99000000000001</ele>
        <time>2018-05-06T13:47:35Z</time>
      </trkpt>
      <trkpt lat="45.873288363218307" lon="8.371744891628623">
        <ele>885.99000000000001</ele>
        <time>2018-05-06T13:47:43Z</time>
      </trkpt>
      <trkpt lat="45.873163221403956" lon="8.371778586879373">
        <ele>885.99000000000001</ele>
        <time>2018-05-06T13:47:53Z</time>
      </trkpt>
      <trkpt lat="45.873128185048699" lon="8.371761320158839">
        <ele>885.99000000000001</ele>
        <time>2018-05-06T13:47:56Z</time>
      </trkpt>
      <trkpt lat="45.873054508119822" lon="8.371732570230961">
        <ele>886.47000000000003</ele>
        <time>2018-05-06T13:48:04Z</time>
      </trkpt>
      <trkpt lat="45.87296306155622" lon="8.371681356802583">
        <ele>885.99000000000001</ele>
        <time>2018-05-06T13:48:16Z</time>
      </trkpt>
      <trkpt lat="45.872916374355555" lon="8.371662748977542">
        <ele>885.99000000000001</ele>
        <time>2018-05-06T13:48:27Z</time>
      </trkpt>
      <trkpt lat="45.872926767915487" lon="8.371703904122114">
        <ele>885.99000000000001</ele>
        <time>2018-05-06T13:48:36Z</time>
      </trkpt>
      <trkpt lat="45.872956104576588" lon="8.371739191934466">
        <ele>885.02999999999997</ele>
        <time>2018-05-06T13:48:45Z</time>
      </trkpt>
      <trkpt lat="45.872997427359223" lon="8.371797697618604">
        <ele>883.59000000000003</ele>
        <time>2018-05-06T13:48:55Z</time>
      </trkpt>
      <trkpt lat="45.873027518391609" lon="8.371909093111754">
        <ele>882.14999999999998</ele>
        <time>2018-05-06T13:49:05Z</time>
      </trkpt>
      <trkpt lat="45.873068924993277" lon="8.371966425329447">
        <ele>881.19000000000005</ele>
        <time>2018-05-06T13:49:15Z</time>
      </trkpt>
      <trkpt lat="45.873142601922154" lon="8.37201495654881">
        <ele>879.25999999999999</ele>
        <time>2018-05-06T13:49:26Z</time>
      </trkpt>
      <trkpt lat="45.873218877241015" lon="8.372076814994216">
        <ele>879.25999999999999</ele>
        <time>2018-05-06T13:49:36Z</time>
      </trkpt>
      <trkpt lat="45.873279226943851" lon="8.372078742831945">
        <ele>877.82000000000005</ele>
        <time>2018-05-06T13:49:39Z</time>
      </trkpt>
      <trkpt lat="45.873294733464718" lon="8.372139511629939">
        <ele>876.86000000000001</ele>
        <time>2018-05-06T13:49:45Z</time>
      </trkpt>
      <trkpt lat="45.87327235378325" lon="8.372179912403226">
        <ele>876.38</ele>
        <time>2018-05-06T13:49:47Z</time>
      </trkpt>
      <trkpt lat="45.87325039319694" lon="8.372226348146796">
        <ele>876.38</ele>
        <time>2018-05-06T13:49:50Z</time>
      </trkpt>
      <trkpt lat="45.873247208073735" lon="8.372245039790869">
        <ele>875.89999999999998</ele>
        <time>2018-05-06T13:49:51Z</time>
      </trkpt>
      <trkpt lat="45.873239831998944" lon="8.372275466099381">
        <ele>875.89999999999998</ele>
        <time>2018-05-06T13:49:53Z</time>
      </trkpt>
      <trkpt lat="45.87323765270412" lon="8.372364481911063">
        <ele>874.94000000000005</ele>
        <time>2018-05-06T13:50:00Z</time>
      </trkpt>
      <trkpt lat="45.873247375711799" lon="8.372470010071993">
        <ele>873.5</ele>
        <time>2018-05-06T13:50:10Z</time>
      </trkpt>
      <trkpt lat="45.87314092554152" lon="8.372496161609888">
        <ele>872.04999999999995</ele>
        <time>2018-05-06T13:50:21Z</time>
      </trkpt>
      <trkpt lat="45.873134639114141" lon="8.372493144124746">
        <ele>872.04999999999995</ele>
        <time>2018-05-06T13:50:22Z</time>
      </trkpt>
      <trkpt lat="45.873065320774913" lon="8.372480655089021">
        <ele>872.04999999999995</ele>
        <time>2018-05-06T13:50:32Z</time>
      </trkpt>
      <trkpt lat="45.873042857274413" lon="8.37249431759119">
        <ele>872.04999999999995</ele>
        <time>2018-05-06T13:50:46Z</time>
      </trkpt>
      <trkpt lat="45.872975969687104" lon="8.372497754171491">
        <ele>872.04999999999995</ele>
        <time>2018-05-06T13:51:03Z</time>
      </trkpt>
      <trkpt lat="45.872921403497458" lon="8.372442265972495">
        <ele>871.57000000000005</ele>
        <time>2018-05-06T13:51:13Z</time>
      </trkpt>
      <trkpt lat="45.872789137065411" lon="8.37236381135881">
        <ele>870.61000000000001</ele>
        <time>2018-05-06T13:51:26Z</time>
      </trkpt>
      <trkpt lat="45.872705820947886" lon="8.372326092794538">
        <ele>870.13</ele>
        <time>2018-05-06T13:51:34Z</time>
      </trkpt>
      <trkpt lat="45.872614625841379" lon="8.372263899073005">
        <ele>869.64999999999998</ele>
        <time>2018-05-06T13:51:47Z</time>
      </trkpt>
      <trkpt lat="45.872504571452737" lon="8.372173206880689">
        <ele>869.16999999999996</ele>
        <time>2018-05-06T13:52:00Z</time>
      </trkpt>
      <trkpt lat="45.872396277263761" lon="8.372044377028942">
        <ele>869.16999999999996</ele>
        <time>2018-05-06T13:52:13Z</time>
      </trkpt>
      <trkpt lat="45.872287228703499" lon="8.371910685673356">
        <ele>868.21000000000004</ele>
        <time>2018-05-06T13:52:26Z</time>
      </trkpt>
      <trkpt lat="45.872192177921534" lon="8.37177699431777">
        <ele>867.73000000000002</ele>
        <time>2018-05-06T13:52:39Z</time>
      </trkpt>
      <trkpt lat="45.872176587581635" lon="8.371758470311761">
        <ele>867.73000000000002</ele>
        <time>2018-05-06T13:52:41Z</time>
      </trkpt>
      <trkpt lat="45.872073490172625" lon="8.371621007099748">
        <ele>866.76999999999998</ele>
        <time>2018-05-06T13:52:54Z</time>
      </trkpt>
      <trkpt lat="45.871958574280143" lon="8.371503241360188">
        <ele>866.28999999999996</ele>
        <time>2018-05-06T13:53:06Z</time>
      </trkpt>
      <trkpt lat="45.871838880702853" lon="8.371376758441329">
        <ele>865.32000000000005</ele>
        <time>2018-05-06T13:53:19Z</time>
      </trkpt>
      <trkpt lat="45.87173662148416" lon="8.371249102056027">
        <ele>865.32000000000005</ele>
        <time>2018-05-06T13:53:32Z</time>
      </trkpt>
      <trkpt lat="45.871699489653111" lon="8.371185064315796">
        <ele>864.84000000000003</ele>
        <time>2018-05-06T13:53:38Z</time>
      </trkpt>
      <trkpt lat="45.871671913191676" lon="8.371187830343843">
        <ele>864.84000000000003</ele>
        <time>2018-05-06T13:53:41Z</time>
      </trkpt>
      <trkpt lat="45.87163352407515" lon="8.371238205581904">
        <ele>863.88</ele>
        <time>2018-05-06T13:53:46Z</time>
      </trkpt>
      <trkpt lat="45.871638134121895" lon="8.371333675459027">
        <ele>862.91999999999996</ele>
        <time>2018-05-06T13:53:56Z</time>
      </trkpt>
      <trkpt lat="45.871648611500859" lon="8.371349768713117">
        <ele>862.44000000000005</ele>
        <time>2018-05-06T13:53:58Z</time>
      </trkpt>
      <trkpt lat="45.871745171025395" lon="8.37141053751111">
        <ele>862.44000000000005</ele>
        <time>2018-05-06T13:54:10Z</time>
      </trkpt>
      <trkpt lat="45.871733939275146" lon="8.371458230540156">
        <ele>861.96000000000004</ele>
        <time>2018-05-06T13:54:18Z</time>
      </trkpt>
      <trkpt lat="45.871746176853776" lon="8.371469965204597">
        <ele>861</ele>
        <time>2018-05-06T13:54:30Z</time>
      </trkpt>
      <trkpt lat="45.871753636747599" lon="8.371486226096749">
        <ele>861</ele>
        <time>2018-05-06T13:54:48Z</time>
      </trkpt>
      <trkpt lat="45.871734777465463" lon="8.371458984911442">
        <ele>861.48000000000002</ele>
        <time>2018-05-06T13:55:00Z</time>
      </trkpt>
    </trkseg>
  </trk>

</gpx>